[[{"header":{"parameterUnit":"m.s-1","parameterCategory":1,"la1":30.6,"la2":29.2853,"lo1":-89.7004,"lo2":-87.6739,"dy":0.0162,"dx":0.0183,"nx":112,"ny":82,"refTime":"2023-07-18T06:00:00:Z","depth":0,"parameterNumber":2,"parameterNumberName":"U-component_of_WINDS"},"data":[0.0,0.0,0.0,0.0,0.0,0.0,0.0,0.0,0.0,0.0,0.0,0.0,0.0,0.0,0.0,0.0,0.0,0.0,0.0,0.0,0.0,0.0,0.0,0.0,0.0,0.0,0.0,0.0,0.0,0.0,0.0,0.0,0.0,0.0,0.0,0.0,0.0,0.0,0.0,0.0,0.0,0.0,0.0,0.0,0.0,0.0,0.0,0.0,0.0,0.0,0.0,0.0,0.0,0.0,0.0,0.0,0.0,0.0,0.0,0.0,0.0,0.0,0.0,0.0,0.0,0.0,0.0,0.0,0.0,0.0,0.0,0.0,0.0,0.0,0.0,0.0,0.0,0.0,0.0,0.0,0.0,0.0,0.0,0.0,0.0,0.0,0.0,0.0,0.0,0.0,-3.5622,-3.5622,-3.5622,-3.5622,-3.5622,-3.5622,-3.5299,-3.4624,0.0,0.0,0.0,0.0,0.0,0.0,0.0,0.0,0.0,0.0,0.0,0.0,0.0,0.0,0.0,0.0,0.0,0.0,0.0,0.0,0.0,0.0,0.0,0.0,0.0,0.0,0.0,0.0,0.0,0.0,0.0,0.0,0.0,0.0,0.0,0.0,0.0,0.0,0.0,0.0,0.0,0.0,0.0,0.0,0.0,0.0,0.0,0.0,0.0,0.0,0.0,0.0,0.0,0.0,0.0,0.0,0.0,0.0,0.0,0.0,0.0,0.0,0.0,0.0,0.0,0.0,0.0,0.0,0.0,0.0,0.0,0.0,0.0,0.0,0.0,0.0,0.0,0.0,0.0,0.0,0.0,0.0,0.0,0.0,0.0,0.0,0.0,0.0,0.0,0.0,0.0,0.0,0.0,0.0,0.0,0.0,0.0,0.0,0.0,0.0,0.0,0.0,0.0,0.0,-3.5622,-3.5622,-3.5622,-3.5622,-3.5622,-3.5622,-3.5299,-3.4624,0.0,0.0,0.0,0.0,0.0,0.0,0.0,0.0,0.0,0.0,0.0,0.0,0.0,0.0,0.0,0.0,0.0,0.0,0.0,0.0,0.0,0.0,0.0,0.0,0.0,0.0,0.0,0.0,0.0,0.0,0.0,0.0,0.0,0.0,0.0,0.0,0.0,0.0,0.0,0.0,0.0,0.0,0.0,0.0,0.0,0.0,0.0,0.0,0.0,0.0,0.0,0.0,0.0,0.0,0.0,0.0,0.0,0.0,0.0,0.0,0.0,0.0,0.0,0.0,0.0,0.0,0.0,0.0,0.0,0.0,0.0,0.0,0.0,0.0,0.0,0.0,0.0,0.0,0.0,0.0,0.0,0.0,0.0,0.0,0.0,0.0,0.0,0.0,0.0,0.0,0.0,0.0,0.0,0.0,0.0,0.0,0.0,0.0,0.0,0.0,0.0,0.0,0.0,-3.5622,-3.5622,-3.5622,-3.5622,-3.5622,-3.5622,-3.5622,-3.5161,-3.4137,-3.3786,0.0,0.0,0.0,0.0,0.0,0.0,0.0,0.0,0.0,0.0,0.0,0.0,0.0,0.0,0.0,0.0,0.0,0.0,0.0,0.0,0.0,0.0,0.0,0.0,0.0,0.0,0.0,0.0,0.0,0.0,0.0,0.0,0.0,0.0,0.0,0.0,0.0,0.0,0.0,0.0,0.0,0.0,0.0,0.0,0.0,0.0,0.0,0.0,0.0,0.0,0.0,0.0,0.0,0.0,0.0,0.0,0.0,0.0,0.0,0.0,0.0,0.0,0.0,0.0,0.0,0.0,0.0,0.0,0.0,0.0,0.0,0.0,0.0,0.0,0.0,0.0,0.0,0.0,0.0,0.0,0.0,0.0,0.0,0.0,0.0,0.0,0.0,0.0,0.0,0.0,0.0,0.0,0.0,0.0,0.0,0.0,0.0,0.0,0.0,0.0,0.0,0.0,-3.5622,-3.5622,-3.5622,-3.5622,-3.5622,-3.5622,-3.547,-3.4864,-3.3684,-3.3443,0.0,0.0,0.0,0.0,0.0,0.0,0.0,0.0,0.0,0.0,0.0,0.0,0.0,0.0,0.0,0.0,0.0,0.0,0.0,0.0,0.0,0.0,0.0,0.0,0.0,0.0,0.0,0.0,0.0,0.0,0.0,0.0,0.0,0.0,0.0,0.0,0.0,0.0,0.0,0.0,0.0,0.0,0.0,0.0,0.0,0.0,0.0,0.0,0.0,0.0,0.0,0.0,0.0,0.0,0.0,0.0,0.0,0.0,0.0,0.0,0.0,0.0,0.0,0.0,0.0,0.0,0.0,0.0,0.0,0.0,0.0,0.0,0.0,0.0,0.0,0.0,0.0,0.0,0.0,0.0,0.0,0.0,0.0,0.0,0.0,0.0,0.0,0.0,0.0,0.0,0.0,0.0,0.0,0.0,0.0,0.0,0.0,0.0,0.0,0.0,0.0,0.0,-3.5622,-3.5622,-3.5622,-3.5622,-3.5622,-3.5622,-3.5052,-3.4382,-3.3633,-3.3002,0.0,0.0,0.0,0.0,0.0,0.0,0.0,0.0,0.0,0.0,0.0,0.0,0.0,0.0,0.0,0.0,0.0,0.0,0.0,0.0,0.0,0.0,0.0,0.0,0.0,0.0,0.0,0.0,0.0,0.0,0.0,0.0,0.0,0.0,0.0,0.0,0.0,0.0,0.0,0.0,0.0,0.0,0.0,0.0,0.0,0.0,0.0,0.0,0.0,0.0,0.0,0.0,0.0,0.0,0.0,0.0,0.0,0.0,0.0,0.0,0.0,0.0,0.0,0.0,0.0,0.0,0.0,0.0,0.0,0.0,0.0,0.0,0.0,0.0,0.0,0.0,0.0,0.0,0.0,0.0,0.0,0.0,0.0,0.0,0.0,0.0,0.0,0.0,0.0,0.0,0.0,0.0,0.0,0.0,0.0,0.0,0.0,0.0,0.0,0.0,0.0,0.0,-3.5622,-3.5622,-3.5622,-3.5622,-3.5622,-3.5622,-3.5005,-3.4333,-3.3633,0.0,0.0,0.0,0.0,0.0,0.0,0.0,0.0,0.0,0.0,0.0,0.0,0.0,0.0,0.0,0.0,0.0,0.0,0.0,0.0,0.0,0.0,0.0,0.0,0.0,0.0,0.0,0.0,0.0,0.0,0.0,0.0,0.0,0.0,0.0,0.0,0.0,0.0,0.0,0.0,0.0,0.0,0.0,0.0,0.0,0.0,0.0,0.0,0.0,0.0,0.0,0.0,0.0,0.0,0.0,0.0,0.0,0.0,0.0,0.0,0.0,0.0,0.0,0.0,0.0,0.0,0.0,0.0,0.0,0.0,0.0,0.0,0.0,0.0,0.0,0.0,0.0,0.0,0.0,0.0,0.0,0.0,0.0,0.0,0.0,0.0,0.0,0.0,0.0,0.0,0.0,0.0,0.0,0.0,0.0,0.0,0.0,0.0,0.0,0.0,0.0,0.0,-3.527,-3.5299,-3.5362,-3.5577,-3.5407,-3.5299,-3.5299,-3.4496,-3.3786,-3.3287,0.0,0.0,0.0,0.0,0.0,0.0,0.0,0.0,0.0,0.0,0.0,0.0,0.0,0.0,0.0,0.0,0.0,0.0,0.0,0.0,0.0,0.0,0.0,0.0,0.0,0.0,0.0,0.0,0.0,0.0,0.0,0.0,0.0,0.0,0.0,0.0,0.0,0.0,0.0,0.0,0.0,0.0,0.0,0.0,0.0,0.0,0.0,0.0,0.0,0.0,0.0,0.0,0.0,0.0,0.0,0.0,0.0,0.0,0.0,0.0,0.0,0.0,0.0,0.0,0.0,0.0,0.0,0.0,0.0,0.0,0.0,0.0,0.0,0.0,0.0,0.0,0.0,0.0,0.0,0.0,0.0,0.0,0.0,0.0,0.0,0.0,0.0,0.0,0.0,0.0,0.0,0.0,0.0,0.0,0.0,0.0,0.0,0.0,0.0,0.0,0.0,0.0,-3.4479,-3.4576,-3.483,-3.5515,-3.4971,-3.4559,-3.4559,-3.336,-3.2571,0.0,0.0,0.0,0.0,0.0,0.0,0.0,0.0,0.0,0.0,0.0,0.0,0.0,0.0,0.0,0.0,0.0,0.0,0.0,0.0,0.0,0.0,0.0,0.0,0.0,0.0,0.0,0.0,0.0,0.0,0.0,0.0,0.0,0.0,0.0,0.0,0.0,0.0,0.0,0.0,0.0,0.0,0.0,0.0,0.0,0.0,0.0,0.0,0.0,0.0,0.0,0.0,0.0,0.0,0.0,0.0,0.0,0.0,0.0,0.0,0.0,0.0,0.0,0.0,0.0,0.0,0.0,0.0,0.0,0.0,0.0,0.0,0.0,0.0,0.0,0.0,0.0,0.0,0.0,0.0,0.0,0.0,0.0,0.0,0.0,0.0,0.0,0.0,0.0,0.0,0.0,0.0,0.0,0.0,0.0,0.0,0.0,0.0,0.0,0.0,0.0,0.0,0.0,-3.3887,-3.3501,-3.3242,-3.3437,-3.2885,-3.2498,-3.2498,-3.1662,-3.1182,-3.1182,0.0,0.0,0.0,0.0,0.0,0.0,0.0,0.0,0.0,0.0,0.0,0.0,0.0,0.0,0.0,0.0,0.0,0.0,0.0,0.0,0.0,0.0,0.0,0.0,0.0,0.0,0.0,0.0,0.0,0.0,0.0,0.0,0.0,0.0,0.0,0.0,0.0,0.0,0.0,0.0,0.0,0.0,0.0,0.0,0.0,0.0,0.0,0.0,0.0,0.0,0.0,0.0,0.0,0.0,0.0,0.0,0.0,0.0,0.0,0.0,0.0,0.0,0.0,0.0,0.0,0.0,0.0,0.0,0.0,0.0,0.0,0.0,0.0,0.0,0.0,0.0,0.0,0.0,0.0,0.0,0.0,0.0,0.0,0.0,0.0,0.0,0.0,0.0,0.0,0.0,0.0,0.0,0.0,0.0,0.0,0.0,0.0,0.0,0.0,0.0,0.0,0.0,-3.2771,-3.2222,-3.1929,-3.2175,-3.1596,-3.1195,-3.1195,-3.0576,-3.0195,-3.0195,0.0,0.0,0.0,0.0,0.0,0.0,0.0,0.0,0.0,0.0,0.0,0.0,0.0,0.0,0.0,0.0,0.0,0.0,0.0,0.0,0.0,0.0,0.0,0.0,0.0,0.0,0.0,0.0,0.0,0.0,0.0,0.0,0.0,0.0,0.0,0.0,0.0,0.0,0.0,0.0,0.0,0.0,0.0,0.0,0.0,0.0,0.0,0.0,0.0,0.0,0.0,0.0,0.0,0.0,0.0,0.0,0.0,0.0,0.0,0.0,0.0,0.0,0.0,0.0,0.0,0.0,0.0,0.0,0.0,0.0,0.0,0.0,0.0,0.0,0.0,0.0,0.0,0.0,0.0,0.0,0.0,0.0,0.0,0.0,0.0,0.0,0.0,0.0,0.0,0.0,0.0,0.0,0.0,0.0,0.0,0.0,0.0,0.0,0.0,0.0,0.0,0.0,-3.142,-3.0846,-3.067,-3.1261,-3.0707,-3.0324,-3.0324,-2.9713,-2.9331,-2.9331,0.0,0.0,0.0,0.0,0.0,0.0,0.0,0.0,0.0,0.0,0.0,0.0,0.0,0.0,0.0,0.0,0.0,0.0,0.0,0.0,0.0,0.0,0.0,0.0,0.0,0.0,0.0,0.0,0.0,0.0,0.0,0.0,0.0,0.0,0.0,0.0,0.0,0.0,0.0,0.0,0.0,0.0,0.0,0.0,0.0,0.0,0.0,0.0,0.0,0.0,0.0,0.0,0.0,0.0,0.0,0.0,0.0,0.0,0.0,0.0,-3.8971,-3.9225,0.0,0.0,0.0,0.0,0.0,0.0,0.0,0.0,0.0,0.0,0.0,0.0,0.0,0.0,0.0,0.0,0.0,0.0,0.0,0.0,0.0,0.0,0.0,0.0,0.0,0.0,0.0,0.0,0.0,0.0,0.0,0.0,0.0,0.0,0.0,0.0,0.0,0.0,0.0,0.0,-3.0714,-2.9758,-2.9085,-2.9225,-2.8652,-2.8218,-2.8218,-2.7602,-2.7142,-2.7142,-2.6629,0.0,0.0,0.0,0.0,0.0,0.0,0.0,0.0,0.0,0.0,0.0,0.0,0.0,0.0,0.0,0.0,0.0,0.0,0.0,0.0,0.0,0.0,0.0,0.0,0.0,0.0,0.0,0.0,0.0,0.0,0.0,0.0,0.0,0.0,0.0,0.0,0.0,0.0,0.0,0.0,0.0,0.0,0.0,0.0,0.0,0.0,0.0,0.0,0.0,0.0,0.0,0.0,0.0,0.0,0.0,0.0,0.0,0.0,0.0,-3.8142,-3.8284,0.0,0.0,0.0,0.0,0.0,0.0,0.0,0.0,0.0,0.0,0.0,0.0,0.0,0.0,0.0,0.0,0.0,0.0,0.0,0.0,0.0,0.0,0.0,0.0,0.0,0.0,0.0,0.0,0.0,0.0,0.0,0.0,0.0,0.0,0.0,0.0,0.0,0.0,0.0,0.0,-2.9624,-2.8727,-2.8113,-2.8113,-2.7784,-2.7473,-2.7086,-2.6721,-2.6336,-2.6014,-2.5618,0.0,0.0,0.0,0.0,0.0,0.0,0.0,0.0,0.0,0.0,0.0,0.0,0.0,0.0,0.0,0.0,0.0,0.0,0.0,0.0,0.0,0.0,0.0,0.0,0.0,0.0,0.0,0.0,0.0,0.0,0.0,0.0,0.0,0.0,0.0,0.0,0.0,0.0,0.0,0.0,0.0,0.0,0.0,0.0,0.0,0.0,0.0,0.0,0.0,0.0,0.0,0.0,0.0,-3.7584,-3.7516,-3.7516,-3.7516,-3.7178,-3.662,-3.7135,-3.7067,-3.6654,-3.7152,0.0,0.0,0.0,0.0,0.0,0.0,0.0,0.0,0.0,0.0,0.0,0.0,0.0,0.0,0.0,0.0,0.0,0.0,0.0,0.0,0.0,0.0,-2.767,-2.8363,-2.7986,-2.767,-2.8427,0.0,0.0,0.0,0.0,0.0,0.0,0.0,0.0,0.0,0.0,0.0,-2.8682,-2.7891,-2.7408,-2.7408,-2.7291,-2.6982,-2.6336,-2.6176,-2.5837,-2.5231,-2.5063,-2.4724,0.0,0.0,0.0,0.0,0.0,0.0,0.0,0.0,0.0,0.0,0.0,0.0,0.0,0.0,0.0,0.0,0.0,0.0,0.0,0.0,0.0,0.0,0.0,0.0,0.0,0.0,0.0,0.0,0.0,0.0,0.0,0.0,-3.261,-3.3375,0.0,0.0,0.0,0.0,0.0,0.0,0.0,0.0,0.0,0.0,0.0,0.0,0.0,-3.6924,-3.6924,-3.6924,-3.6924,-3.6924,-3.6248,-3.5926,-3.5926,-3.5926,-3.5876,-3.5729,-3.5255,0.0,-3.5828,-3.5321,0.0,0.0,0.0,0.0,0.0,0.0,0.0,0.0,0.0,0.0,0.0,0.0,0.0,0.0,0.0,0.0,0.0,0.0,0.0,0.0,0.0,0.0,-2.6714,-2.6782,-2.6714,-2.6714,-2.6782,-2.8051,-2.9039,-2.8572,-2.9078,-2.9624,0.0,0.0,0.0,0.0,0.0,0.0,-2.8682,-2.746,-2.6669,-2.6669,-2.6054,-2.5673,-2.5563,-2.4951,-2.4567,-2.4452,-2.3767,-2.3365,-2.3245,-2.3321,0.0,0.0,0.0,0.0,0.0,0.0,0.0,0.0,0.0,0.0,0.0,0.0,0.0,0.0,0.0,0.0,0.0,0.0,0.0,0.0,0.0,0.0,0.0,0.0,0.0,0.0,0.0,0.0,0.0,-3.2833,-3.3836,-3.4137,-3.4736,-3.5253,0.0,0.0,0.0,0.0,0.0,0.0,0.0,0.0,0.0,-3.5622,-3.5943,-3.6129,-3.6129,-3.6129,-3.6129,-3.6129,-3.5774,-3.5622,-3.5622,-3.5622,-3.5407,-3.4988,-3.4333,-3.4014,-3.3958,-3.4062,-3.3614,-3.2917,0.0,0.0,0.0,0.0,-3.1482,-3.1409,-3.0584,-2.995,-2.9504,-2.9129,0.0,0.0,0.0,0.0,0.0,0.0,0.0,-2.6905,-2.6589,-2.6533,-2.6533,-2.6533,-2.6533,-2.6533,-2.6533,-2.7095,-2.7657,-2.7911,-2.8616,-2.9294,-2.9837,-2.9777,0.0,0.0,0.0,-2.7982,-2.7353,-2.6451,-2.5892,-2.5892,-2.5563,-2.5231,-2.4851,-2.4509,-2.4118,-2.3649,-2.3305,-2.3078,-2.3078,-2.3078,-2.3078,0.0,0.0,0.0,0.0,0.0,0.0,0.0,0.0,0.0,0.0,0.0,0.0,0.0,0.0,0.0,0.0,0.0,0.0,0.0,0.0,0.0,0.0,0.0,0.0,0.0,0.0,0.0,0.0,-3.3582,-3.4431,-3.4576,-3.5207,-3.5622,0.0,0.0,0.0,0.0,0.0,0.0,-3.5622,-3.5739,-3.5739,-3.5622,-3.5622,-3.5622,-3.5622,-3.5622,-3.5622,-3.5622,-3.5622,-3.5622,-3.5577,-3.5407,-3.5052,-3.4528,-3.3684,-3.3039,-3.2641,-3.2933,-3.2461,-3.1524,-3.212,-3.1951,-3.1482,-3.1482,-3.1351,-3.1087,-3.0269,-2.938,-2.862,-2.8427,-2.792,-2.7417,-2.7417,0.0,0.0,0.0,0.0,-2.6533,-2.6533,-2.6533,-2.6533,-2.6533,-2.6533,-2.6533,-2.6533,-2.6533,-2.6607,-2.7089,-2.7824,-2.8628,-2.9327,-2.9018,0.0,-2.8961,-2.8078,-2.7092,-2.6277,-2.5682,-2.5297,-2.5133,-2.4951,-2.461,-2.406,-2.4002,-2.3721,-2.3138,-2.3078,-2.3078,-2.3078,-2.3078,-2.3078,-2.3078,0.0,0.0,0.0,0.0,0.0,0.0,0.0,0.0,0.0,0.0,0.0,0.0,0.0,0.0,0.0,0.0,0.0,0.0,0.0,0.0,0.0,0.0,0.0,0.0,0.0,0.0,0.0,0.0,0.0,-3.4528,-3.5207,0.0,0.0,0.0,0.0,-3.5622,-3.6054,-3.6139,-3.5622,-3.6097,-3.6139,-3.5622,-3.5622,-3.5622,-3.5622,-3.5622,-3.5622,-3.5622,-3.5622,-3.5622,-3.5577,-3.4941,-3.4624,-3.4528,-3.3235,-3.2641,-3.2547,-3.191,-3.1582,-3.1524,-3.1524,-3.1524,-3.1482,-3.1482,-3.1029,-3.0269,-2.938,-2.8492,-2.767,-2.6837,-2.6589,-2.6589,-2.6589,-2.6521,0.0,0.0,-2.6533,-2.6533,-2.6533,-2.6533,-2.6533,-2.6533,-2.6533,-2.6533,-2.6533,-2.6533,-2.637,-2.5803,-2.6323,-2.6878,-2.7033,0.0,-2.8071,-2.8043,-2.8016,-2.7514,-2.6332,-2.5585,-2.4899,-2.4403,-2.3649,-2.3185,-2.3125,-2.3125,-2.3125,-2.3078,-2.3078,-2.3078,-2.3078,-2.3078,-2.3078,-2.3078,-2.3078,0.0,0.0,0.0,0.0,0.0,0.0,0.0,0.0,0.0,0.0,0.0,0.0,0.0,0.0,0.0,0.0,0.0,0.0,0.0,0.0,0.0,0.0,0.0,0.0,0.0,0.0,0.0,0.0,-3.5144,-3.5453,0.0,-3.5622,-3.5622,-3.5622,-3.5622,-3.5783,-3.5827,-3.5622,-3.5783,-3.5827,-3.5622,-3.5622,-3.5622,-3.5622,-3.5622,-3.5622,-3.5622,-3.5622,-3.5172,-3.4289,-3.4087,-3.3241,-3.1974,-3.1549,-3.1074,-3.0637,-3.0378,-3.0776,-3.1482,-3.1482,-3.1482,-3.1409,-3.0896,-3.0524,-3.0072,-2.8684,-2.7986,-2.7537,-2.6782,-2.6533,-2.6533,-2.6533,-2.6533,-2.6533,-2.6533,-2.6533,-2.6533,-2.6533,-2.6533,-2.6533,-2.6533,-2.6533,-2.6533,-2.6533,-2.6533,-2.6471,-2.6189,-2.6409,-2.6719,-2.7302,-2.717,-2.7236,-2.7744,-2.6735,-2.5816,-2.5338,-2.4407,-2.3761,-2.3556,-2.3245,-2.3078,-2.3078,-2.3078,-2.3078,-2.3078,-2.3078,-2.3078,-2.3078,-2.3078,-2.2884,-2.2322,-2.2322,-2.2199,0.0,0.0,0.0,0.0,0.0,0.0,0.0,0.0,0.0,0.0,0.0,0.0,0.0,0.0,0.0,0.0,0.0,0.0,0.0,0.0,0.0,0.0,0.0,0.0,0.0,-3.3777,-3.423,-3.5144,-3.503,-3.4878,-3.4878,-3.4878,-3.4878,-3.4878,-3.4878,-3.4878,-3.4878,-3.4878,-3.4878,-3.4878,-3.4878,-3.4878,-3.4878,-3.4878,-3.4878,-3.4878,-3.4667,-3.4068,-3.3189,-3.28,-3.1869,-3.0561,-3.0387,-3.0,-2.9579,-2.9579,-3.0103,-3.081,-3.0552,-3.0423,-3.0365,-2.9561,-2.9128,-2.8703,-2.7207,-2.6713,-2.666,-2.6101,-2.5912,-2.5912,-2.5912,-2.5912,-2.5912,-2.5912,-2.5912,-2.5912,-2.5912,-2.5912,-2.5912,-2.5912,-2.5912,-2.5912,-2.5912,-2.5912,-2.5912,-2.5912,-2.6214,-2.6658,-2.7229,-2.685,-2.6658,-2.7229,-2.6047,-2.5021,-2.4845,-2.4004,-2.3351,-2.309,-2.3078,-2.3078,-2.3078,-2.3078,-2.3005,-2.2689,-2.2702,-2.2567,-2.2249,-2.2567,-2.2322,-2.1491,-2.1164,-2.1175,-2.1491,0.0,0.0,0.0,0.0,0.0,0.0,0.0,0.0,0.0,0.0,0.0,0.0,0.0,0.0,0.0,0.0,0.0,0.0,0.0,0.0,0.0,0.0,0.0,-3.3216,-3.2908,-3.2967,-3.4263,-3.3829,-3.3406,-3.3406,-3.3406,-3.3406,-3.3406,-3.3406,-3.3406,-3.3406,-3.3406,-3.3406,-3.3406,-3.3406,-3.3406,-3.3406,-3.3406,-3.3406,-3.3364,-3.2779,-3.2479,-3.2373,-3.1114,-3.0581,-3.0448,-2.9796,-2.952,-2.952,-2.952,-2.952,-2.9396,-2.8691,-2.8396,-2.8339,-2.7563,-2.6761,-2.5959,-2.5116,-2.482,-2.482,-2.482,-2.482,-2.482,-2.482,-2.482,-2.482,-2.482,-2.482,-2.482,-2.482,-2.482,-2.482,-2.482,-2.482,-2.482,-2.482,-2.482,-2.482,-2.482,-2.5686,-2.6483,-2.6483,-2.6483,-2.6483,-2.6483,-2.5912,0.0,-2.4858,-2.4305,-2.3753,-2.3128,-2.3078,-2.3078,-2.3078,-2.3078,-2.2702,-2.1877,-2.1877,-2.1491,-2.0655,-2.1428,-2.1428,-2.059,-1.9748,-1.9694,-2.0549,0.0,0.0,0.0,0.0,0.0,0.0,0.0,0.0,0.0,0.0,0.0,0.0,0.0,0.0,0.0,0.0,0.0,0.0,0.0,0.0,0.0,-2.9174,-3.0243,-3.1295,-3.1607,-3.211,-3.2928,-3.3252,-3.3406,-3.3406,-3.3406,-3.3406,-3.3406,-3.3406,-3.3406,-3.3406,-3.3406,-3.3406,-3.3406,-3.3406,-3.3406,-3.3406,-3.3406,-3.3177,-3.2735,-3.2602,-3.1746,-3.0402,-3.0014,-2.9319,-2.8389,-2.8216,-2.8128,-2.8128,-2.8128,-2.7854,-2.7399,-2.812,-2.8396,-2.8225,-2.6941,-2.5883,-2.5116,-2.4885,-2.482,-2.482,-2.482,-2.482,-2.482,-2.482,-2.482,-2.482,-2.482,-2.482,-2.482,-2.482,-2.482,-2.482,-2.482,-2.482,-2.482,-2.482,-2.482,-2.482,-2.482,-2.5059,-2.5272,-2.5272,-2.5272,-2.5272,-2.5272,-2.4795,-2.4381,-2.4243,-2.3728,-2.3314,-2.309,-2.3078,-2.2884,-2.2261,-2.2261,-2.1877,-2.1037,-2.0974,-2.0846,-2.059,-2.0846,-2.0526,-1.9683,-1.9431,-1.9589,0.0,0.0,0.0,0.0,0.0,0.0,0.0,0.0,0.0,0.0,0.0,0.0,0.0,0.0,0.0,0.0,0.0,0.0,0.0,0.0,0.0,0.0,-2.8054,-2.8866,-2.9266,-3.0105,-3.0991,-3.1945,-3.2064,-3.2194,-3.2435,-3.2476,-3.2476,-3.2476,-3.2476,-3.2476,-3.2476,-3.2476,-3.2476,-3.2476,-3.2476,-3.2476,-3.2476,-3.2476,-3.2194,-3.1605,-3.1324,-3.0491,-2.9133,-2.8904,-2.8358,-2.7625,-2.7625,-2.7408,-2.7137,-2.7137,-2.6707,-2.6125,0.0,0.0,0.0,0.0,-2.4515,-2.4117,-2.4117,-2.4117,-2.4117,-2.4117,-2.4117,-2.4117,-2.4117,-2.4117,-2.4117,-2.4117,-2.4117,-2.4117,-2.4117,-2.4117,-2.4117,-2.4117,-2.4117,-2.4117,-2.4117,-2.4117,-2.3991,-2.3663,-2.3599,0.0,-2.3115,-2.4033,-2.482,-2.482,-2.4013,-2.3464,-2.3464,-2.265,-2.2051,-2.2051,-2.2051,-2.1865,-2.1428,-2.1365,0.0,0.0,0.0,-2.0074,-2.0074,-1.9683,0.0,0.0,0.0,-1.8934,-1.9371,-1.9829,0.0,0.0,-2.2377,-2.3857,0.0,0.0,0.0,0.0,0.0,0.0,0.0,0.0,0.0,0.0,0.0,0.0,0.0,0.0,0.0,0.0,-2.675,-2.7306,-2.7446,-2.8445,-2.9623,-3.0908,-3.0645,-3.0518,-3.1055,-3.1151,-3.119,-3.119,-3.119,-3.119,-3.119,-3.119,0.0,0.0,0.0,-3.1112,-3.1112,-3.1015,-3.0699,-3.0081,-2.954,-2.8996,-2.8367,-2.7845,-2.7625,-2.7625,-2.7625,-2.7203,-2.651,-2.651,-2.6014,-2.5287,-2.5287,-2.4838,-2.406,-2.3365,-2.3078,-2.3078,-2.3078,0.0,0.0,-2.3078,-2.3078,-2.3078,-2.3078,-2.3017,-2.3005,-2.3078,-2.2944,-2.2823,-2.2944,-2.2884,-2.2811,-2.2811,-2.2811,-2.2811,-2.2811,-2.2811,-2.2628,-2.1877,-2.1753,-2.1491,-2.0719,-2.265,-2.4362,-2.4362,-2.3276,-2.2438,-2.2438,-2.1388,-2.059,-2.059,-2.059,0.0,-2.0462,-2.0462,-2.0074,-1.9233,-1.9177,-1.9177,-1.9177,-1.8395,-1.8327,-1.911,-1.8395,-1.8242,-1.8711,-1.9102,-1.9438,-1.98,-2.0335,-2.1543,0.0,0.0,0.0,0.0,0.0,0.0,0.0,0.0,0.0,0.0,0.0,0.0,0.0,0.0,0.0,-2.5309,-2.5611,-2.6032,-2.663,-2.6913,-2.7578,-2.892,-2.9798,-3.0351,-3.0477,-3.0918,-3.119,-3.119,-3.119,-3.119,-3.119,-3.119,-3.119,-3.119,-3.074,-3.0477,-3.0477,-2.9995,-2.9451,-2.8826,-2.8732,0.0,-2.776,-2.766,-2.7625,-2.7625,-2.7625,-2.7203,-2.651,-2.651,-2.5728,-2.4509,-2.4509,-2.406,-2.3305,-2.3138,-2.3078,-2.3078,-2.3078,-2.3078,-2.3078,-2.3078,-2.3078,-2.3078,-2.3078,-2.2641,0.0,-2.2944,-2.2113,-2.1227,-2.1939,-2.1616,-2.1101,-2.1101,-2.1101,-2.1101,-2.1101,-2.1101,-2.1037,-2.091,-2.0846,-2.0782,-2.0655,-2.1069,-2.1399,-2.1399,-2.1179,-2.0994,-2.0994,-2.0775,-2.059,-2.059,-2.059,-2.0333,-1.9617,-1.9562,-1.9177,-1.8337,-1.8269,-1.8269,-1.8269,-1.8076,-1.8076,-1.8269,-1.8076,-1.8389,-1.916,-1.9248,-1.9678,-2.043,-2.0546,-2.0771,0.0,0.0,0.0,0.0,0.0,0.0,0.0,0.0,0.0,0.0,0.0,-2.2805,-2.309,0.0,-2.4602,-2.4708,-2.4753,-2.5231,-2.6336,-2.651,-2.7004,-2.8367,-2.9042,-2.9629,-3.0251,-3.0559,-3.0878,-3.119,-3.119,-3.119,-3.119,-3.119,-3.119,-3.119,-3.0617,-3.0293,-3.0293,-2.9717,-2.9104,-2.8511,-2.8511,-2.8189,-2.7625,-2.7625,-2.7625,-2.7575,-2.7203,-2.6602,-2.5892,-2.5106,-2.4381,-2.3708,-2.3708,-2.3424,-2.3078,-2.3078,-2.3078,-2.3078,-2.3078,-2.2823,-2.2506,-2.2506,-2.2187,-2.1865,-2.1865,-2.1553,-2.1365,-2.1741,-2.1227,-2.0719,-2.1175,-2.091,-2.059,-2.059,-2.059,-2.059,-2.059,-2.059,-2.0462,-2.0009,-1.9944,-1.9824,-1.9365,-1.9299,-1.9562,-2.0462,-2.0204,-1.9944,-1.9944,-1.9562,-1.9299,-1.9299,-1.9299,-1.911,-1.8721,-1.8654,-1.8462,-1.8008,-1.8008,-1.8008,-1.8008,-1.8008,-1.8008,-1.8008,-1.8008,-1.833,-1.9076,-1.9088,-1.9619,-2.0562,-2.0566,-2.0603,0.0,0.0,0.0,0.0,0.0,0.0,0.0,0.0,-1.767,-1.9545,-2.0647,-2.134,-2.192,-2.2902,-2.3665,-2.3832,-2.393,-2.4567,-2.5892,-2.6176,-2.6745,-2.7963,-2.8367,-2.8873,-2.9848,-3.0081,-3.0351,-3.0797,-3.0838,-3.0878,-3.1015,-3.0918,-3.0878,-3.1015,-3.0351,-2.9951,-2.9951,-2.9361,-2.8826,-2.8334,-2.8334,-2.8091,-2.7575,-2.7458,-2.7408,-2.7357,-2.6443,-2.5728,-2.5063,-2.3708,-2.3078,-2.3078,-2.3078,-2.3078,-2.3078,-2.3078,-2.3078,-2.3078,-2.2944,-2.2445,-2.1877,-2.169,-2.1164,-2.059,-2.059,-2.0462,-2.0398,-2.0526,-2.0333,-2.0139,-2.0268,-2.0204,-2.0074,-2.0074,-2.0074,-2.0074,-2.0074,-2.0074,-1.9879,-1.9177,-1.9044,-1.8854,-1.8144,-1.8008,-1.8462,-1.9879,-1.9497,-1.9044,-1.9044,-1.8462,-1.8008,-1.8008,-1.8008,-1.8008,-1.8008,-1.8008,-1.8008,-1.8008,-1.8008,-1.8008,-1.8008,-1.8008,-1.8008,-1.8008,-1.8008,-1.8301,-1.8842,-1.8893,-1.9517,-2.0627,-2.0582,-2.0615,-0.2486,-0.466,-0.6608,-0.6842,-0.8846,-1.1154,0.0,0.0,-1.4704,-1.6693,-1.7764,-1.8607,-1.9494,-2.1001,-2.2135,-2.2125,-2.275,-2.3531,-2.4394,-2.5119,-2.5837,-2.6654,-2.7765,-2.8559,-2.8701,-2.918,-2.954,-2.9585,-2.9585,-2.9848,-3.0393,-2.9892,-2.9848,-3.0393,-2.9316,-2.8685,-2.8685,-2.8076,-2.776,-2.771,-2.771,-2.7675,-2.7575,-2.693,-2.6616,-2.6563,-2.5119,-2.4509,-2.4337,-2.3484,-2.3078,-2.3078,-2.3078,-2.3078,-2.3078,-2.3078,-2.3078,-2.3017,-2.2249,-2.2002,-2.1753,-2.0985,-2.0655,-2.059,-2.059,-2.0074,-1.9628,-2.0398,-1.9497,-1.8462,-1.9233,-1.8854,-1.8269,-1.8269,-1.8269,-1.8269,-1.8269,-1.8269,-1.8269,-1.8134,-1.8144,-1.8144,-1.8008,-1.8008,-1.8076,-1.8269,-1.8202,-1.8144,-1.8144,-1.8076,-1.8008,-1.8008,-1.8008,-1.8008,-1.8008,-1.8008,-1.8008,-1.8008,-1.8008,-1.8008,-1.8008,-1.8008,-1.8008,-1.8008,-1.8008,-1.8223,-1.8643,-1.8791,-1.9508,-2.0617,-2.0581,-2.0633,-0.0078,-0.171,-0.2952,-0.4124,-0.6203,-0.8339,-0.9654,-1.1458,-1.3179,-1.4585,-1.6468,-1.7996,-1.8429,-1.9966,-2.1302,-2.1815,-2.2199,-2.2859,-2.4105,-2.4567,-2.5175,-2.6336,-2.7004,-2.7665,-2.8415,-2.8732,-2.9012,-2.9361,-2.9406,-2.9496,-2.9761,-2.954,-2.954,-2.9761,-2.8966,-2.8511,-2.8511,-2.791,-2.7625,-2.7625,-2.7625,-2.7357,-2.693,-2.6616,-2.6014,-2.5175,-2.4567,-2.406,-2.3603,-2.3245,-2.3078,-2.3065,-2.2567,-2.2384,-2.2445,-2.2944,-2.3078,-2.3005,-2.2199,-2.1553,-2.0974,-2.0139,-1.9497,-1.911,-1.911,-1.8844,-1.8586,-1.8977,-1.8596,-1.8076,-1.8462,-1.8269,-1.8008,-1.8008,-1.8008,-1.8008,-1.8008,-1.8008,-1.8008,-1.8008,-1.8008,-1.8008,-1.8008,-1.8008,-1.8008,-1.8008,-1.8008,-1.8008,-1.8008,-1.8008,-1.8008,-1.8008,-1.8008,-1.8008,-1.8008,-1.8008,-1.8008,-1.8008,-1.8008,-1.8008,-1.8008,-1.7501,-1.7432,-1.8008,-1.7432,-1.7517,-1.8271,-1.8337,-1.8624,-1.9126,-2.0158,-2.0609,0.2639,0.132,0.0388,-0.1714,-0.3805,-0.58,-0.7391,-0.951,-1.1544,-1.2919,-1.4898,-1.6587,-1.7387,-1.8818,-2.0235,-2.1353,-2.1753,-2.2359,-2.3754,-2.4337,-2.5007,-2.6068,-2.6563,-2.7174,-2.8174,-2.8238,-2.8415,-2.8857,-2.8904,-2.8996,-2.9134,-2.8996,-2.8996,-2.915,-2.8559,-2.8238,-2.8238,-2.781,-2.7625,-2.7625,-2.7408,-2.7049,-2.651,-2.6068,-2.5175,-2.3943,-2.3943,-2.3662,-2.3078,-2.3078,-2.2944,-2.2689,-2.2137,-2.1753,-2.1616,-2.2187,-2.2433,-2.231,-2.1491,-2.0782,-2.0074,-1.9233,-1.8529,-1.8008,-1.8008,-1.8008,-1.8008,-1.8008,-1.8008,-1.8008,-1.8008,-1.8008,-1.8008,-1.8008,-1.8008,-1.8008,-1.8008,-1.8008,-1.8008,-1.8008,-1.8008,-1.8008,-1.8008,-1.8008,-1.8008,-1.8008,-1.8008,-1.8008,-1.8008,-1.8008,-1.8008,-1.8008,-1.8008,-1.8008,-1.8008,-1.8008,-1.8008,-1.8008,-1.8008,-1.7862,-1.7647,-1.6922,-1.6784,-1.7226,-1.6576,-1.6576,-1.7226,-1.7783,-1.7996,-1.8015,-1.8211,-1.8282,0.6528,0.457,0.2473,0.0389,-0.1627,-0.3707,-0.5889,-0.7431,-0.917,-1.1704,-1.2298,-1.323,-1.6123,-1.7415,-1.8542,-2.0375,-2.1365,-2.2187,-2.3005,-2.4439,-2.5398,-2.5453,-2.6707,-2.7575,-2.7625,-2.7625,-2.761,-2.766,-2.766,-2.7894,-2.8511,-2.7944,-2.7894,-2.8511,-2.7944,-2.7625,-2.7625,-2.7625,-2.7625,-2.7575,-2.6878,-2.651,-2.6457,-2.5007,-2.3943,-2.3138,-2.3138,-2.3138,-2.3078,-2.3078,-2.2628,-2.1939,-2.1877,-2.1365,-2.0655,-2.0655,-2.0655,-2.0526,-1.9694,-1.9365,-1.9177,-1.8337,-1.8008,-1.8008,-1.8008,-1.8008,-1.8008,-1.8008,-1.8008,-1.8008,-1.8008,-1.8008,-1.8008,-1.8008,-1.8008,-1.8008,-1.8008,-1.8008,-1.8008,-1.8008,-1.8008,-1.8008,-1.8008,-1.8008,-1.8008,-1.8008,-1.8008,-1.8008,-1.8008,-1.8008,-1.8008,-1.8008,-1.8008,-1.8008,-1.8008,-1.8008,-1.8008,-1.8008,-1.8008,-1.7569,-1.6706,-1.6636,-1.6219,-1.5305,-1.5234,-1.5234,-1.5305,-1.7097,-1.8028,-1.7944,-1.4263,-1.2553,0.915,0.7778,0.6179,0.4578,0.2935,0.1001,-0.155,-0.3866,-0.6013,-0.7934,-1.0433,-1.2538,-1.3534,-1.552,-1.761,-1.938,-2.0406,-2.1553,-2.2884,-2.3989,-2.4851,-2.5342,-2.6283,-2.7034,-2.756,-2.7625,-2.7625,-2.7625,-2.7625,-2.766,-2.7894,-2.771,-2.766,-2.791,-2.771,-2.7625,-2.7625,-2.7625,-2.7625,-2.7575,-2.6375,-2.5508,-2.5007,-2.3989,-2.3365,-2.3078,-2.3078,-2.3078,-2.3078,-2.3078,-2.2641,-2.1815,-2.1239,-2.0526,-1.9694,-1.911,-1.8844,-1.8921,-1.9177,-1.9299,-1.9177,-1.8269,-1.8008,-1.8008,-1.8008,-1.8008,-1.8008,-1.8008,-1.8008,-1.8008,-1.8008,-1.8008,-1.8008,-1.8008,-1.8008,-1.8008,-1.8008,-1.8008,-1.8008,-1.8008,-1.8008,-1.7794,-1.7207,-1.707,-1.6853,-1.6228,-1.7226,-1.8008,-1.8008,-1.7432,-1.707,-1.707,-1.6507,-1.6158,-1.6158,-1.6158,-1.6158,-1.6158,-1.6158,-1.6009,-1.5649,-1.5013,-1.4807,-1.5163,-1.4522,-1.4522,-1.5234,-1.6209,-1.6527,-1.6161,-1.608,-1.4735,1.1719,1.0849,0.9814,0.8103,0.6692,0.4909,0.2088,0.0077,-0.1999,-0.4947,-0.7983,-1.0547,-1.1937,-1.4339,-1.6669,-1.8435,-1.9803,-2.1101,-2.2506,-2.3859,-2.4851,-2.5342,-2.6467,-2.7429,-2.7894,-2.8125,-2.8076,-2.761,-2.781,-2.781,-2.761,-2.7625,-2.7625,-2.7625,-2.7625,-2.7625,-2.7625,-2.7625,-2.7357,-2.6811,-2.5605,-2.4624,-2.3826,-2.3365,-2.3078,-2.3078,-2.3078,-2.3078,-2.3078,-2.2823,-2.2187,-2.1365,-2.0462,-1.9628,-1.8787,-1.8202,-1.8008,-1.8076,-1.8664,-1.8854,-1.8721,-1.8202,-1.8008,-1.8008,-1.8008,-1.8008,-1.8008,-1.8008,-1.8008,-1.8008,-1.8008,-1.8008,-1.8008,-1.8008,-1.8008,-1.8008,-1.8008,-1.7725,-1.7579,-1.794,-1.7442,-1.6932,-1.6636,-1.6349,-1.586,-1.5305,-1.6228,-1.701,-1.701,-1.6507,-1.607,-1.607,-1.5587,-1.5234,-1.5234,-1.5234,-1.5234,-1.5234,-1.5234,-1.5021,-1.4665,-1.4027,-1.3818,-1.4163,-1.352,-1.3528,-1.4163,-1.4585,-1.4568,-1.4179,-1.5405,-1.463,1.4261,1.3697,1.3187,1.0997,0.9522,0.7825,0.507,0.4392,0.2766,-0.2539,-0.4912,-0.7254,0.0,0.0,-1.5764,-1.7581,-1.9422,-2.091,-2.1815,-2.3936,-2.5398,0.0,0.0,0.0,0.0,-2.9057,-2.8903,-2.77,-2.8158,-2.8222,-2.7565,-2.7565,-2.75,-2.752,-2.752,-2.752,-2.752,-2.747,-2.6709,-2.5315,-2.4587,-2.3794,-2.299,-2.299,-2.299,-2.299,-2.299,-2.293,-2.2857,-2.2053,-2.1221,-2.0384,-1.9585,-1.8747,-1.7978,-1.8008,-1.8008,-1.8008,-1.8008,-1.8008,-1.8008,-1.8008,-1.8008,-1.8008,-1.8008,-1.8008,-1.8008,-1.8008,-1.8008,-1.8008,-1.8008,-1.8008,-1.8008,-1.794,-1.794,-1.794,-1.7872,-1.7148,-1.6784,-1.7647,-1.6367,-1.5438,-1.628,-1.5649,-1.5021,-1.5021,-1.5021,-1.5092,-1.5163,-1.5163,-1.5092,-1.5092,-1.5092,-1.5021,-1.5021,-1.5021,-1.5021,-1.5021,-1.5021,-1.4593,-1.3673,-1.36,-1.3237,-1.2298,-1.2305,-1.2305,-1.2305,-1.2305,-1.2305,-1.2305,-1.2305,-1.2305,1.5965,1.5334,1.4474,1.3122,1.2501,1.1661,0.9244,0.7939,0.6245,0.2761,-0.0763,-0.4107,-0.7175,-1.1144,-1.4828,-1.734,-1.9369,0.0,-2.2567,-2.431,0.0,-2.5398,0.0,-2.8511,-2.8511,-2.897,-2.8951,-2.8162,-2.8358,-2.8023,-2.6905,-2.6841,-2.6617,-2.6123,-2.6108,-2.6108,-2.6108,-2.5678,-2.497,-2.4058,-2.3353,-2.2656,-2.1907,-2.1907,-2.1609,-2.1064,-2.1064,-2.0771,-2.0226,-2.0047,-1.9443,-1.8676,-1.8776,-1.8287,-1.7578,-1.79,-1.8008,-1.8008,-1.8008,-1.8008,-1.8008,-1.8008,-1.8008,-1.8008,-1.8008,-1.8008,-1.8008,-1.8008,-1.8008,-1.8008,-1.8008,-1.8008,-1.7794,-1.7139,-1.6922,-1.6784,-1.6079,-1.5728,-1.5658,-1.5877,-1.495,-1.4171,-1.4378,-1.3665,-1.3018,-1.3018,-1.3018,-1.3593,-1.5021,-1.453,-1.4099,-1.4099,-1.3448,-1.3018,-1.3018,-1.3018,-1.3018,-1.3018,-1.3018,-1.2945,-1.2659,-1.2666,-1.2519,-1.2305,-1.2305,-1.2305,-1.2305,-1.2305,-1.2305,-1.2305,-1.2305,-1.2305,1.7345,1.6862,1.6219,1.5168,1.4939,1.4284,1.1678,1.0222,0.8786,0.6816,0.1992,-0.2749,-0.5695,-1.0262,-1.423,0.0,0.0,0.0,-2.2822,-2.4412,-2.5605,0.0,-2.7531,0.0,-2.8764,-2.8993,-2.8864,-2.8281,-2.8254,-2.7879,-2.6933,-2.6642,-2.6335,-2.5971,-2.574,-2.5615,-2.5615,-2.4936,-2.4284,-2.3602,-2.2844,-2.2159,-2.1493,-2.1493,-2.1244,-2.0893,-2.0893,-2.0481,-1.9773,-1.9361,-1.8704,-1.7955,-1.7842,-1.752,-1.7129,-1.7363,-1.7451,-1.7451,-1.7451,-1.7451,-1.748,-1.7676,-1.7734,-1.7705,-1.751,-1.7167,-1.6883,-1.6883,-1.6683,-1.6407,-1.6407,-1.6468,-1.6392,-1.5894,-1.5878,-1.586,-1.5305,-1.4879,-1.445,-1.4019,-1.381,-1.36,-1.3164,-1.2666,-1.2305,-1.2305,-1.2305,-1.2659,-1.3803,-1.3448,-1.3098,-1.3098,-1.2592,-1.2305,-1.2305,-1.2305,-1.2305,-1.2305,-1.2305,-1.2305,-1.2305,-1.2305,-1.2305,-1.2305,-1.2305,-1.2305,-1.2305,-1.2305,-1.2305,-1.2305,-1.2305,-1.2305,1.8337,1.8076,1.7862,1.712,1.6766,1.5834,1.3013,1.1617,1.0542,0.9407,0.3699,-0.2072,-0.5419,-1.0063,-1.3803,-1.5072,0.0,-2.1307,-2.294,-2.4533,-2.5923,-2.7125,-2.7919,-2.8556,-2.9065,-2.9046,-2.8735,-2.818,-2.8058,-2.7715,-2.7083,-2.6632,-2.6295,-2.6143,-2.5591,-2.533,-2.533,-2.4626,-2.3929,-2.3354,-2.2564,-2.1885,-2.1255,-2.1255,-2.1199,-2.1144,-2.1033,-2.056,-1.9807,-1.8969,-1.8207,-1.7573,-1.6924,-1.6641,-1.665,-1.6709,-1.6665,-1.6665,-1.6665,-1.6602,-1.666,-1.7168,-1.7295,-1.7227,-1.6846,-1.6192,-1.5652,-1.5514,-1.4997,-1.441,-1.4345,-1.448,-1.4687,-1.455,-1.4759,-1.495,-1.4807,-1.4099,-1.3237,-1.2445,-1.2952,-1.3237,-1.2445,-1.2305,-1.2305,-1.2305,-1.2305,-1.2305,-1.2305,-1.2305,-1.2305,-1.2305,-1.2305,-1.2305,-1.2305,-1.2305,-1.2305,-1.2305,-1.2305,-1.2305,-1.2305,-1.2305,-1.2305,-1.2305,-1.2305,-1.2305,-1.2305,-1.2305,-1.2305,-1.2305,-1.2305,-1.2305,1.8911,1.8529,1.8134,1.87,1.7726,1.6044,1.3848,1.2635,0.0,0.0,0.4471,-0.0153,-0.3823,-0.8788,-1.3465,-1.6674,-1.9652,-2.2116,-2.3833,-2.5289,-2.6243,0.0,-2.771,-2.859,-2.8682,-2.8902,-2.8812,-2.8356,-2.7772,-2.7128,-2.6414,-2.63,-2.5768,-2.4761,-2.4228,-2.3954,-2.3954,-2.3345,-2.2672,-2.2028,-2.1372,-2.0745,-2.01,-2.01,-1.976,-1.915,-1.8553,-1.7835,-1.7123,-1.6376,-1.5978,-1.5841,-1.6096,-1.6182,-1.6221,-1.6592,-1.6665,-1.6665,-1.6665,-1.6256,-1.5799,-1.6552,-1.6846,-1.6836,-1.6694,-1.6602,-1.6329,-1.5716,-1.5386,-1.5127,-1.4476,-1.448,-1.4481,-1.3739,-1.379,-1.3738,-1.2945,-1.2659,-1.2519,-1.2305,-1.2445,-1.2519,-1.2305,-1.2305,-1.2305,-1.2305,-1.2305,-1.2305,-1.2305,-1.2305,-1.2305,-1.2305,-1.2305,-1.2305,-1.2305,-1.2305,-1.2305,-1.2305,-1.2305,-1.2305,-1.2305,-1.2305,-1.2305,-1.2305,-1.2305,-1.2305,-1.2305,-1.2305,-1.2305,-1.2305,-1.2305,-1.2305,1.8529,1.8337,1.8076,1.8529,1.7619,1.6062,1.4063,0.0,0.0,0.0,0.2691,-0.176,-0.6432,-1.0736,0.0,-1.6826,-2.0048,-2.2725,-2.4108,-2.5526,-2.6712,-2.7397,-2.8092,-2.8605,-2.8931,-2.8741,-2.8503,-2.8304,-2.7865,-2.7299,-2.6491,-2.6211,-2.5573,-2.4446,-2.4158,-2.3879,-2.3595,-2.3334,-2.2665,-2.1697,-2.139,-2.0769,-1.9798,-1.9798,-1.9592,-1.9254,-1.8886,-1.8124,-1.7034,-1.6698,-1.6083,-1.543,-1.5644,-1.5723,-1.5752,-1.5967,-1.6045,-1.6045,-1.6045,-1.5783,-1.5458,-1.5416,-1.5247,-1.5061,-1.4853,-1.4471,-1.4079,-1.3693,-1.3259,-1.2877,-1.2444,-1.2683,-1.2853,-1.2455,-1.2678,-1.2879,-1.2372,-1.2305,-1.2305,-1.2305,-1.2305,-1.2305,-1.2305,-1.2305,-1.2305,-1.2305,-1.2305,-1.2305,-1.2305,-1.2305,-1.2305,-1.2305,-1.2305,-1.2305,-1.2305,-1.2305,-1.2305,-1.2305,-1.2305,-1.2305,-1.2305,-1.2305,-1.2305,-1.2305,-1.1774,-1.1768,-1.2305,-1.2271,-1.2297,-1.2297,-1.2297,-1.2297,1.7842,1.7842,1.7716,1.792,1.7148,1.572,1.3489,1.2352,0.0,0.4072,-0.0153,-0.4405,-1.0159,-1.3346,-1.5615,0.0,-2.0725,-2.3582,-2.474,-2.6088,-2.7394,-2.8492,-2.8596,0.0,-2.9199,-2.8798,-2.847,-2.8323,-2.8058,-2.7607,-2.6873,-2.628,-2.5615,-2.4776,-2.4511,-2.4199,-2.3752,-2.3681,-2.298,-2.1697,-2.1697,-2.1037,-1.9798,-1.9798,-1.9798,-1.9798,-1.9475,-1.8661,-1.7578,-1.7246,-1.6472,-1.541,-1.541,-1.541,-1.541,-1.541,-1.5294,-1.5108,-1.5108,-1.4923,-1.4501,-1.3897,-1.3743,-1.3622,-1.3152,-1.2573,-1.202,-1.1834,-1.1351,-1.0807,-1.0624,-1.0949,-1.1363,-1.149,-1.1917,-1.2305,-1.2305,-1.2305,-1.2305,-1.2305,-1.2305,-1.2305,-1.2305,-1.2305,-1.2305,-1.2305,-1.215,-1.1996,-1.1996,-1.1774,-1.1626,-1.1626,-1.2077,-1.2305,-1.2305,-1.2077,-1.1996,-1.1996,-1.1774,-1.1626,-1.1626,-1.1626,-1.1626,-1.1626,-1.087,-1.0944,-1.1868,-1.2188,-1.2315,-1.2315,-1.1396,-1.0986,1.7464,1.7357,1.6913,1.7707,1.6609,1.4561,1.1598,0.0,0.8201,0.023,-0.3231,-0.6764,-1.3194,-1.5125,-1.6708,-1.966,0.0,-2.5002,-2.6518,-2.7622,-2.8381,-2.8744,0.0,0.0,-2.9126,-2.9401,-2.9324,-2.8796,-2.821,-2.7707,-2.7272,-2.6437,-2.5961,-2.5852,-2.491,-2.4389,-2.4307,-2.3837,-2.298,-2.1697,-2.1697,-2.1037,-1.9798,-1.9798,-1.9798,-1.9747,-1.8382,-1.7743,-1.7523,-1.613,-1.5526,-1.541,-1.541,-1.541,-1.541,-1.541,-1.4932,-1.4323,-1.4323,-1.3347,-1.2135,-1.2012,-1.2948,-1.401,-1.326,-1.2948,-1.2757,-1.202,-1.1772,-1.1531,-1.0807,-1.0795,-1.1169,-1.1703,-1.2071,-1.2305,-1.2305,-1.2305,-1.2305,-1.2305,-1.2305,-1.2305,-1.2305,-1.2305,-1.2305,-1.2305,-1.1539,-1.0932,-1.0932,-1.0121,-0.9599,-0.9599,-1.1174,-1.2305,-1.2305,-1.1465,-1.0932,-1.0932,-1.0045,-0.9599,-0.9599,-0.9599,-0.9599,-0.9599,-0.9523,-0.9771,-1.05,-1.1677,-1.2277,-1.2188,-0.8557,-0.6814,1.6582,1.6835,1.6655,1.7033,1.5668,1.3316,0.969,0.0,0.4657,-0.2533,-0.7001,-1.0767,-1.4698,-1.7164,-1.93,-2.1438,0.0,0.0,-2.664,-2.7929,-2.8902,-2.9079,-2.9489,-2.9764,-2.9764,-2.9913,-2.9769,-2.9196,-2.8717,-2.8296,-2.7984,-2.722,-2.6539,-2.6013,-2.5577,-2.5051,-2.4389,-2.4199,-2.3492,-2.23,-2.1899,-2.1232,-2.0396,-2.0003,-1.9798,-1.9747,-1.8715,-1.8004,-1.7523,-1.6472,-1.5806,-1.541,-1.541,-1.541,-1.541,-1.541,-1.5167,-1.4864,-1.4392,-1.3777,-1.3114,-1.2135,-1.2258,-1.2626,-1.1779,-1.1545,-1.1483,-1.117,-1.1108,-1.0982,-1.0681,-1.0775,-1.1142,-1.173,-1.1957,-1.2091,-1.2265,-1.2305,-1.2305,-1.2305,-1.1842,-1.1391,-1.1391,-1.087,-1.0496,-1.0496,-1.0121,-0.9895,-0.9895,-0.9523,-0.9296,-0.9296,-1.0051,-1.0496,-1.0496,-1.0121,-0.9895,-0.9895,-0.9523,-0.9296,-0.9296,-0.9296,-0.9296,-0.9296,-0.8694,-0.8851,-0.9706,-0.9018,-0.8708,-0.8632,-0.703,-0.6318,1.4119,1.4806,1.4893,1.4877,1.3351,1.0906,0.0,0.0,0.051,-0.5315,-1.0628,-1.4769,-1.6627,-1.9292,-2.1735,0.0,0.0,-2.7195,-2.7362,-2.8556,-2.9481,-2.9646,-3.004,-3.0327,-3.0327,-3.0254,-3.0035,-2.9607,-2.9198,-2.8851,-2.8517,-2.7939,-2.7251,-2.6402,-2.6139,-2.5577,-2.4672,-2.4471,-2.3749,-2.2406,-2.1946,-2.128,-2.0497,-2.0003,-1.9798,-1.9747,-1.9044,-1.8274,-1.7523,-1.681,-1.6093,-1.541,-1.541,-1.541,-1.541,-1.541,-1.5108,-1.4628,-1.4025,-1.3545,-1.2931,-1.1834,-1.1469,-1.1351,-1.0744,-1.0624,-1.0624,-1.0624,-1.0624,-1.0624,-1.0624,-1.0775,-1.1096,-1.151,-1.1744,-1.1852,-1.1754,-1.179,-1.1774,-1.1477,-1.087,-1.034,-1.034,-0.9744,-0.9296,-0.9296,-0.9069,-0.8846,-0.8846,-0.8618,-0.8389,-0.8389,-0.8389,-0.8694,-0.9221,-0.8993,-0.8846,-0.8846,-0.8542,-0.8389,-0.8389,-0.8389,-0.8389,-0.8389,-0.7706,-0.7706,-0.8389,-0.6988,-0.629,-0.629,-0.629,-0.629,0.9644,1.0564,1.0793,1.0793,0.9183,0.697,0.4262,0.0217,-0.4141,-0.8203,-1.3907,-1.8433,-1.9449,-2.1401,-2.3542,-2.5547,-2.7063,0.0,-2.9325,-2.9884,-3.0254,0.0,-3.0547,-3.06,-3.06,-3.0366,-3.0126,-2.9994,-2.9607,-2.9233,-2.8815,-2.856,-2.8057,-2.7317,-2.6437,-2.5726,-2.5221,-2.4672,-2.349,-2.1697,-2.1697,-2.1037,-1.9798,-1.9798,-1.9798,-1.9747,-1.9044,-1.8274,-1.7523,-1.681,-1.6093,-1.541,-1.541,-1.541,-1.541,-1.541,-1.4392,-1.3009,-1.3009,-1.1973,-1.0618,-1.0624,-1.0624,-1.0624,-1.0624,-1.0624,-1.0624,-1.0624,-1.0624,-1.0624,-1.0624,-1.0775,-1.0995,-1.1002,-1.145,-1.165,-1.0629,-1.0607,-1.0484,-0.9523,-0.9296,-0.9296,-0.9296,-0.9296,-0.9296,-0.9296,-0.8466,-0.7783,-0.7783,-0.6949,-0.6338,-0.6338,-0.6338,-0.7099,-0.915,-0.8389,-0.7783,-0.7783,-0.6868,-0.6338,-0.6338,-0.6338,-0.6338,-0.6338,-0.6338,-0.6338,-0.6338,-0.6338,-0.6338,-0.6338,-0.6338,-0.6338,0.3393,0.4444,0.4815,0.4283,0.2736,0.0475,-0.3055,-0.5771,-0.8942,-1.363,-1.6427,-1.8885,-2.188,-2.3795,-2.5463,-2.7091,-2.8296,0.0,0.0,0.0,0.0,-3.0567,-3.0589,-3.0587,-3.054,-3.0462,-3.0282,-3.0028,-2.9877,-2.9623,-2.9235,-2.8874,-2.8252,-2.7317,-2.7034,-2.6318,-2.5221,-2.5012,-2.4277,-2.298,-2.2132,-2.1506,-2.1086,-2.0181,-1.9798,-1.9747,-1.8501,-1.7852,-1.7523,-1.6244,-1.5584,-1.541,-1.541,-1.541,-1.5352,-1.4805,-1.4273,-1.3666,-1.2565,-1.1834,-1.1351,-1.0807,-1.0624,-1.0624,-1.0624,-1.0624,-1.0624,-1.0624,-1.0174,-0.9722,-0.9722,-0.9321,-0.9029,-0.9192,-0.9355,-0.9488,-0.9542,-0.9593,-0.9553,-0.9341,-0.877,-0.8313,-0.8313,-0.7706,-0.7253,-0.7253,-0.6945,-0.6795,-0.6795,-0.649,-0.6338,-0.6338,-0.6338,-0.6567,-0.7176,-0.6945,-0.6795,-0.6795,-0.649,-0.6338,-0.6338,-0.6338,-0.6338,-0.6338,-0.6338,-0.6338,-0.6338,-0.6338,-0.6338,-0.6338,-0.6338,-0.6338,0.0,-0.2492,-0.1568,-0.2074,-0.3793,0.0,-0.9082,-1.1346,-1.3937,-1.781,-1.9389,-2.0985,-2.3964,-2.5714,-2.7113,-2.8356,-2.9232,-2.9884,0.0,0.0,0.0,-3.0624,-3.0641,-3.0605,-3.0538,-3.0545,-3.0442,-3.0208,-3.0065,-2.9861,-2.9532,-2.9196,-2.8621,-2.7747,-2.7439,-2.6707,-2.5486,-2.5297,-2.4657,-2.3565,-2.2303,-2.1568,-2.1342,-2.0283,-1.9798,-1.9747,-1.8821,-1.8124,0.0,-1.6631,-1.5911,-1.541,-1.541,-1.541,-1.5294,-1.451,-1.4034,-1.3545,-1.2258,-1.1586,-1.1288,-1.0744,-1.0624,-1.0624,-1.0624,-1.0364,-1.011,-1.011,-0.946,-0.8812,-0.8812,-0.842,-0.8062,-0.82,-0.8297,-0.8361,-0.8292,-0.8404,-0.8411,-0.8098,-0.758,-0.7249,-0.7249,-0.6718,-0.6338,-0.6338,-0.6338,-0.6338,-0.6338,-0.6338,-0.6338,-0.6338,-0.6338,-0.6338,-0.6338,-0.6338,-0.6338,-0.6338,-0.6338,-0.6338,-0.6338,-0.6338,-0.6338,-0.6338,-0.6338,-0.6338,-0.6338,-0.6338,-0.6338,-0.6338,-0.6338,-0.6338,0.0,-1.0256,-0.8471,-0.8533,-1.0544,-1.2764,-1.4,-1.6404,0.0,-2.0933,-2.2685,-2.434,-2.5831,-2.7204,-2.8416,-2.938,-2.9917,-3.0295,-3.0468,-3.0609,-3.0682,-3.0699,-3.0687,-3.0662,-3.0605,-3.0609,-3.0562,-3.0507,-3.0163,-2.9859,-2.9653,-2.9383,-2.8941,-2.829,-2.7542,-2.6783,-2.5966,-2.5357,-2.4484,-2.3398,-2.2147,-2.1281,-2.0792,-2.0092,-1.9722,-1.9695,-1.9695,-1.8821,-1.7523,-1.7468,-1.6574,-1.5294,-1.5294,-1.5294,-1.5108,-1.4323,-1.3545,-1.2818,-1.202,-1.1226,-1.0561,-1.0561,-1.0498,-1.0428,-1.0428,-0.9913,-0.9402,-0.9338,-0.8678,-0.7962,-0.7897,-0.7832,-0.7832,-0.7832,-0.7986,-0.7933,-0.7001,-0.707,-0.7098,-0.6172,-0.6146,-0.6247,-0.6335,-0.6338,-0.6338,-0.6338,-0.6338,-0.6338,-0.6338,-0.6338,-0.6338,-0.6338,-0.6338,-0.6338,-0.6338,-0.6338,-0.6338,-0.6338,-0.6338,-0.6338,-0.6338,-0.6338,-0.6338,-0.6338,-0.6338,-0.6338,-0.6338,-0.6338,-0.6338,-0.6338,-0.6338,-0.6338,-2.0779,0.0,-1.6177,-1.6854,-1.7967,-1.9065,0.0,-2.1167,-2.2527,-2.4186,0.0,-2.5929,-2.778,-2.8691,-2.9307,-2.9798,-3.0194,-3.0455,-3.0492,-3.0536,-3.0567,-3.0628,-3.0581,-3.0541,-3.0526,-3.0566,-3.0563,-3.0505,-2.9805,-2.9275,-2.9022,-2.818,-2.7438,-2.6808,-2.6229,-2.5802,-2.553,-2.4251,-2.3254,-2.257,-2.1055,-2.0488,-2.0737,-1.9677,-1.9105,-1.8927,-1.834,-1.7578,-1.6708,-1.614,-1.5332,-1.451,-1.451,-1.4094,-1.3485,-1.2687,-1.2258,-1.1958,-1.117,-1.0744,-1.0491,-0.9849,-0.9134,-0.8608,-0.8608,-0.939,-1.0174,-0.9466,-0.8678,-0.7832,-0.7177,-0.6531,-0.6017,-0.6017,-0.6043,-0.6041,-0.5902,-0.5989,-0.604,-0.5986,-0.6061,-0.6122,-0.624,-0.6338,-0.6338,-0.6338,-0.6338,-0.6338,-0.6338,-0.6338,-0.6338,-0.6338,-0.6338,-0.6338,-0.6338,-0.6338,-0.6338,-0.6338,-0.6338,-0.6338,-0.6338,-0.6338,-0.6338,-0.6338,-0.6338,-0.6338,-0.6338,-0.6338,-0.6338,-0.6338,-0.6338,-0.6268,-2.5003,-2.3264,-2.1571,-2.2047,-2.2825,-2.3615,-2.4293,0.0,0.0,0.0,0.0,-2.7611,-2.8892,-2.9487,-2.9904,-3.0189,-3.0413,-3.0547,-3.0546,-3.052,-3.0505,-3.0559,-3.0559,-3.0555,-3.0555,-3.0271,-3.0066,-3.001,-2.9148,-2.8531,-2.8235,-2.7578,-2.702,-2.6591,-2.5553,-2.5084,-2.5214,-2.38,-2.2961,-2.2635,-2.0804,-2.0081,-2.0368,-1.918,-1.8437,-1.8064,-1.7641,-1.6855,-1.5909,-1.5685,-1.5155,-1.4436,-1.4259,-1.3906,-1.3425,-1.2258,-1.1834,-1.1648,-1.0415,-0.9716,-0.9326,-0.8877,-0.8355,-0.8027,-0.8027,-0.8672,-0.9192,-0.835,-0.7507,-0.6728,-0.6207,-0.5752,-0.5428,-0.5428,-0.5428,-0.5452,-0.5467,-0.5542,-0.5657,-0.5881,-0.5983,-0.6078,-0.6234,-0.6338,-0.6338,-0.6338,-0.6338,-0.6338,-0.6338,-0.6338,-0.6338,-0.6338,-0.6338,-0.6338,-0.6338,-0.6338,-0.6338,-0.6338,-0.6268,-0.6271,-0.6271,-0.6274,-0.6278,-0.6278,-0.6278,-0.6278,-0.6278,-0.6278,-0.6278,-0.6278,-0.6278,-0.6281,-2.713,-2.6335,-2.5392,-2.5297,-2.5913,-2.6646,-2.7152,0.0,0.0,0.0,0.0,0.0,0.0,-2.9958,0.0,-3.0474,-3.0537,-3.0572,-3.0603,-3.0537,-3.05,-3.0498,-3.0545,-3.051,-3.0393,-2.9835,-2.9394,-2.9225,-2.8333,-2.7691,-2.7402,-2.7049,-2.6782,-2.6599,-2.5085,-2.438,-2.4625,-2.3407,-2.2748,-2.2627,-2.0607,-1.9637,-1.9604,-1.8539,-1.7712,-1.7132,-1.7132,-1.6305,-1.506,-1.5339,-1.5024,-1.4316,-1.3889,-1.3611,-1.3373,-1.2043,-1.1512,-1.1334,-0.9824,-0.8748,-0.7962,-0.7832,-0.7702,-0.7572,-0.7572,-0.7572,-0.7442,-0.6719,-0.6075,-0.5557,-0.5428,-0.5428,-0.5428,-0.5428,-0.5428,-0.5428,-0.5428,-0.5464,-0.5603,-0.5769,-0.5908,-0.6051,-0.623,-0.6338,-0.6338,-0.6338,-0.6338,-0.6338,-0.6338,-0.6338,-0.6338,-0.6338,-0.6338,-0.6338,-0.6338,-0.6264,-0.6264,-0.6264,-0.6274,-0.6119,-0.5799,-0.5805,-0.597,-0.6291,-0.5652,-0.5335,-0.5335,-0.5335,-0.5335,-0.5335,-0.5335,-0.5338,-2.7776,-2.7987,-2.8065,-2.7566,-2.7549,-2.7734,-2.7987,0.0,0.0,0.0,0.0,0.0,0.0,-3.0295,-3.0463,0.0,-3.0464,-3.0472,-3.0586,-3.0481,-3.0449,-3.049,-3.0462,-3.0153,-2.9469,-2.9368,-2.9032,-2.8356,-2.7484,-2.6935,-2.682,-2.588,-2.5264,-2.5122,-2.417,-2.3435,-2.2981,-2.1859,-2.1082,-2.0634,-1.9094,-1.8412,-1.8428,-1.7805,-1.7121,-1.6389,-1.6389,-1.5566,-1.4237,-1.3749,-1.3049,-1.2265,-1.1655,-1.1007,-1.042,-1.0389,-1.0356,-1.0275,-0.9578,-0.8748,-0.7897,-0.7111,-0.64,-0.5818,-0.5818,-0.5818,-0.5752,-0.562,-0.6009,-0.633,-0.5624,-0.5428,-0.5428,-0.5428,-0.5428,-0.5428,-0.5428,-0.5449,-0.5477,-0.5749,-0.582,-0.5925,-0.621,-0.6338,-0.6338,-0.6338,-0.6338,-0.6338,-0.6338,-0.6338,-0.6338,-0.6338,-0.6338,-0.6338,-0.6338,-0.6271,-0.6274,-0.6274,-0.6278,-0.5479,-0.3663,-0.3581,-0.4445,-0.6278,-0.2803,-0.0933,-0.0935,-0.0935,-0.0935,-0.0935,-0.0935,-0.0937,-2.8603,-2.8911,-2.9071,-2.8905,-2.8864,-2.8909,-2.9003,0.0,0.0,0.0,0.0,0.0,0.0,0.0,-3.0548,-3.0504,-3.0475,-3.0451,-3.049,-3.043,-3.0414,-3.0441,-3.0037,-2.9603,-2.924,-2.8474,-2.7822,-2.7422,-2.6585,-2.6065,-2.5994,-2.5358,-2.4937,-2.4804,-2.3952,-2.3316,-2.2944,-2.1648,-2.0748,-2.0218,-1.8783,-1.8138,-1.8139,-1.7278,-1.6351,-1.5381,-1.5381,-1.4665,-1.3426,-1.2952,-1.2556,-1.2135,-1.128,-1.0679,-1.025,-0.9577,-0.8968,-0.8512,-0.796,-0.7149,-0.6398,-0.611,-0.5752,-0.5428,-0.5428,-0.5428,-0.5428,-0.5428,-0.5686,-0.5881,-0.5491,-0.5428,-0.5428,-0.5428,-0.5428,-0.5428,-0.5369,-0.5369,-0.5437,-0.5587,-0.5701,-0.5901,-0.6204,-0.63,-0.6274,-0.6278,-0.6274,-0.6274,-0.6278,-0.6281,-0.6281,-0.6281,-0.6281,-0.6281,-0.6281,-0.6285,-0.6291,-0.6305,-0.6305,-0.5827,-0.4873,-0.4792,-0.5268,-0.6315,-0.219,-0.0,-0.0,-0.0,-0.0,-0.0,-0.0,-0.0,-2.9316,-2.9533,-2.9624,-2.9777,0.0,-2.9712,-2.981,0.0,0.0,0.0,0.0,0.0,0.0,-3.0546,-3.0563,-3.0502,-3.0491,-3.0462,-3.0402,-3.0217,-3.0102,-3.0102,-2.939,-2.8818,-2.8606,-2.7546,-2.6771,-2.6517,-2.5898,-2.5484,-2.5428,-2.5178,-2.4955,-2.4804,-2.3952,-2.336,-2.3058,-2.1766,-2.0797,-2.0081,-1.876,-1.7987,-1.7706,-1.6727,-1.57,-1.4709,-1.456,-1.3884,-1.2852,-1.2337,-1.2095,-1.1965,-1.0849,-1.0326,-1.0109,-0.874,-0.7843,-0.7255,-0.6573,-0.5884,-0.5353,-0.5322,-0.5308,-0.5315,-0.5418,-0.5428,-0.5432,-0.5432,-0.5432,-0.5369,-0.5432,-0.5369,-0.5369,-0.5369,-0.5369,-0.5372,-0.5379,-0.504,-0.4742,-0.474,-0.4921,-0.518,-0.547,-0.5518,-0.5758,-0.6244,-0.5867,-0.5565,-0.5572,-0.5575,-0.5575,-0.5575,-0.5575,-0.5736,-0.6224,-0.6305,-0.6312,-0.6332,-0.5367,-0.481,-0.4815,-0.5774,-0.5852,-0.4818,-0.1649,-0.0,-0.0,-0.0,-0.0,-0.0,-0.0,-0.0,-2.9607,-2.9912,-3.0151,-3.0163,-2.9927,0.0,-3.0101,-3.0163,0.0,-3.0433,0.0,0.0,0.0,-3.05,-3.0513,-3.0507,-3.0451,-3.0421,-3.041,-2.9698,-2.9179,-2.9179,-2.8478,-2.768,-2.6872,-2.6791,-2.6461,-2.5658,-2.5586,-2.5561,-2.5508,-2.5244,-2.5004,-2.4818,-2.3952,-2.3213,-2.265,-2.1927,-2.0847,-1.9456,-1.8541,-1.7585,-1.6595,-1.5952,-1.532,-1.4652,-1.4097,-1.3515,-1.2783,-1.146,-1.0905,-1.0812,-0.947,-0.8699,-0.8303,-0.7513,-0.7302,-0.7364,-0.6538,-0.6181,-0.6034,-0.5346,-0.5145,-0.5172,-0.5318,-0.5369,-0.5376,-0.5376,-0.5386,-0.5389,-0.5379,-0.5386,-0.5393,-0.5393,-0.5393,-0.5393,-0.5393,-0.4095,-0.2902,-0.2915,-0.2936,-0.3035,-0.3264,-0.335,-0.4015,-0.6019,-0.4637,-0.3357,-0.3359,-0.3359,-0.3359,-0.3359,-0.3359,-0.4153,-0.6165,-0.6329,-0.6332,-0.6267,-0.2592,-0.047,-0.047,-0.4235,-0.4472,-0.0548,-0.0157,-0.0,-0.0,-0.0,-0.0,-0.0,-0.0,-0.0,-2.9662,-2.9942,-3.0221,-3.0356,-3.0317,0.0,0.0,-3.0399,-3.0409,-3.0488,-3.0506,0.0,0.0,0.0,-3.043,-3.043,-2.9963,-2.9583,-2.9583,-2.8871,-2.8352,-2.8352,-2.7601,-2.6967,-2.664,-2.6222,-2.5858,-2.5508,-2.5566,-2.5567,-2.5493,-2.5252,-2.5015,-2.4818,-2.3952,-2.3338,-2.2968,-2.1795,-2.0588,-1.937,-1.8801,-1.7985,-1.6993,-1.6398,-1.5656,-1.4709,-1.4468,-1.3521,-1.2138,-1.1166,-1.0559,-1.0064,-0.8672,-0.8003,-0.7761,-0.6538,-0.6197,-0.6167,-0.549,-0.5236,-0.5266,-0.5142,-0.507,-0.5155,-0.5352,-0.5377,-0.5183,-0.4023,-0.4506,-0.5129,-0.4025,-0.3754,-0.3689,-0.3689,-0.3689,-0.403,-0.5129,-0.4855,-0.371,-0.143,-0.1038,-0.1054,-0.1136,-0.116,-0.1482,-0.2264,-0.3895,-0.4169,-0.1485,-0.1175,-0.1175,-0.1175,-0.1175,-0.1489,-0.2278,-0.4813,-0.5216,-0.2518,-0.0864,-0.0,-0.0,-0.1568,-0.1646,-0.0,-0.0,-0.0,-0.0,-0.0,-0.0,-0.0,-0.0,-0.0,-2.9775,-3.0081,-3.0366,0.0,0.0,0.0,-3.0546,-3.0524,-3.0525,-3.0498,-3.0472,-3.0458,-3.0472,0.0,-3.0302,-3.0025,-2.9486,-2.9006,-2.8756,-2.8005,-2.7486,-2.7486,-2.6717,-2.6197,-2.6197,-2.5754,-2.5488,-2.5508,-2.556,-2.5568,-2.5498,-2.5263,-2.4896,-2.4403,-2.3676,-2.3019,-2.2486,-2.1145,-1.9894,-1.8807,-1.8252,-1.7559,-1.6744,-1.6182,-1.5389,-1.4422,-1.4201,-1.3226,-1.1765,-1.1065,-1.0151,-0.9033,-0.7818,-0.723,-0.6848,-0.5655,-0.5167,-0.5132,-0.4755,-0.4626,-0.4657,-0.4879,-0.459,-0.4256,-0.4495,-0.4941,-0.5125,-0.3897,-0.4451,-0.5145,-0.3907,-0.2684,-0.1877,-0.1877,-0.1877,-0.2214,-0.3435,-0.3708,-0.2965,-0.0472,-0.0,-0.0,-0.0,-0.0,-0.0,-0.0,-0.2459,-0.3251,-0.0387,-0.0,-0.0,-0.0,-0.0,-0.0,-0.0,-0.2675,-0.3061,-0.0155,-0.0,-0.0,-0.0,-0.0,-0.0,-0.0,-0.0,-0.0,-0.0,-0.0,-0.0,-0.0,-0.0,-0.0,-3.0113,-3.0393,-3.0623,0.0,0.0,0.0,-3.0623,-3.0596,-3.0575,-3.0506,-3.0451,-3.0398,-3.0379,-3.0379,-3.009,-2.9217,-2.9083,-2.8794,-2.7986,-2.714,-2.6582,-2.6582,-2.5822,-2.5303,-2.5303,-2.5354,-2.5441,-2.5484,-2.5542,-2.5566,-2.5483,-2.5286,-2.4667,-2.3528,-2.3036,-2.2188,-2.0909,-1.9847,-1.8696,-1.7473,-1.6664,-1.6045,-1.5576,-1.496,-1.4376,-1.3779,-1.3152,-1.2452,-1.1715,-1.1065,-0.9526,-0.7616,-0.6858,-0.6145,-0.5433,-0.4732,-0.4525,-0.448,-0.448,-0.4487,-0.4465,-0.4497,-0.3483,-0.2285,-0.2605,-0.3944,-0.5343,-0.5346,-0.5363,-0.5379,-0.5379,-0.2703,-0.0,-0.0,-0.0,-0.0,-0.0,-0.0,-0.0,-0.0,-0.0,-0.0,-0.0,-0.0,-0.0,-0.0,-0.0,-0.0,-0.0,-0.0,-0.0,-0.0,-0.0,-0.0,-0.0,-0.0,-0.0,-0.0,-0.0,-0.0,-0.0,-0.0,-0.0,-0.0,-0.0,-0.0,-0.0,-0.0,-0.0,-0.0,-0.0,-0.0,-2.9807,-3.0175,0.0,-3.0603,0.0,0.0,0.0,-3.0561,0.0,0.0,-3.0414,-3.0163,-2.9411,-2.9264,-2.8957,-2.7994,-2.7319,-2.683,-2.6602,-2.5926,-2.5482,-2.5482,-2.5241,-2.5152,-2.5293,-2.5226,-2.5266,-2.5428,-2.4974,-2.4661,-2.4583,-2.3859,-2.3265,-2.2889,-2.2057,-2.1324,-2.0675,-1.9588,-1.8371,-1.7082,-1.6529,-1.6078,-1.5669,-1.5033,-1.4406,-1.3716,-1.3082,-1.1904,-1.0312,-0.9124,-0.7972,-0.6858,-0.6091,-0.5706,-0.5433,-0.4743,-0.4477,-0.4366,-0.3239,-0.2903,-0.3081,-0.4154,-0.4204,-0.3428,-0.1422,-0.1148,-0.1575,-0.1607,-0.1618,-0.1619,-0.1619,-0.0809,-0.0,-0.0,-0.0,-0.0,-0.0,-0.0,-0.0,-0.0,-0.0,-0.0,-0.0,-0.0,-0.0,-0.0,-0.0,-0.0,-0.0,-0.0,-0.0,-0.0,-0.0,-0.0,-0.0,-0.0,-0.0,-0.0,-0.0,-0.0,-0.0,-0.0,-0.0,-0.0,-0.0,-0.0,-0.0,-0.0,-0.0,-0.0,-0.0,-0.0,-2.987,-3.0182,0.0,-3.0623,-3.0626,-3.0581,-3.0561,0.0,0.0,0.0,-3.0054,-2.957,-2.8924,-2.8474,-2.7894,-2.6945,-2.6348,-2.588,-2.5578,-2.5186,-2.493,-2.493,-2.493,-2.4968,-2.5091,-2.4796,-2.4639,-2.4783,-2.4171,-2.3769,-2.373,-2.3173,-2.2636,-2.2141,-2.1381,-2.0623,-1.9895,-1.8444,-1.725,-1.6339,-1.5489,-1.4846,-1.4413,-1.4246,-1.3683,-1.2828,-1.1788,-1.0508,-0.9103,-0.7823,-0.6853,-0.6091,-0.5651,-0.5324,-0.5058,-0.4632,-0.4135,-0.3463,-0.251,-0.184,-0.1453,-0.2411,-0.2699,-0.2366,-0.0542,-0.0,-0.0,-0.0,-0.0,-0.0,-0.0,-0.0,-0.0,-0.0,-0.0,-0.0,-0.0,-0.0,-0.0,-0.0,-0.0,-0.0,-0.0,-0.0,-0.0,-0.0,-0.0,-0.0,-0.0,-0.0,-0.0,-0.0,-0.0,-0.0,-0.0,-0.0,-0.0,-0.0,-0.0,-0.0,-0.0,-0.0,-0.0,-0.0,-0.0,-0.0,-0.0,-0.0,-0.0,-0.0,-0.0,-0.0,-3.0075,0.0,0.0,-3.0665,-3.0658,0.0,-3.0513,-3.0451,-3.0359,-3.0271,0.0,-2.8744,-2.8545,-2.7774,-2.6846,-2.5935,-2.5819,-2.5574,-2.4825,-2.4712,-2.4727,-2.4727,-2.4727,-2.4723,-2.4643,-2.41,-2.3763,-2.3794,-2.3211,-2.2858,-2.2871,-2.2862,-2.2368,-2.1309,-2.0887,-2.0065,-1.8768,-1.6891,-1.5756,-1.5371,-1.3906,-1.289,-1.2384,-1.2854,-1.2425,-1.1255,-0.9668,-0.8637,-0.8035,-0.696,-0.6103,-0.5354,-0.5354,-0.5042,-0.4519,-0.4519,-0.3624,-0.2343,-0.212,-0.1117,-0.0,-0.0,-0.0,-0.0,-0.0,-0.0,-0.0,-0.0,-0.0,-0.0,-0.0,-0.0,-0.0,-0.0,-0.0,-0.0,-0.0,-0.0,-0.0,-0.0,-0.0,-0.0,-0.0,-0.0,-0.0,-0.0,-0.0,-0.0,-0.0,-0.0,-0.0,-0.0,-0.0,-0.0,-0.0,-0.0,-0.0,-0.0,-0.0,-0.0,-0.0,-0.0,-0.0,-0.0,-0.0,-0.0,-0.0,-0.0,-0.0,-0.0,-0.0,-0.0,-2.9794,-3.0117,0.0,0.0,-3.0605,-3.0584,-3.0521,-3.0451,-3.0163,-2.9321,-2.8957,-2.8294,-2.6669,-2.6195,-2.5649,-2.4408,-2.4431,-2.4432,-2.4001,-2.4062,-2.4173,-2.4173,-2.4173,-2.4002,-2.3512,-2.3427,-2.3267,-2.2906,-2.2177,-2.1804,-2.1974,-2.1343,-2.0814,-2.0463,-2.0022,-1.9351,-1.8413,-1.705,-1.5771,-1.4541,-1.3572,-1.2472,-1.1346,-1.1754,-1.1026,-0.9428,-0.8533,-0.7509,-0.6482,-0.6245,-0.546,-0.4502,-0.4502,-0.4469,-0.4519,-0.4473,-0.4311,-0.3644,-0.1283,-0.028,-0.0,-0.0,-0.0,-0.0,-0.0,-0.0,-0.0,-0.0,-0.0,-0.0,-0.0,-0.0,-0.0,-0.0,-0.0,-0.0,-0.0,-0.0,-0.0,-0.0,-0.0,-0.0,-0.0,-0.0,-0.0,-0.0,-0.0,-0.0,-0.0,-0.0,-0.0,-0.0,-0.0,-0.0,-0.0,-0.0,-0.0,-0.0,-0.0,-0.0,-0.0,-0.0,-0.0,-0.0,-0.0,-0.0,-0.0,-0.0,-0.0,-0.0,-0.0,-0.0,-2.978,0.0,0.0,-3.0528,0.0,-3.0541,-3.0561,-3.0153,-2.949,-2.844,-2.8155,-2.7593,-2.5976,-2.5171,-2.4557,-2.403,-2.3816,-2.3714,-2.3692,-2.366,-2.3605,-2.3605,-2.3422,-2.3101,-2.2665,-2.2185,-2.1755,-2.1367,-2.0816,-2.0536,-2.0635,-2.0465,-2.031,-2.0194,-1.9657,-1.9145,-1.8695,-1.6905,-1.5652,-1.483,-1.3208,-1.1362,-0.9458,-0.9946,-0.9348,-0.7959,-0.7099,-0.6227,-0.5348,-0.5158,-0.4719,-0.4203,-0.4203,-0.4348,-0.448,-0.4487,-0.4488,-0.4274,-0.2689,-0.1231,-0.0,-0.0,-0.0,-0.0,-0.0,-0.0,-0.0,-0.0,-0.0,-0.0,-0.0,-0.0,-0.0,-0.0,-0.0,-0.0,-0.0,-0.0,-0.0,-0.0,-0.0,-0.0,-0.0,-0.0,-0.0,-0.0,-0.0,-0.0,-0.0,-0.0,-0.0,-0.0,-0.0,-0.0,-0.0,-0.0,-0.0,-0.0,-0.0,-0.0,-0.0,-0.0,-0.0,-0.0,-0.0,-0.0,-0.0,-0.0,-0.0,-0.0,-0.0,-0.0,-2.9796,0.0,-3.012,-3.0501,-3.0556,0.0,-3.0414,-2.9741,-2.8794,-2.7619,-2.7215,-2.6755,-2.568,-2.4559,-2.3837,-2.3996,-2.361,-2.3346,-2.3482,-2.33,-2.3064,-2.2941,-2.258,-2.2143,-2.1662,-2.0822,-2.0151,-1.9812,-1.9573,-1.9437,-1.9435,-1.9896,-2.0141,-2.0096,-1.9565,-1.9149,-1.8846,-1.6735,-1.5463,-1.5008,-1.2525,-1.0146,-0.7952,-0.81,-0.7616,-0.6664,-0.5919,-0.5253,-0.4692,-0.4374,-0.4168,-0.4052,-0.3847,-0.3938,-0.4121,-0.4121,-0.4277,-0.4418,-0.3904,-0.2063,-0.0,-0.0,-0.0,-0.0,-0.0,-0.0,-0.0,-0.0,-0.0,-0.0,-0.0,-0.0,-0.0,-0.0,-0.0,-0.0,-0.0,-0.0,-0.0,-0.0,-0.0,-0.0,-0.0,-0.0,-0.0,-0.0,-0.0,-0.0,-0.0,-0.0,-0.0,-0.0,-0.0,-0.0,-0.0,-0.0,-0.0,-0.0,-0.0,-0.0,-0.0,-0.0,-0.0,-0.0,-0.0,-0.0,-0.0,-0.0,-0.0,-0.0,-0.0,-0.0,0.0,0.0,-3.0243,0.0,-3.0599,-3.0404,0.0,0.0,-2.8676,-2.6847,-2.6313,-2.5857,-2.4843,-2.4377,-2.3976,-2.3414,-2.35,-2.3455,-2.2923,-2.2797,-2.2528,-2.1885,-2.176,-2.1185,-1.9817,-1.9803,-1.963,-1.9002,-1.9136,-1.9197,-1.9169,-1.9443,-1.9623,-1.9686,-1.9588,-1.901,-1.7914,-1.6929,-1.5381,-1.3238,-1.092,-0.9524,-0.8956,-0.721,-0.6083,-0.5518,-0.5766,-0.5394,-0.4728,-0.5009,-0.4575,-0.356,-0.2539,-0.2254,-0.2486,-0.2486,-0.3335,-0.4151,-0.1493,-0.0327,-0.0,-0.0,-0.0,-0.0,-0.0,-0.0,-0.0,-0.0,-0.0,-0.0,-0.0,-0.0,-0.0,-0.0,-0.0,-0.0,-0.0,-0.0,-0.0,-0.0,-0.0,-0.0,-0.0,-0.0,-0.0,-0.0,-0.0,-0.0,-0.0,-0.0,-0.0,-0.0,-0.0,-0.0,-0.0,-0.0,-0.0,-0.0,-0.0,-0.0,-0.0,-0.0,-0.0,-0.0,-0.0,-0.0,-0.0,-0.0,-0.0,-0.0,-0.0,-0.0,-2.9513,-2.9826,-3.0157,0.0,-3.0535,-3.0311,-2.9481,-2.8896,-2.8141,-2.6751,-2.585,-2.516,-2.4601,-2.4265,-2.3945,-2.3566,-2.33,-2.3063,-2.2781,-2.2036,-2.1501,-2.1396,-2.0575,-1.9771,-1.9155,-1.8957,-1.8644,-1.8004,-1.8213,-1.8262,-1.8048,-1.8405,-1.8615,-1.8655,-1.895,-1.8821,-1.8273,-1.7382,-1.5384,-1.2283,-1.1048,-0.9578,-0.7881,-0.5669,-0.4874,-0.5271,-0.4824,-0.4016,-0.3075,-0.3262,-0.3446,-0.3566,-0.3003,-0.2031,-0.0782,0.0536,0.0599,0.0155,0.0771,0.1689,0.224,0.0544,-0.0,-0.0,-0.0,-0.0,-0.0,-0.0,0.1236,0.2502,0.2492,0.1274,-0.0,-0.0,-0.0,-0.0,-0.0,-0.0,-0.0,-0.0,-0.0,-0.0,-0.0,-0.0,-0.0,-0.0,-0.0,-0.0,-0.0,-0.0,-0.0,-0.0,-0.0,-0.0,-0.0,-0.0,-0.0,-0.0,-0.0,-0.0,-0.0,-0.0,-0.0,-0.0,-0.0,-0.0,-0.0,-0.0,-0.0,-0.0,-0.0,-0.0,0.0,0.0,-3.0009,-3.0344,-3.0464,-3.0216,0.0,0.0,-2.7693,-2.6534,-2.5539,-2.4818,-2.4623,-2.421,-2.3848,-2.361,-2.3069,-2.2591,-2.2279,-2.1294,-2.0567,-2.0505,-1.9429,-1.8656,-1.8504,-1.8189,-1.7642,-1.6888,-1.7067,-1.6978,-1.6451,-1.6791,-1.7141,-1.7437,-1.7181,-1.664,-1.5797,-1.3985,-1.1723,-0.9061,-0.9448,-0.8998,-0.7727,-0.4842,-0.398,-0.4825,-0.3954,-0.309,-0.2192,-0.1609,-0.1882,-0.2702,-0.2702,-0.1189,0.1128,0.2926,0.3585,0.3497,0.2632,0.3168,0.3872,0.1381,0.0325,-0.0,-0.0,-0.0,-0.0,-0.0,0.2153,0.4481,0.4505,0.2855,0.0948,0.0193,-0.0,0.0267,0.1144,0.0674,-0.0,-0.0,-0.0,-0.0,-0.0,-0.0,-0.0,-0.0,-0.0,-0.0,-0.0,-0.0,-0.0,-0.0,-0.0,-0.0,-0.0,-0.0,-0.0,-0.0,-0.0,-0.0,-0.0,-0.0,-0.0,-0.0,-0.0,-0.0,-0.0,-0.0,-0.0,-0.0,-0.0,-0.0,0.0,-2.9551,0.0,-3.0138,-3.0366,-3.0081,0.0,-2.8125,-2.759,-2.5822,-2.5271,-2.5018,-2.4809,-2.421,-2.361,-2.3277,-2.2923,-2.2245,-2.0916,-2.0659,-2.0086,-1.8715,-1.8458,-1.8145,-1.7436,-1.7361,-1.6822,-1.5579,-1.5745,-1.544,-1.43,-1.4472,-1.508,-1.6165,-1.3831,-1.1009,-0.7826,-0.3827,-0.1756,-0.1608,-0.4181,-0.7055,-0.9987,-0.5531,-0.3585,-0.3674,-0.3619,-0.3567,-0.3337,-0.1033,-0.0135,-0.018,-0.018,0.1304,0.3443,0.3536,0.3622,0.3639,0.3728,0.3736,0.3482,0.2423,0.1118,-0.0,-0.0,-0.0,-0.0,-0.0,0.2194,0.4505,0.4487,0.4405,0.3555,0.0701,-0.0,0.0913,0.4364,0.2424,-0.0,-0.0,-0.0,-0.0,-0.0,-0.0,-0.0,-0.0,-0.0,-0.0,-0.0,-0.0,-0.0,-0.0,-0.0,-0.0,-0.0,-0.0,-0.0,-0.0,-0.0,-0.0,-0.0,-0.0,-0.0,-0.0,-0.0,-0.0,-0.0,-0.0,-0.0,-0.0,-0.0,-0.0,0.0,0.0,0.0,-2.9975,-2.9778,-2.9215,-2.8194,-2.7602,-2.689,-2.5605,-2.5213,-2.5039,-2.4836,-2.4298,-2.3746,-2.3282,-2.2712,-2.1898,-2.0754,-1.9787,-1.8984,-1.8447,-1.7613,-1.7123,-1.7288,-1.6546,-1.5802,-1.514,-1.3618,-1.2437,-1.1819,-1.0822,-1.0432,-1.0825,-1.0439,-0.6333,0.1766,-0.1026,-0.176,-0.0424,-0.4232,-0.5209,-0.3681,-0.3554,-0.27,-0.1215,0.0358,0.103,0.1074,0.1932,0.1839,0.1163,0.1163,0.17,0.2553,0.3322,0.3577,0.3621,0.3663,0.3671,0.3417,0.2317,0.1074,-0.0,-0.0,-0.0,0.0392,0.2357,0.2972,0.3258,0.4226,0.3773,0.2497,0.0497,-0.0,0.0324,0.1631,0.273,0.2771,0.0471,-0.0,-0.0,-0.0,-0.0,-0.0,-0.0,-0.0,-0.0,-0.0,-0.0,-0.0,-0.0,-0.0,-0.0,-0.0,-0.0,-0.0,-0.0,-0.0,-0.0,-0.0,-0.0,-0.0,-0.0,-0.0,-0.0,-0.0,-0.0,-0.0,-0.0,-0.0,-0.0,-2.9222,0.0,0.0,0.0,-2.9332,-2.8675,-2.7965,-2.7264,-2.6495,-2.5562,-2.5235,-2.5084,-2.4941,-2.442,-2.3857,-2.3287,-2.2504,-2.1494,-2.0237,-1.9183,-1.8358,-1.7775,-1.6689,-1.6134,-1.6475,-1.5424,-1.427,-1.3039,-1.1331,-0.9878,-0.8752,-0.7609,-0.6368,-0.5061,-0.4141,0.026,0.8458,0.5999,0.546,0.6817,-0.0782,-0.2843,-0.0045,-0.1621,-0.0628,0.2382,0.3248,0.3615,0.3615,0.3612,0.3146,0.2415,0.2415,0.2413,0.2499,0.3309,0.3581,0.3581,0.3581,0.3601,0.3457,0.2647,0.1327,-0.0,-0.0,-0.0,0.0608,0.3649,0.3766,0.3193,0.4222,0.2987,0.124,0.0242,-0.0,-0.0,-0.0,0.1904,0.3246,0.2021,0.0808,-0.0,-0.0,-0.0,-0.0,-0.0,-0.0,-0.0,-0.0,-0.0,-0.0,-0.0,-0.0,-0.0,-0.0,-0.0,-0.0,-0.0,-0.0,-0.0,-0.0,-0.0,-0.0,-0.0,-0.0,-0.0,-0.0,-0.0,-0.0,-0.0,-0.0,-0.0,0.0,0.0,0.0,0.0,0.0,-2.854,-2.7773,-2.7113,-2.6418,-2.5657,-2.5327,-2.5177,-2.5106,-2.4555,-2.3933,-2.3325,-2.2317,-2.1013,-1.9256,-1.8949,-1.8254,-1.6511,-1.5783,-1.5297,-1.492,-1.3983,-1.2203,-0.9328,-0.8932,-0.771,-0.5084,-0.4875,-0.306,0.0695,0.4888,0.8514,1.1634,1.7453,2.0452,2.0438,0.7017,0.0401,-0.0,-0.0,0.2561,0.6893,0.467,0.366,0.3612,0.3602,0.3598,0.3598,0.3598,0.3592,0.3581,0.3581,0.3581,0.3581,0.3581,0.3581,0.3605,0.3612,0.1991,0.0097,-0.0,-0.0,0.059,0.3522,0.4409,0.4514,0.4528,0.2246,-0.0,-0.0,-0.0,-0.0,-0.0,-0.0,0.1008,0.4587,0.2423,-0.0,-0.0,-0.0,-0.0,-0.0,-0.0,-0.0,-0.0,-0.0,-0.0,-0.0,-0.0,-0.0,-0.0,-0.0,-0.0,-0.0,-0.0,-0.0,-0.0,-0.0,-0.0,-0.0,-0.0,-0.0,-0.0,-0.0,-0.0,-0.0,-0.0,-0.0,-2.8658,0.0,0.0,0.0,0.0,0.0,-2.7331,-2.6276,-2.5293,-2.5162,-2.5177,-2.5175,-2.5099,-2.4839,-2.4487,-2.4134,-2.2882,-2.1452,-1.9915,-1.9241,-1.8339,-1.6844,-1.6305,-1.5745,-1.4964,-1.2715,-1.0701,-0.9206,-0.5008,-0.219,-0.1468,0.0922,0.2777,0.3837,0.5045,0.6686,0.8807,1.2936,1.6906,2.0552,1.6733,0.9664,-0.0,-0.0,0.257,0.6962,0.632,0.5112,0.3612,0.3595,0.3585,0.3585,0.3585,0.3585,0.3581,0.3581,0.3581,0.3581,0.3581,0.3581,0.3588,0.3584,0.3158,0.2257,0.0555,-0.0,0.0161,0.0998,0.2805,0.4514,0.4518,0.2261,-0.0,-0.0,-0.0,-0.0,-0.0,-0.0,0.0319,0.1301,0.0664,-0.0,-0.0,-0.0,-0.0,-0.0,-0.0,-0.0,-0.0,-0.0,-0.0,-0.0,-0.0,-0.0,-0.0,-0.0,-0.0,-0.0,-0.0,-0.0,-0.0,-0.0,-0.0,-0.0,-0.0,-0.0,-0.0,-0.0,-0.0,-0.0,-0.0,-0.0,0.0,0.0,0.0,-2.886,0.0,0.0,-2.7005,-2.588,-2.4853,-2.5003,-2.5104,-2.5169,-2.5211,-2.5056,-2.4878,-2.4716,-2.3777,-2.2422,-2.0627,-1.9918,-1.8943,-1.724,-1.6495,-1.578,-1.4964,-1.1878,-0.9078,-0.71,-0.2644,0.0629,0.2061,0.4698,0.6303,0.6529,0.7199,0.7807,0.8327,1.2269,1.5431,1.7663,1.6462,1.1835,0.419,0.1327,0.1504,0.4166,0.6164,0.5674,0.3499,0.3043,0.3132,0.3588,0.3581,0.3581,0.3581,0.3581,0.3581,0.3581,0.3581,0.3581,0.3581,0.3581,0.3601,0.3237,0.1312,0.0404,-0.0,-0.0,0.1274,0.2639,0.2639,0.1345,-0.0,-0.0,-0.0,-0.0,-0.0,-0.0,-0.0,-0.0,-0.0,-0.0,-0.0,-0.0,-0.0,-0.0,-0.0,-0.0,-0.0,-0.0,-0.0,-0.0,-0.0,-0.0,-0.0,-0.0,-0.0,-0.0,-0.0,-0.0,-0.0,-0.0,-0.0,-0.0,-0.0,-0.0,-0.0,-0.0,-0.0,-0.0,-0.0,-0.0,0.0,0.0,0.0,-2.8725,-2.7502,0.0,-2.6706,-2.5701,-2.4762,-2.4977,-2.5032,-2.5089,-2.5293,-2.5195,-2.5078,-2.506,-2.4735,-2.3716,-2.1487,-2.0877,-1.9896,-1.7931,-1.6769,-1.5853,-1.519,-1.1454,-0.7682,-0.4229,-0.0918,0.234,0.5506,0.716,0.8191,0.8602,1.0108,1.0194,0.8656,1.3242,1.4782,1.319,1.0554,0.9165,0.8715,0.2357,-0.0514,-0.0132,0.4139,0.4834,0.2841,0.2093,0.2415,0.3411,0.3401,0.349,0.3581,0.3581,0.3581,0.3581,0.3581,0.3581,0.3581,0.3581,0.3588,0.3392,0.2158,0.0978,-0.0,-0.0,-0.0,-0.0,-0.0,-0.0,-0.0,-0.0,-0.0,-0.0,-0.0,-0.0,-0.0,-0.0,-0.0,-0.0,-0.0,-0.0,-0.0,-0.0,-0.0,-0.0,-0.0,-0.0,-0.0,-0.0,-0.0,-0.0,-0.0,-0.0,-0.0,-0.0,-0.0,-0.0,-0.0,-0.0,-0.0,-0.0,-0.0,-0.0,-0.0,-0.0,-0.0,-0.0,-0.0,-0.0,-2.8075,-2.801,-2.7936,-2.7707,-2.6631,0.0,-2.6108,-2.5008,-2.4061,-2.4535,-2.4657,-2.474,-2.4886,-2.4925,-2.4929,-2.4865,-2.4914,-2.4485,-2.3116,-2.2039,-2.09,-1.9645,-1.8694,-1.7694,-1.6555,-1.1992,-0.7772,-0.4536,0.2612,0.7542,0.9213,0.9612,0.963,0.9306,1.005,0.8765,0.5277,0.9376,1.1279,1.0921,0.9831,0.6171,0.0293,-0.2719,-0.3652,-0.2721,-0.0863,-0.035,-0.0617,0.1069,0.1925,0.2144,0.2144,0.2729,0.3592,0.3585,0.3581,0.3581,0.3581,0.3581,0.3581,0.3581,0.3581,0.3382,0.2156,0.0976,-0.0,-0.0,-0.0,-0.0,-0.0,-0.0,-0.0,-0.0,-0.0,-0.0,-0.0,-0.0,-0.0,-0.0,-0.0,-0.0,-0.0,-0.0,-0.0,-0.0,-0.0,-0.0,-0.0,-0.0,-0.0,-0.0,-0.0,-0.0,-0.0,-0.0,-0.0,-0.0,-0.0,-0.0,-0.0,-0.0,-0.0,-0.0,-0.0,-0.0,-0.0,-0.0,-0.0,-0.0,-0.0,-0.0,-2.7992,-2.7736,-2.7589,-2.7589,-2.6685,0.0,0.0,-2.4843,-2.4037,-2.4229,-2.4278,-2.4388,-2.4737,-2.4682,-2.4638,-2.4773,-2.4774,-2.4551,-2.4014,-2.2878,-2.1659,-2.0487,-1.9262,-1.826,-1.7658,-1.0681,-0.3561,0.2819,0.6259,0.885,1.0562,1.0428,1.004,0.9518,0.9765,0.8093,0.4341,0.8046,0.8302,0.5138,0.3701,0.1255,-0.2154,-0.6597,-0.7704,-0.5984,-0.4299,-0.3206,-0.2615,-0.1381,-0.0535,0.0044,0.0669,0.1251,0.1878,0.2502,0.3087,0.3588,0.3588,0.3585,0.3581,0.3581,0.3581,0.3503,0.289,0.1442,-0.0,-0.0,-0.0,-0.0,-0.0,-0.0,-0.0,-0.0,-0.0,-0.0,-0.0,-0.0,-0.0,-0.0,-0.0,-0.0,-0.0,-0.0,-0.0,-0.0,-0.0,-0.0,-0.0,-0.0,-0.0,-0.0,-0.0,-0.0,-0.0,-0.0,-0.0,-0.0,-0.0,-0.0,-0.0,-0.0,-0.0,-0.0,-0.0,-0.0,-0.0,-0.0,-0.0,-0.0,-0.0,-0.0,-2.788,-2.747,-2.7272,-2.7589,-2.6822,-2.588,0.0,0.0,0.0,-2.3894,-2.3852,-2.3988,-2.44,-2.4276,-2.4185,-2.4444,-2.4343,-2.4219,-2.4205,-2.3195,-2.2069,-2.1004,-1.9491,-1.8542,-1.8542,-0.9052,0.0978,1.0301,0.975,0.9559,1.0933,1.0649,1.0108,0.9359,0.9204,0.7558,0.4183,0.6834,0.5413,-0.003,-0.2923,-0.3892,-0.332,-0.9599,-1.1326,-0.922,-0.6945,-0.5283,-0.4212,-0.3788,-0.3034,-0.2049,-0.0803,-0.0223,0.0134,0.1115,0.2055,0.296,0.3185,0.3271,0.3309,0.3534,0.3581,0.3544,0.3305,0.1716,-0.0,-0.0,-0.0,-0.0,-0.0,-0.0,-0.0,-0.0,-0.0,-0.0,-0.0,-0.0,-0.0,-0.0,-0.0,-0.0,-0.0,-0.0,-0.0,-0.0,-0.0,-0.0,-0.0,-0.0,-0.0,-0.0,-0.0,-0.0,-0.0,-0.0,-0.0,-0.0,-0.0,-0.0,-0.0,-0.0,-0.0,-0.0,-0.0,-0.0,-0.0,-0.0,-0.0,-0.0,-0.0,-0.0,-2.7487,-2.7083,-2.6791,-2.6808,-2.6231,-2.5547,-2.5149,0.0,-2.3816,-2.3372,0.0,-2.331,-2.3379,0.0,0.0,-2.337,-2.3494,-2.3487,-2.3123,-2.2457,-2.1861,-2.154,-2.0293,-1.9366,-1.9134,-0.8339,0.208,1.0381,1.2565,1.2806,1.1094,1.0943,1.0283,0.8837,0.823,0.6524,0.3608,0.3463,0.2265,-0.0059,-0.5375,-0.7636,-0.7295,-1.1515,-1.2799,-1.1591,-0.925,-0.7616,-0.647,-0.4444,-0.3514,-0.3281,-0.2049,-0.0937,-0.0,0.0134,0.0312,0.0581,0.1652,0.201,0.2186,0.3265,0.3588,0.3388,0.2335,0.107,-0.0,-0.0,-0.0,-0.0,-0.0,-0.0,-0.0,-0.0,-0.0,-0.0,-0.0,-0.0,-0.0,-0.0,-0.0,-0.0,-0.0,-0.0,-0.0,-0.0,-0.0,-0.0,-0.0,-0.0,-0.0,-0.0,-0.0,-0.0,-0.0,-0.0,-0.0,-0.0,-0.0,-0.0,-0.0,-0.0,-0.0,-0.0,-0.0,-0.0,-0.0,-0.0,-0.0,-0.0,-0.0,-0.0,-2.7409,-2.7004,-2.6691,-2.6691,-2.615,-2.5438,-2.4859,-2.4137,-2.3481,-2.3022,0.0,0.0,0.0,0.0,0.0,0.0,-2.2909,-2.2633,-2.2462,-2.2133,-2.1523,-2.0451,-1.9292,-1.6693,-1.1947,-0.8769,-0.2121,0.9715,1.1815,1.2086,1.1058,1.0723,0.9243,0.6229,0.5859,0.3936,0.0208,-0.0504,-0.3347,-0.8261,-1.0856,-1.2695,-1.3784,-1.4093,-1.3452,-1.1978,-0.9628,-0.7985,-0.6904,-0.5577,-0.4862,-0.4513,-0.3635,-0.2804,-0.1923,-0.0535,-0.0,0.0089,0.0582,0.076,0.1071,0.3001,0.3598,0.3526,0.2984,0.149,-0.0,-0.0,-0.0,-0.0,-0.0,-0.0,-0.0,-0.0,-0.0,-0.0,-0.0,-0.0,-0.0,-0.0,-0.0,-0.0,-0.0,-0.0,-0.0,-0.0,-0.0,-0.0,-0.0,-0.0,-0.0,-0.0,-0.0,-0.0,-0.0,-0.0,-0.0,-0.0,-0.0,-0.0,-0.0,-0.0,-0.0,-0.0,-0.0,-0.0,-0.0,-0.0,-0.0,-0.0,-0.0,-0.0,-2.7224,-2.6939,-2.664,-2.6437,-2.5998,-2.5355,-2.4408,-2.3765,-2.326,-2.2718,-2.2599,0.0,0.0,0.0,-2.2634,-2.2754,0.0,-2.1869,-2.1632,-2.1414,-2.0776,-1.9479,-1.8172,-1.4244,-0.6158,-0.7823,-0.4462,0.7491,0.8842,0.8795,0.8042,0.7217,0.5404,0.2438,0.1672,-0.0268,-0.3577,-0.4503,-0.8159,-1.4445,-1.4614,-1.5964,-1.8232,-1.5956,-1.4166,-1.2701,-1.0464,-0.8865,-0.7837,-0.7217,-0.6487,-0.5728,-0.5115,-0.4439,-0.3578,-0.1697,-0.0759,-0.0492,-0.0493,-0.0268,0.0268,0.2059,0.3057,0.3615,0.3615,0.19,-0.0,-0.0,-0.0,-0.0,-0.0,-0.0,-0.0,-0.0,-0.0,-0.0,-0.0,-0.0,-0.0,-0.0,-0.0,-0.0,-0.0,-0.0,-0.0291,-0.1117,-0.1225,-0.114,-0.0772,-0.0328,-0.0,-0.0,-0.0,-0.0,-0.0,-0.0,-0.0,-0.0,-0.0,-0.0,-0.0,-0.0,-0.0,-0.0,-0.0,-0.0,-0.0,-0.0,-0.0,-0.0,-0.0,-0.0,-2.6841,-2.6725,-2.6522,-2.5812,-2.5625,-2.5236,-2.3765,-2.341,-2.319,-2.2446,-2.2293,-2.231,-2.2338,-2.2338,-2.2163,0.0,-2.1642,0.0,0.0,-1.9958,-1.9531,-1.9134,-1.7515,-1.3198,-0.4852,-0.4398,-0.2357,0.3117,0.3605,0.2686,0.0467,-0.1259,-0.2339,-0.2657,-0.4935,-0.6456,-0.7123,-0.8327,-1.0985,-1.5076,-1.4814,-1.6174,-1.8804,-1.6504,-1.5211,-1.4612,-1.2586,-1.11,-1.005,-0.946,-0.8311,-0.6904,-0.6295,-0.5358,-0.4303,-0.3704,-0.2724,-0.1739,-0.1741,-0.098,-0.0,0.0089,0.1703,0.3615,0.3615,0.19,-0.0,-0.0,-0.0,-0.0,-0.0,-0.0,-0.0,-0.0,-0.0,-0.0,-0.0,-0.0,-0.0,-0.0,-0.0,-0.0,-0.0,-0.0,-0.0965,-0.3943,-0.433,-0.3936,-0.2748,-0.1092,-0.0,-0.0,-0.0,-0.0,-0.0,-0.0,-0.0,-0.0,-0.0,-0.0,-0.0,-0.0,-0.0,-0.0,-0.0,-0.0,-0.0,-0.0,-0.0,-0.0,-0.0,-0.0,-2.623,-2.5981,-2.5795,-2.505,-2.4509,-2.4002,-2.3511,-2.3021,-2.2598,-2.2361,-2.231,-2.231,-2.231,-2.2049,0.0,0.0,0.0,-2.015,0.0,-1.8821,-1.7777,-1.69,-1.5636,-1.3691,-1.0887,-0.9627,-0.6731,-0.1354,-0.0062,0.0358,0.0078,-0.1161,-0.3331,-0.6502,-0.7394,-0.9058,-1.1637,-1.2606,-1.4489,-1.7299,-1.7423,-1.7776,-1.8235,-1.6313,-1.5061,-1.4376,-1.2839,-1.1623,-1.0606,-1.0099,-0.9182,-0.7985,-0.7051,-0.601,-0.487,-0.3949,-0.3341,-0.2996,-0.3001,-0.219,-0.1203,-0.1205,-0.0089,0.1208,0.1208,0.0664,-0.0,-0.0,-0.0,-0.0,-0.0,-0.0,-0.0,-0.0,-0.0,-0.0,-0.0,-0.0,-0.0,-0.0,-0.0,-0.0,-0.0,-0.1682,-0.2649,-0.1651,-0.3203,-0.4352,-0.395,-0.3715,-0.3556,-0.3591,-0.3584,-0.3553,-0.3553,-0.3553,-0.2544,-0.0134,-0.0,-0.0,-0.0,-0.0,-0.0,-0.0,-0.0,-0.0,-0.0,-0.0,-0.0,-0.0,-0.0,-0.0,-2.5792,-2.5423,-2.5033,-2.4272,-2.3748,-2.3325,-2.3071,-2.2649,-2.231,-2.231,-2.231,-2.2254,-2.2077,-2.1794,-2.1491,0.0,0.0,0.0,0.0,-1.7853,-1.6645,-1.5694,-1.4802,-1.4064,-1.3458,-1.1974,-0.9586,-0.6126,-0.4964,-0.4332,-0.4138,-0.5542,-0.7717,-1.0714,-1.1223,-1.2716,-1.5326,-1.5874,-1.6992,-1.8731,-1.8759,-1.8568,-1.8157,-1.6456,-1.5429,-1.4903,-1.3539,-1.2366,-1.138,-1.0929,-0.9924,-0.8577,-0.7859,-0.6784,-0.548,-0.4295,-0.3781,-0.3581,-0.3588,-0.3087,-0.2455,-0.2457,-0.1923,-0.1118,-0.0268,-0.0,-0.0,-0.0,-0.0,-0.0,-0.0,-0.0,-0.0,-0.0,-0.0,-0.0,-0.0,-0.0,-0.0,-0.0,-0.0,-0.0,-0.0,-0.2525,-0.3658,-0.1175,-0.291,-0.4548,-0.4598,-0.4891,-0.5175,-0.5353,-0.5383,-0.5391,-0.5379,-0.5386,-0.4431,-0.207,-0.1938,-0.1939,-0.1939,-0.1942,-0.134,-0.0,-0.0,-0.0,-0.0,-0.0,-0.0,-0.0,-0.0,-0.0]},{"header":{"parameterUnit":"m.s-1","parameterCategory":1,"la1":30.6,"la2":29.2853,"lo1":-89.7004,"lo2":-87.6739,"dy":0.0162,"dx":0.0183,"nx":112,"ny":82,"refTime":"2023-07-18T06:00:00:Z","depth":0,"parameterNumber":3,"parameterNumberName":"V-component_of_WINDS"},"data":[0.0,0.0,0.0,0.0,0.0,0.0,0.0,0.0,0.0,0.0,0.0,0.0,0.0,0.0,0.0,0.0,0.0,0.0,0.0,0.0,0.0,0.0,0.0,0.0,0.0,0.0,0.0,0.0,0.0,0.0,0.0,0.0,0.0,0.0,0.0,0.0,0.0,0.0,0.0,0.0,0.0,0.0,0.0,0.0,0.0,0.0,0.0,0.0,0.0,0.0,0.0,0.0,0.0,0.0,0.0,0.0,0.0,0.0,0.0,0.0,0.0,0.0,0.0,0.0,0.0,0.0,0.0,0.0,0.0,0.0,0.0,0.0,0.0,0.0,0.0,0.0,0.0,0.0,0.0,0.0,0.0,0.0,0.0,0.0,0.0,0.0,0.0,0.0,0.0,0.0,-2.0566,-2.0566,-2.0566,-2.0566,-2.0566,-2.0566,-2.1001,-2.1952,0.0,0.0,0.0,0.0,0.0,0.0,0.0,0.0,0.0,0.0,0.0,0.0,0.0,0.0,0.0,0.0,0.0,0.0,0.0,0.0,0.0,0.0,0.0,0.0,0.0,0.0,0.0,0.0,0.0,0.0,0.0,0.0,0.0,0.0,0.0,0.0,0.0,0.0,0.0,0.0,0.0,0.0,0.0,0.0,0.0,0.0,0.0,0.0,0.0,0.0,0.0,0.0,0.0,0.0,0.0,0.0,0.0,0.0,0.0,0.0,0.0,0.0,0.0,0.0,0.0,0.0,0.0,0.0,0.0,0.0,0.0,0.0,0.0,0.0,0.0,0.0,0.0,0.0,0.0,0.0,0.0,0.0,0.0,0.0,0.0,0.0,0.0,0.0,0.0,0.0,0.0,0.0,0.0,0.0,0.0,0.0,0.0,0.0,0.0,0.0,0.0,0.0,0.0,0.0,-2.0566,-2.0566,-2.0566,-2.0566,-2.0566,-2.0566,-2.1001,-2.1952,0.0,0.0,0.0,0.0,0.0,0.0,0.0,0.0,0.0,0.0,0.0,0.0,0.0,0.0,0.0,0.0,0.0,0.0,0.0,0.0,0.0,0.0,0.0,0.0,0.0,0.0,0.0,0.0,0.0,0.0,0.0,0.0,0.0,0.0,0.0,0.0,0.0,0.0,0.0,0.0,0.0,0.0,0.0,0.0,0.0,0.0,0.0,0.0,0.0,0.0,0.0,0.0,0.0,0.0,0.0,0.0,0.0,0.0,0.0,0.0,0.0,0.0,0.0,0.0,0.0,0.0,0.0,0.0,0.0,0.0,0.0,0.0,0.0,0.0,0.0,0.0,0.0,0.0,0.0,0.0,0.0,0.0,0.0,0.0,0.0,0.0,0.0,0.0,0.0,0.0,0.0,0.0,0.0,0.0,0.0,0.0,0.0,0.0,0.0,0.0,0.0,0.0,0.0,-2.0566,-2.0566,-2.0566,-2.0566,-2.0566,-2.0566,-2.0566,-2.1231,-2.2702,-2.322,0.0,0.0,0.0,0.0,0.0,0.0,0.0,0.0,0.0,0.0,0.0,0.0,0.0,0.0,0.0,0.0,0.0,0.0,0.0,0.0,0.0,0.0,0.0,0.0,0.0,0.0,0.0,0.0,0.0,0.0,0.0,0.0,0.0,0.0,0.0,0.0,0.0,0.0,0.0,0.0,0.0,0.0,0.0,0.0,0.0,0.0,0.0,0.0,0.0,0.0,0.0,0.0,0.0,0.0,0.0,0.0,0.0,0.0,0.0,0.0,0.0,0.0,0.0,0.0,0.0,0.0,0.0,0.0,0.0,0.0,0.0,0.0,0.0,0.0,0.0,0.0,0.0,0.0,0.0,0.0,0.0,0.0,0.0,0.0,0.0,0.0,0.0,0.0,0.0,0.0,0.0,0.0,0.0,0.0,0.0,0.0,0.0,0.0,0.0,0.0,0.0,0.0,-2.0566,-2.0566,-2.0566,-2.0566,-2.0566,-2.0566,-2.0789,-2.168,-2.3368,-2.3745,0.0,0.0,0.0,0.0,0.0,0.0,0.0,0.0,0.0,0.0,0.0,0.0,0.0,0.0,0.0,0.0,0.0,0.0,0.0,0.0,0.0,0.0,0.0,0.0,0.0,0.0,0.0,0.0,0.0,0.0,0.0,0.0,0.0,0.0,0.0,0.0,0.0,0.0,0.0,0.0,0.0,0.0,0.0,0.0,0.0,0.0,0.0,0.0,0.0,0.0,0.0,0.0,0.0,0.0,0.0,0.0,0.0,0.0,0.0,0.0,0.0,0.0,0.0,0.0,0.0,0.0,0.0,0.0,0.0,0.0,0.0,0.0,0.0,0.0,0.0,0.0,0.0,0.0,0.0,0.0,0.0,0.0,0.0,0.0,0.0,0.0,0.0,0.0,0.0,0.0,0.0,0.0,0.0,0.0,0.0,0.0,0.0,0.0,0.0,0.0,0.0,0.0,-2.0566,-2.0566,-2.0566,-2.0566,-2.0566,-2.0566,-2.1375,-2.2328,-2.3441,-2.442,0.0,0.0,0.0,0.0,0.0,0.0,0.0,0.0,0.0,0.0,0.0,0.0,0.0,0.0,0.0,0.0,0.0,0.0,0.0,0.0,0.0,0.0,0.0,0.0,0.0,0.0,0.0,0.0,0.0,0.0,0.0,0.0,0.0,0.0,0.0,0.0,0.0,0.0,0.0,0.0,0.0,0.0,0.0,0.0,0.0,0.0,0.0,0.0,0.0,0.0,0.0,0.0,0.0,0.0,0.0,0.0,0.0,0.0,0.0,0.0,0.0,0.0,0.0,0.0,0.0,0.0,0.0,0.0,0.0,0.0,0.0,0.0,0.0,0.0,0.0,0.0,0.0,0.0,0.0,0.0,0.0,0.0,0.0,0.0,0.0,0.0,0.0,0.0,0.0,0.0,0.0,0.0,0.0,0.0,0.0,0.0,0.0,0.0,0.0,0.0,0.0,0.0,-2.0566,-2.0566,-2.0566,-2.0566,-2.0566,-2.0566,-2.1451,-2.2403,-2.3441,0.0,0.0,0.0,0.0,0.0,0.0,0.0,0.0,0.0,0.0,0.0,0.0,0.0,0.0,0.0,0.0,0.0,0.0,0.0,0.0,0.0,0.0,0.0,0.0,0.0,0.0,0.0,0.0,0.0,0.0,0.0,0.0,0.0,0.0,0.0,0.0,0.0,0.0,0.0,0.0,0.0,0.0,0.0,0.0,0.0,0.0,0.0,0.0,0.0,0.0,0.0,0.0,0.0,0.0,0.0,0.0,0.0,0.0,0.0,0.0,0.0,0.0,0.0,0.0,0.0,0.0,0.0,0.0,0.0,0.0,0.0,0.0,0.0,0.0,0.0,0.0,0.0,0.0,0.0,0.0,0.0,0.0,0.0,0.0,0.0,0.0,0.0,0.0,0.0,0.0,0.0,0.0,0.0,0.0,0.0,0.0,0.0,0.0,0.0,0.0,0.0,0.0,-2.1088,-2.1001,-2.0934,-2.0644,-2.0857,-2.1001,-2.1001,-2.2188,-2.322,-2.3963,0.0,0.0,0.0,0.0,0.0,0.0,0.0,0.0,0.0,0.0,0.0,0.0,0.0,0.0,0.0,0.0,0.0,0.0,0.0,0.0,0.0,0.0,0.0,0.0,0.0,0.0,0.0,0.0,0.0,0.0,0.0,0.0,0.0,0.0,0.0,0.0,0.0,0.0,0.0,0.0,0.0,0.0,0.0,0.0,0.0,0.0,0.0,0.0,0.0,0.0,0.0,0.0,0.0,0.0,0.0,0.0,0.0,0.0,0.0,0.0,0.0,0.0,0.0,0.0,0.0,0.0,0.0,0.0,0.0,0.0,0.0,0.0,0.0,0.0,0.0,0.0,0.0,0.0,0.0,0.0,0.0,0.0,0.0,0.0,0.0,0.0,0.0,0.0,0.0,0.0,0.0,0.0,0.0,0.0,0.0,0.0,0.0,0.0,0.0,0.0,0.0,0.0,-2.2178,-2.2027,-2.1659,-2.0712,-2.1431,-2.2017,-2.2017,-2.3795,-2.4992,0.0,0.0,0.0,0.0,0.0,0.0,0.0,0.0,0.0,0.0,0.0,0.0,0.0,0.0,0.0,0.0,0.0,0.0,0.0,0.0,0.0,0.0,0.0,0.0,0.0,0.0,0.0,0.0,0.0,0.0,0.0,0.0,0.0,0.0,0.0,0.0,0.0,0.0,0.0,0.0,0.0,0.0,0.0,0.0,0.0,0.0,0.0,0.0,0.0,0.0,0.0,0.0,0.0,0.0,0.0,0.0,0.0,0.0,0.0,0.0,0.0,0.0,0.0,0.0,0.0,0.0,0.0,0.0,0.0,0.0,0.0,0.0,0.0,0.0,0.0,0.0,0.0,0.0,0.0,0.0,0.0,0.0,0.0,0.0,0.0,0.0,0.0,0.0,0.0,0.0,0.0,0.0,0.0,0.0,0.0,0.0,0.0,0.0,0.0,0.0,0.0,0.0,0.0,-2.3073,-2.2703,-2.2422,-2.2131,-2.1973,-2.192,-2.192,-2.311,-2.3819,-2.3819,0.0,0.0,0.0,0.0,0.0,0.0,0.0,0.0,0.0,0.0,0.0,0.0,0.0,0.0,0.0,0.0,0.0,0.0,0.0,0.0,0.0,0.0,0.0,0.0,0.0,0.0,0.0,0.0,0.0,0.0,0.0,0.0,0.0,0.0,0.0,0.0,0.0,0.0,0.0,0.0,0.0,0.0,0.0,0.0,0.0,0.0,0.0,0.0,0.0,0.0,0.0,0.0,0.0,0.0,0.0,0.0,0.0,0.0,0.0,0.0,0.0,0.0,0.0,0.0,0.0,0.0,0.0,0.0,0.0,0.0,0.0,0.0,0.0,0.0,0.0,0.0,0.0,0.0,0.0,0.0,0.0,0.0,0.0,0.0,0.0,0.0,0.0,0.0,0.0,0.0,0.0,0.0,0.0,0.0,0.0,0.0,0.0,0.0,0.0,0.0,0.0,0.0,-2.381,-2.3303,-2.2774,-2.2425,-2.2433,-2.2457,-2.2457,-2.3356,-2.3911,-2.3911,0.0,0.0,0.0,0.0,0.0,0.0,0.0,0.0,0.0,0.0,0.0,0.0,0.0,0.0,0.0,0.0,0.0,0.0,0.0,0.0,0.0,0.0,0.0,0.0,0.0,0.0,0.0,0.0,0.0,0.0,0.0,0.0,0.0,0.0,0.0,0.0,0.0,0.0,0.0,0.0,0.0,0.0,0.0,0.0,0.0,0.0,0.0,0.0,0.0,0.0,0.0,0.0,0.0,0.0,0.0,0.0,0.0,0.0,0.0,0.0,0.0,0.0,0.0,0.0,0.0,0.0,0.0,0.0,0.0,0.0,0.0,0.0,0.0,0.0,0.0,0.0,0.0,0.0,0.0,0.0,0.0,0.0,0.0,0.0,0.0,0.0,0.0,0.0,0.0,0.0,0.0,0.0,0.0,0.0,0.0,0.0,0.0,0.0,0.0,0.0,0.0,0.0,-2.4438,-2.3776,-2.3007,-2.2196,-2.2826,-2.3268,-2.3268,-2.4168,-2.4721,-2.4721,0.0,0.0,0.0,0.0,0.0,0.0,0.0,0.0,0.0,0.0,0.0,0.0,0.0,0.0,0.0,0.0,0.0,0.0,0.0,0.0,0.0,0.0,0.0,0.0,0.0,0.0,0.0,0.0,0.0,0.0,0.0,0.0,0.0,0.0,0.0,0.0,0.0,0.0,0.0,0.0,0.0,0.0,0.0,0.0,0.0,0.0,0.0,0.0,0.0,0.0,0.0,0.0,0.0,0.0,0.0,0.0,0.0,0.0,0.0,0.0,-2.25,-2.2646,0.0,0.0,0.0,0.0,0.0,0.0,0.0,0.0,0.0,0.0,0.0,0.0,0.0,0.0,0.0,0.0,0.0,0.0,0.0,0.0,0.0,0.0,0.0,0.0,0.0,0.0,0.0,0.0,0.0,0.0,0.0,0.0,0.0,0.0,0.0,0.0,0.0,0.0,0.0,0.0,-2.5319,-2.4422,-2.3763,-2.356,-2.3306,-2.3158,-2.3158,-2.3888,-2.4439,-2.4439,-2.494,0.0,0.0,0.0,0.0,0.0,0.0,0.0,0.0,0.0,0.0,0.0,0.0,0.0,0.0,0.0,0.0,0.0,0.0,0.0,0.0,0.0,0.0,0.0,0.0,0.0,0.0,0.0,0.0,0.0,0.0,0.0,0.0,0.0,0.0,0.0,0.0,0.0,0.0,0.0,0.0,0.0,0.0,0.0,0.0,0.0,0.0,0.0,0.0,0.0,0.0,0.0,0.0,0.0,0.0,0.0,0.0,0.0,0.0,0.0,-2.2021,-2.2438,0.0,0.0,0.0,0.0,0.0,0.0,0.0,0.0,0.0,0.0,0.0,0.0,0.0,0.0,0.0,0.0,0.0,0.0,0.0,0.0,0.0,0.0,0.0,0.0,0.0,0.0,0.0,0.0,0.0,0.0,0.0,0.0,0.0,0.0,0.0,0.0,0.0,0.0,0.0,0.0,-2.4858,-2.4104,-2.359,-2.359,-2.3314,-2.3258,-2.3649,-2.406,-2.4452,-2.4794,-2.5175,0.0,0.0,0.0,0.0,0.0,0.0,0.0,0.0,0.0,0.0,0.0,0.0,0.0,0.0,0.0,0.0,0.0,0.0,0.0,0.0,0.0,0.0,0.0,0.0,0.0,0.0,0.0,0.0,0.0,0.0,0.0,0.0,0.0,0.0,0.0,0.0,0.0,0.0,0.0,0.0,0.0,0.0,0.0,0.0,0.0,0.0,0.0,0.0,0.0,0.0,0.0,0.0,0.0,-2.1699,-2.166,-2.166,-2.166,-2.1465,-2.1143,-2.1656,-2.2382,-2.3127,-2.2544,0.0,0.0,0.0,0.0,0.0,0.0,0.0,0.0,0.0,0.0,0.0,0.0,0.0,0.0,0.0,0.0,0.0,0.0,0.0,0.0,0.0,0.0,-3.0329,-2.9628,-3.0011,-3.0329,-2.9566,0.0,0.0,0.0,0.0,0.0,0.0,0.0,0.0,0.0,0.0,0.0,-2.4067,-2.3611,-2.3305,-2.3305,-2.3412,-2.3767,-2.4452,-2.4624,-2.4951,-2.5563,-2.5728,-2.6054,0.0,0.0,0.0,0.0,0.0,0.0,0.0,0.0,0.0,0.0,0.0,0.0,0.0,0.0,0.0,0.0,0.0,0.0,0.0,0.0,0.0,0.0,0.0,0.0,0.0,0.0,0.0,0.0,0.0,0.0,0.0,0.0,-2.4909,-2.3806,0.0,0.0,0.0,0.0,0.0,0.0,0.0,0.0,0.0,0.0,0.0,0.0,0.0,-2.1318,-2.1318,-2.1318,-2.1318,-2.1318,-2.0928,-2.0742,-2.0742,-2.0742,-2.0713,-2.0732,-2.1604,0.0,-2.2825,-2.3601,0.0,0.0,0.0,0.0,0.0,0.0,0.0,0.0,0.0,0.0,0.0,0.0,0.0,0.0,0.0,0.0,0.0,0.0,0.0,0.0,0.0,0.0,-3.1278,-3.1219,-3.1278,-3.1278,-3.1219,-2.995,-2.8661,-2.8077,-2.7354,-2.6791,0.0,0.0,0.0,0.0,0.0,0.0,-2.4067,-2.4082,-2.4118,-2.4118,-2.4724,-2.5119,-2.5231,-2.5837,-2.6229,-2.6336,-2.6982,-2.7357,-2.7458,-2.7548,0.0,0.0,0.0,0.0,0.0,0.0,0.0,0.0,0.0,0.0,0.0,0.0,0.0,0.0,0.0,0.0,0.0,0.0,0.0,0.0,0.0,0.0,0.0,0.0,0.0,0.0,0.0,0.0,0.0,-2.4517,-2.3147,-2.2702,-2.1811,-2.1078,0.0,0.0,0.0,0.0,0.0,0.0,0.0,0.0,0.0,-2.0566,-2.0752,-2.0859,-2.0859,-2.0859,-2.0859,-2.0859,-2.0654,-2.0566,-2.0566,-2.0566,-2.0857,-2.1441,-2.2403,-2.3268,-2.3999,-2.385,-2.4873,-2.6418,0.0,0.0,0.0,0.0,-2.6533,-2.6589,-2.7417,-2.8051,-2.8492,-2.8876,0.0,0.0,0.0,0.0,0.0,0.0,0.0,-3.1087,-3.1409,-3.1482,-3.1482,-3.1482,-3.1482,-3.1482,-3.1482,-3.0896,-3.0182,-2.9412,-2.8616,-2.7921,-2.734,-2.7405,0.0,0.0,0.0,-2.598,-2.5395,-2.5101,-2.4894,-2.4894,-2.5231,-2.5563,-2.596,-2.6283,-2.6669,-2.7086,-2.7408,-2.7625,-2.7625,-2.7625,-2.7625,0.0,0.0,0.0,0.0,0.0,0.0,0.0,0.0,0.0,0.0,0.0,0.0,0.0,0.0,0.0,0.0,0.0,0.0,0.0,0.0,0.0,0.0,0.0,0.0,0.0,0.0,0.0,0.0,-2.3514,-2.2253,-2.2027,-2.1155,-2.0566,0.0,0.0,0.0,0.0,0.0,0.0,-2.0566,-2.0323,-2.0323,-2.0566,-2.0566,-2.0566,-2.0566,-2.0566,-2.0566,-2.0566,-2.0566,-2.0566,-2.0644,-2.0857,-2.1375,-2.2103,-2.3368,-2.4337,-2.4933,-2.448,-2.5134,-2.6452,-2.5664,-2.5873,-2.6533,-2.6533,-2.6658,-2.6905,-2.7736,-2.862,-2.938,-2.9566,-3.0072,-3.0584,-3.0584,0.0,0.0,0.0,0.0,-3.1482,-3.1482,-3.1482,-3.1482,-3.1482,-3.1482,-3.1482,-3.1482,-3.1482,-3.1291,-3.0484,-2.9708,-2.8879,-2.8197,-2.8515,0.0,-2.7363,-2.7353,-2.7211,-2.6507,-2.6134,-2.5855,-2.5687,-2.5837,-2.6162,-2.6721,-2.6774,-2.7049,-2.7575,-2.7625,-2.7625,-2.7625,-2.7625,-2.7625,-2.7625,0.0,0.0,0.0,0.0,0.0,0.0,0.0,0.0,0.0,0.0,0.0,0.0,0.0,0.0,0.0,0.0,0.0,0.0,0.0,0.0,0.0,0.0,0.0,0.0,0.0,0.0,0.0,0.0,0.0,-2.2103,-2.1155,0.0,0.0,0.0,0.0,-2.0566,-1.9678,-1.952,-2.0566,-1.9599,-1.952,-2.0566,-2.0566,-2.0566,-2.0566,-2.0566,-2.0566,-2.0566,-2.0566,-2.0566,-2.0644,-2.1517,-2.1952,-2.2103,-2.4036,-2.4933,-2.5087,-2.5955,-2.6383,-2.6452,-2.6452,-2.6452,-2.6533,-2.6533,-2.6973,-2.7736,-2.862,-2.9504,-3.0329,-3.1146,-3.1409,-3.1409,-3.1409,-3.1467,0.0,0.0,-3.1482,-3.1482,-3.1482,-3.1482,-3.1482,-3.1482,-3.1482,-3.1482,-3.1482,-3.1482,-3.1287,-3.0615,-2.9884,-2.9333,-2.9244,0.0,-2.8194,-2.8166,-2.8138,-2.7755,-2.6563,-2.6961,-2.7173,-2.6515,-2.7086,-2.7509,-2.756,-2.756,-2.756,-2.7625,-2.7625,-2.7625,-2.7625,-2.7625,-2.7625,-2.7625,-2.7625,0.0,0.0,0.0,0.0,0.0,0.0,0.0,0.0,0.0,0.0,0.0,0.0,0.0,0.0,0.0,0.0,0.0,0.0,0.0,0.0,0.0,0.0,0.0,0.0,0.0,0.0,0.0,0.0,-2.1221,-2.0779,0.0,-2.0566,-2.0566,-2.0566,-2.0566,-2.0245,-2.0167,-2.0566,-2.0245,-2.0167,-2.0566,-2.0566,-2.0566,-2.0566,-2.0566,-2.0566,-2.0566,-2.0566,-2.0718,-2.1012,-2.13,-2.2002,-2.2912,-2.3559,-2.4278,-2.492,-2.5265,-2.5824,-2.6533,-2.6533,-2.6533,-2.6589,-2.7095,-2.7484,-2.792,-2.9317,-3.0011,-3.045,-3.1219,-3.1482,-3.1482,-3.1482,-3.1482,-3.1482,-3.1482,-3.1482,-3.1482,-3.1482,-3.1482,-3.1482,-3.1482,-3.1482,-3.1482,-3.1482,-3.1482,-3.1407,-3.121,-3.0921,-3.0602,-3.0057,-3.0176,-3.0116,-2.9622,-2.9305,-2.8924,-2.8513,-2.7954,-2.7454,-2.7218,-2.7458,-2.7625,-2.7625,-2.7625,-2.7625,-2.7625,-2.7625,-2.7625,-2.7625,-2.7625,-2.776,-2.8189,-2.8189,-2.8286,0.0,0.0,0.0,0.0,0.0,0.0,0.0,0.0,0.0,0.0,0.0,0.0,0.0,0.0,0.0,0.0,0.0,0.0,0.0,0.0,0.0,0.0,0.0,0.0,0.0,-2.2783,-2.1807,-2.0495,-2.0225,-2.0137,-2.0137,-2.0137,-2.0137,-2.0137,-2.0137,-2.0137,-2.0137,-2.0137,-2.0137,-2.0137,-2.0137,-2.0137,-2.0137,-2.0137,-2.0137,-2.0137,-2.042,-2.0775,-2.1042,-2.1607,-2.2419,-2.3344,-2.3634,-2.4186,-2.482,-2.482,-2.5259,-2.5967,-2.6209,-2.633,-2.6396,-2.7207,-2.7642,-2.8083,-2.9561,-3.0061,-3.0134,-3.0696,-3.0881,-3.0881,-3.0881,-3.0881,-3.0881,-3.0881,-3.0881,-3.0881,-3.0881,-3.0881,-3.0881,-3.0881,-3.0881,-3.0881,-3.0881,-3.0881,-3.0881,-3.0881,-3.124,-3.1351,-3.0777,-3.1161,-3.1351,-3.0777,-3.0229,-2.9819,-2.9609,-2.8607,-2.7829,-2.764,-2.7625,-2.7625,-2.7625,-2.7625,-2.766,-2.7894,-2.791,-2.7993,-2.8222,-2.7993,-2.8189,-2.8779,-2.8996,-2.9012,-2.8779,0.0,0.0,0.0,0.0,0.0,0.0,0.0,0.0,0.0,0.0,0.0,0.0,0.0,0.0,0.0,0.0,0.0,0.0,0.0,0.0,0.0,0.0,0.0,-2.3693,-2.3149,-2.2132,-2.0183,-1.9531,-1.9287,-1.9287,-1.9287,-1.9287,-1.9287,-1.9287,-1.9287,-1.9287,-1.9287,-1.9287,-1.9287,-1.9287,-1.9287,-1.9287,-1.9287,-1.9287,-1.936,-2.0186,-2.0592,-2.0723,-2.2502,-2.3254,-2.3364,-2.4344,-2.477,-2.477,-2.477,-2.477,-2.4886,-2.5608,-2.5906,-2.5968,-2.6734,-2.7591,-2.8453,-2.9277,-2.9579,-2.9579,-2.9579,-2.9579,-2.9579,-2.9579,-2.9579,-2.9579,-2.9579,-2.9579,-2.9579,-2.9579,-2.9579,-2.9579,-2.9579,-2.9579,-2.9579,-2.9579,-2.9579,-2.9579,-2.9579,-3.0612,-3.1422,-3.1422,-3.1422,-3.1422,-3.1422,-3.0881,0.0,-2.9624,-2.8966,-2.8308,-2.7685,-2.7625,-2.7625,-2.7625,-2.7625,-2.791,-2.8511,-2.8511,-2.8779,-2.9361,-2.8826,-2.8826,-2.9406,-2.9978,-3.0038,-2.9483,0.0,0.0,0.0,0.0,0.0,0.0,0.0,0.0,0.0,0.0,0.0,0.0,0.0,0.0,0.0,0.0,0.0,0.0,0.0,0.0,0.0,-2.6269,-2.46,-2.3475,-2.2754,-2.1761,-2.0576,-1.9783,-1.9287,-1.9287,-1.9287,-1.9287,-1.9287,-1.9287,-1.9287,-1.9287,-1.9287,-1.9287,-1.9287,-1.9287,-1.9287,-1.9287,-1.9287,-1.964,-2.0257,-2.0471,-2.1112,-2.1987,-2.2514,-2.2907,-2.3195,-2.3467,-2.3602,-2.3602,-2.3602,-2.3895,-2.4562,-2.5542,-2.5906,-2.6091,-2.7415,-2.8495,-2.9277,-2.9525,-2.9579,-2.9579,-2.9579,-2.9579,-2.9579,-2.9579,-2.9579,-2.9579,-2.9579,-2.9579,-2.9579,-2.9579,-2.9579,-2.9579,-2.9579,-2.9579,-2.9579,-2.9579,-2.9579,-2.9579,-2.9579,-2.9864,-3.0118,-3.0118,-3.0118,-3.0118,-3.0118,-2.9549,-2.9056,-2.8891,-2.8278,-2.7784,-2.764,-2.7625,-2.776,-2.8238,-2.8238,-2.8511,-2.9088,-2.9134,-2.9225,-2.9406,-2.9225,-2.9451,-3.0021,-3.0208,-3.0455,0.0,0.0,0.0,0.0,0.0,0.0,0.0,0.0,0.0,0.0,0.0,0.0,0.0,0.0,0.0,0.0,0.0,0.0,0.0,0.0,0.0,0.0,-2.6047,-2.4545,-2.3384,-2.2686,-2.1801,-2.0449,-1.9745,-1.9153,-1.8821,-1.875,-1.875,-1.875,-1.875,-1.875,-1.875,-1.875,-1.875,-1.875,-1.875,-1.875,-1.875,-1.875,-1.9153,-2.0038,-2.0439,-2.1152,-2.2254,-2.2582,-2.2862,-2.3078,-2.3078,-2.3305,-2.359,-2.359,-2.4047,-2.4791,0.0,0.0,0.0,0.0,-2.8326,-2.8742,-2.8742,-2.8742,-2.8742,-2.8742,-2.8742,-2.8742,-2.8742,-2.8742,-2.8742,-2.8742,-2.8742,-2.8742,-2.8742,-2.8742,-2.8742,-2.8742,-2.8742,-2.8742,-2.8742,-2.8742,-2.8847,-2.9091,-2.9143,0.0,-2.9454,-2.9546,-2.9579,-2.9579,-2.926,-2.8976,-2.8976,-2.8602,-2.8352,-2.8352,-2.8352,-2.8496,-2.8826,-2.8873,0.0,0.0,0.0,-2.9761,-2.9761,-3.0021,0.0,0.0,0.0,-3.1049,-3.1766,-3.2517,0.0,0.0,-3.3649,-3.439,0.0,0.0,0.0,0.0,0.0,0.0,0.0,0.0,0.0,0.0,0.0,0.0,0.0,0.0,0.0,0.0,-2.572,-2.4695,-2.3441,-2.3034,-2.2221,-2.0361,-1.9617,-1.8977,-1.8202,-1.8076,-1.8008,-1.8008,-1.8008,-1.8008,-1.8008,-1.8008,0.0,0.0,0.0,-1.8144,-1.8144,-1.8269,-1.8721,-1.9628,-2.0398,-2.1164,-2.2063,-2.275,-2.3078,-2.3078,-2.3078,-2.3543,-2.4292,-2.4292,-2.4794,-2.5508,-2.5508,-2.5946,-2.6721,-2.7357,-2.7625,-2.7625,-2.7625,0.0,0.0,-2.7625,-2.7625,-2.7625,-2.7625,-2.7675,-2.766,-2.7625,-2.771,-2.781,-2.771,-2.776,-2.7795,-2.7795,-2.7795,-2.7795,-2.7795,-2.7795,-2.7944,-2.8511,-2.8606,-2.8779,-2.9316,-2.9518,-2.9554,-2.9554,-2.9526,-2.9508,-2.9508,-2.9437,-2.9406,-2.9406,-2.9406,0.0,-2.9496,-2.9496,-2.9761,-3.0335,-3.0393,-3.0393,-3.0393,-3.0918,-3.0958,-3.0435,-3.0918,-3.1596,-3.2408,-3.3085,-3.3838,-3.4643,-3.4695,-3.5155,0.0,0.0,0.0,0.0,0.0,0.0,0.0,0.0,0.0,0.0,0.0,0.0,0.0,0.0,0.0,-2.7379,-2.6176,-2.503,-2.4189,-2.4021,-2.3346,-2.1694,-2.0194,-1.9243,-1.9044,-1.8395,-1.8008,-1.8008,-1.8008,-1.8008,-1.8008,-1.8008,-1.8008,-1.8008,-1.8654,-1.9044,-1.9044,-1.9759,-2.0526,-2.1428,-2.1553,0.0,-2.2884,-2.3005,-2.3078,-2.3078,-2.3078,-2.3543,-2.4292,-2.4292,-2.5063,-2.6283,-2.6283,-2.6721,-2.7408,-2.7575,-2.7625,-2.7625,-2.7625,-2.7625,-2.7625,-2.7625,-2.7625,-2.7625,-2.7625,-2.7959,0.0,-2.771,-2.8304,-2.895,-2.8463,-2.8685,-2.9042,-2.9042,-2.9042,-2.9042,-2.9042,-2.9042,-2.9088,-2.918,-2.9225,-2.9271,-2.9361,-2.9402,-2.9453,-2.9453,-2.9419,-2.9432,-2.9432,-2.9396,-2.9406,-2.9406,-2.9406,-2.9585,-3.0064,-3.0123,-3.0393,-3.0975,-3.1015,-3.1015,-3.1015,-3.1151,-3.1151,-3.1015,-3.1151,-3.185,-3.3186,-3.3339,-3.4083,-3.5385,-3.5408,-3.6158,0.0,0.0,0.0,0.0,0.0,0.0,0.0,0.0,0.0,0.0,0.0,-3.082,-3.0092,0.0,-2.7808,-2.7083,-2.6429,-2.5563,-2.4452,-2.4292,-2.3682,-2.2063,-2.1101,-2.0268,-1.9365,-1.8911,-1.8462,-1.8008,-1.8008,-1.8008,-1.8008,-1.8008,-1.8008,-1.8008,-1.8854,-1.9299,-1.9299,-2.0139,-2.1049,-2.1877,-2.1877,-2.2322,-2.3078,-2.3078,-2.3078,-2.3138,-2.3543,-2.4163,-2.4894,-2.5659,-2.6375,-2.7034,-2.7034,-2.7306,-2.7625,-2.7625,-2.7625,-2.7625,-2.7625,-2.781,-2.8042,-2.8042,-2.8271,-2.8496,-2.8496,-2.8732,-2.8873,-2.8591,-2.895,-2.9316,-2.9012,-2.918,-2.9406,-2.9406,-2.9406,-2.9406,-2.9406,-2.9406,-2.9496,-2.9805,-2.9848,-2.9951,-3.0251,-3.0293,-3.0123,-2.9496,-2.9673,-2.9848,-2.9848,-3.0123,-3.0293,-3.0293,-3.0293,-3.0435,-3.0699,-3.074,-3.0878,-3.119,-3.119,-3.119,-3.119,-3.119,-3.119,-3.119,-3.119,-3.1749,-3.2874,-3.3228,-3.3981,-3.5082,-3.5442,-3.6231,0.0,0.0,0.0,0.0,0.0,0.0,0.0,0.0,-3.3585,-3.2529,-3.1794,-3.105,-2.9895,-2.9051,-2.8203,-2.7055,-2.6811,-2.6229,-2.4894,-2.4624,-2.3975,-2.2543,-2.2063,-2.1365,-1.9944,-1.9628,-1.9243,-1.8596,-1.8529,-1.8462,-1.8269,-1.8395,-1.8462,-1.8269,-1.9243,-1.9824,-1.9824,-2.0655,-2.1428,-2.2137,-2.2137,-2.2445,-2.3138,-2.3245,-2.3305,-2.3365,-2.4337,-2.5063,-2.5728,-2.7034,-2.7625,-2.7625,-2.7625,-2.7625,-2.7625,-2.7625,-2.7625,-2.7625,-2.771,-2.8091,-2.8511,-2.8654,-2.8996,-2.9406,-2.9406,-2.9496,-2.954,-2.9451,-2.9585,-2.9717,-2.9629,-2.9673,-2.9761,-2.9761,-2.9761,-2.9761,-2.9761,-2.9761,-2.9892,-3.0393,-3.0477,-3.0617,-3.1112,-3.119,-3.0878,-2.9892,-3.0166,-3.0477,-3.0477,-3.0878,-3.119,-3.119,-3.119,-3.119,-3.119,-3.119,-3.119,-3.119,-3.119,-3.119,-3.119,-3.119,-3.119,-3.119,-3.119,-3.154,-3.2309,-3.2889,-3.3634,-3.4499,-3.5116,-3.5887,-3.5558,-3.5398,-3.5225,-3.52,-3.4832,-3.4327,0.0,0.0,-3.3027,-3.2067,-3.1397,-3.0814,-3.0307,-2.9307,-2.846,-2.8319,-2.7845,-2.7188,-2.639,-2.5673,-2.4951,-2.4105,-2.2786,-2.1815,-2.1628,-2.091,-2.0398,-2.0333,-2.0333,-1.9944,-1.9177,-1.9879,-1.9944,-1.9177,-2.0719,-2.1616,-2.1616,-2.2433,-2.2884,-2.2944,-2.2944,-2.3017,-2.3138,-2.3826,-2.4176,-2.4234,-2.5673,-2.6283,-2.6443,-2.7255,-2.7625,-2.7625,-2.7625,-2.7625,-2.7625,-2.7625,-2.7625,-2.7675,-2.8222,-2.8415,-2.8606,-2.915,-2.9361,-2.9406,-2.9406,-2.9761,-3.0081,-2.954,-3.0166,-3.0878,-3.0335,-3.0617,-3.1015,-3.1015,-3.1015,-3.1015,-3.1015,-3.1015,-3.1015,-3.1095,-3.1112,-3.1112,-3.119,-3.119,-3.1151,-3.1015,-3.1055,-3.1112,-3.1112,-3.1151,-3.119,-3.119,-3.119,-3.119,-3.119,-3.119,-3.119,-3.119,-3.119,-3.119,-3.119,-3.119,-3.119,-3.119,-3.119,-3.1562,-3.229,-3.2384,-3.3119,-3.4482,-3.4594,-3.538,-3.5625,-3.5603,-3.5522,-3.5503,-3.518,-3.4736,-3.4231,-3.3753,-3.3245,-3.2567,-3.1634,-3.0858,-3.067,-2.974,-2.8919,-2.8559,-2.8286,-2.773,-2.6654,-2.6229,-2.5618,-2.4452,-2.3682,-2.2907,-2.2002,-2.1553,-2.1175,-2.0655,-2.059,-2.0462,-2.0074,-2.0398,-2.0398,-2.0074,-2.1239,-2.1877,-2.1877,-2.2702,-2.3078,-2.3078,-2.3078,-2.3365,-2.3826,-2.4176,-2.4794,-2.5618,-2.6229,-2.6721,-2.7152,-2.7458,-2.7625,-2.761,-2.7993,-2.814,-2.8091,-2.771,-2.7625,-2.766,-2.8286,-2.8732,-2.9134,-2.9717,-3.0166,-3.0435,-3.0435,-3.0601,-3.0781,-3.0518,-3.0797,-3.1151,-3.0878,-3.1015,-3.119,-3.119,-3.119,-3.119,-3.119,-3.119,-3.119,-3.119,-3.119,-3.119,-3.119,-3.119,-3.119,-3.119,-3.119,-3.119,-3.119,-3.119,-3.119,-3.119,-3.119,-3.119,-3.119,-3.119,-3.119,-3.119,-3.119,-3.119,-3.119,-3.1411,-3.1449,-3.119,-3.1449,-3.1602,-3.1647,-3.2083,-3.2751,-3.3634,-3.4051,-3.4987,-3.5507,-3.5581,-3.5603,-3.5681,-3.546,-3.513,-3.477,-3.4292,-3.3765,-3.3221,-3.2317,-3.1528,-3.1206,-3.041,-2.9581,-2.8857,-2.8606,-2.811,-2.6967,-2.6443,-2.5783,-2.4738,-2.4234,-2.3518,-2.231,-2.2261,-2.2002,-2.1353,-2.129,-2.1164,-2.0974,-2.1164,-2.1164,-2.0985,-2.1815,-2.2261,-2.2261,-2.2823,-2.3078,-2.3078,-2.3305,-2.3721,-2.4292,-2.4738,-2.5618,-2.6826,-2.6826,-2.71,-2.7625,-2.7625,-2.771,-2.7894,-2.8334,-2.8606,-2.8685,-2.8271,-2.8076,-2.8174,-2.8779,-2.9271,-2.9761,-3.0335,-3.0838,-3.119,-3.119,-3.119,-3.119,-3.119,-3.119,-3.119,-3.119,-3.119,-3.119,-3.119,-3.119,-3.119,-3.119,-3.119,-3.119,-3.119,-3.119,-3.119,-3.119,-3.119,-3.119,-3.119,-3.119,-3.119,-3.119,-3.119,-3.119,-3.119,-3.119,-3.119,-3.119,-3.119,-3.119,-3.119,-3.119,-3.1252,-3.1351,-3.166,-3.1733,-3.1562,-3.1842,-3.1842,-3.1562,-3.2081,-3.2633,-3.3179,-3.3716,-3.4565,-3.522,-3.5311,-3.5363,-3.5642,-3.549,-3.5274,-3.5194,-3.4961,-3.4525,-3.3751,-3.356,-3.3161,-3.1987,-3.1257,-3.0556,-2.9508,-2.8873,-2.8271,-2.766,-2.6322,-2.5398,-2.5342,-2.4047,-2.3138,-2.3078,-2.3078,-2.3065,-2.3005,-2.3005,-2.2689,-2.1877,-2.2628,-2.2689,-2.1877,-2.2628,-2.3078,-2.3078,-2.3078,-2.3078,-2.3138,-2.3884,-2.4292,-2.435,-2.5783,-2.6826,-2.7575,-2.7575,-2.7575,-2.7625,-2.7625,-2.7944,-2.8463,-2.8511,-2.8873,-2.9361,-2.9361,-2.9361,-2.9451,-3.0038,-3.0251,-3.0393,-3.0975,-3.119,-3.119,-3.119,-3.119,-3.119,-3.119,-3.119,-3.119,-3.119,-3.119,-3.119,-3.119,-3.119,-3.119,-3.119,-3.119,-3.119,-3.119,-3.119,-3.119,-3.119,-3.119,-3.119,-3.119,-3.119,-3.119,-3.119,-3.119,-3.119,-3.119,-3.119,-3.119,-3.119,-3.119,-3.119,-3.119,-3.119,-3.1372,-3.1752,-3.1789,-3.2004,-3.2451,-3.2484,-3.2484,-3.2451,-3.2496,-3.286,-3.3571,-3.3602,-3.4028,-3.445,-3.4725,-3.5045,-3.5369,-3.5327,-3.5298,-3.5493,-3.5297,-3.4995,-3.471,-3.4124,-3.3534,-3.3081,-3.2175,-3.1125,-2.9985,-2.9416,-2.8732,-2.776,-2.6759,-2.596,-2.5453,-2.4509,-2.3708,-2.3125,-2.3078,-2.3078,-2.3078,-2.3078,-2.3005,-2.2689,-2.2944,-2.3005,-2.2702,-2.2944,-2.3078,-2.3078,-2.3078,-2.3078,-2.3138,-2.4381,-2.5287,-2.5783,-2.6759,-2.7357,-2.7625,-2.7625,-2.7625,-2.7625,-2.7625,-2.7959,-2.8559,-2.8966,-2.9451,-3.0038,-3.0435,-3.0601,-3.0576,-3.0393,-3.0293,-3.0393,-3.1015,-3.119,-3.119,-3.119,-3.119,-3.119,-3.119,-3.119,-3.119,-3.119,-3.119,-3.119,-3.119,-3.119,-3.119,-3.119,-3.119,-3.119,-3.119,-3.119,-3.1291,-3.1528,-3.1603,-3.1696,-3.2021,-3.1562,-3.119,-3.119,-3.1449,-3.1603,-3.1603,-3.1878,-3.2056,-3.2056,-3.2056,-3.2056,-3.2056,-3.2056,-3.2109,-3.2264,-3.2565,-3.2681,-3.2517,-3.2809,-3.2809,-3.2484,-3.2511,-3.2789,-3.3319,-3.3336,-3.3888,-3.3559,-3.3892,-3.4226,-3.4751,-3.4832,-3.493,-3.5407,-3.5351,-3.5197,-3.5201,-3.4579,-3.3967,-3.371,-3.2782,-3.1683,-3.053,-2.9778,-2.9042,-2.8042,-2.6849,-2.596,-2.5453,-2.4253,-2.322,-2.2689,-2.2372,-2.2433,-2.3065,-2.2823,-2.2823,-2.3065,-2.3078,-2.3078,-2.3078,-2.3078,-2.3078,-2.3078,-2.3078,-2.3365,-2.393,-2.5161,-2.6176,-2.693,-2.7357,-2.7625,-2.7625,-2.7625,-2.7625,-2.7625,-2.781,-2.8271,-2.8873,-2.9496,-3.0081,-3.0658,-3.1055,-3.119,-3.1151,-3.0757,-3.0617,-3.0699,-3.1055,-3.119,-3.119,-3.119,-3.119,-3.119,-3.119,-3.119,-3.119,-3.119,-3.119,-3.119,-3.119,-3.119,-3.119,-3.119,-3.1329,-3.1389,-3.123,-3.1466,-3.1677,-3.1789,-3.1915,-3.2161,-3.2451,-3.2021,-3.1657,-3.1657,-3.1878,-3.2057,-3.2057,-3.2316,-3.2484,-3.2484,-3.2484,-3.2484,-3.2484,-3.2484,-3.2583,-3.2745,-3.3045,-3.3154,-3.2965,-3.3255,-3.3273,-3.2965,-3.2952,-3.3108,-3.3404,-3.3417,-3.3849,-3.2603,-3.2865,-3.3052,-3.3844,-3.4045,-3.4234,-3.4966,-3.5137,-3.5145,-3.5201,-3.4949,-3.4499,0.0,0.0,-3.2143,-3.1074,-3.0051,-2.918,-2.8559,-2.6701,-2.5398,0.0,0.0,0.0,0.0,-2.1014,-2.1192,-2.2834,-2.2298,-2.2249,-2.3027,-2.3027,-2.3075,-2.299,-2.299,-2.299,-2.299,-2.305,-2.3839,-2.5315,-2.6023,-2.6776,-2.752,-2.752,-2.752,-2.752,-2.752,-2.757,-2.7605,-2.8227,-2.8809,-2.9383,-3.0015,-3.0592,-3.114,-3.119,-3.119,-3.119,-3.119,-3.119,-3.119,-3.119,-3.119,-3.119,-3.119,-3.119,-3.119,-3.119,-3.119,-3.119,-3.119,-3.119,-3.119,-3.123,-3.123,-3.123,-3.1269,-3.1582,-3.1733,-3.1351,-3.195,-3.2366,-3.1951,-3.2264,-3.2583,-3.2583,-3.2583,-3.255,-3.2517,-3.2517,-3.255,-3.255,-3.255,-3.2583,-3.2583,-3.2583,-3.2583,-3.2583,-3.2583,-3.2777,-3.3214,-3.3243,-3.339,-3.3788,-3.3807,-3.3807,-3.3807,-3.3807,-3.3807,-3.3807,-3.3807,-3.3807,-3.2022,-3.2329,-3.2702,-3.3099,-3.3214,-3.3393,-3.4202,-3.4388,-3.4537,-3.5087,-3.4972,-3.4699,-3.4496,-3.3549,-3.2349,-3.0963,-2.9969,0.0,-2.7993,-2.6414,0.0,-2.5398,0.0,-2.1877,-2.1877,-2.0191,-1.9528,-2.065,-2.1466,-2.2091,-2.2477,-2.2523,-2.2334,-2.192,-2.1907,-2.1907,-2.1907,-2.2321,-2.3082,-2.4058,-2.4717,-2.5383,-2.6108,-2.6108,-2.6331,-2.6719,-2.6719,-2.6947,-2.7334,-2.7466,-2.7897,-2.8486,-2.919,-2.9842,-3.0446,-3.1004,-3.119,-3.119,-3.119,-3.119,-3.119,-3.119,-3.119,-3.119,-3.119,-3.119,-3.119,-3.119,-3.119,-3.119,-3.119,-3.119,-3.1291,-3.1565,-3.166,-3.1733,-3.2074,-3.2248,-3.2282,-3.2196,-3.2616,-3.2983,-3.2872,-3.3196,-3.3476,-3.3476,-3.3476,-3.3225,-3.2583,-3.2827,-3.3014,-3.3014,-3.3284,-3.3476,-3.3476,-3.3476,-3.3476,-3.3476,-3.3476,-3.3504,-3.3634,-3.3652,-3.3707,-3.3807,-3.3807,-3.3807,-3.3807,-3.3807,-3.3807,-3.3807,-3.3807,-3.3807,-3.1452,-3.1714,-3.2004,-3.2343,-3.2406,-3.2657,-3.3677,-3.3964,-3.4283,-3.5066,-3.508,-3.4931,-3.4969,-3.3829,-3.2532,0.0,0.0,0.0,-2.7685,-2.6293,-2.5161,0.0,-2.2394,0.0,-2.0517,-1.8828,-1.8124,-1.8986,-1.9784,-2.0442,-2.0948,-2.1287,-2.1326,-2.1031,-2.1313,-2.1493,-2.1493,-2.2159,-2.2844,-2.3602,-2.4284,-2.4936,-2.5615,-2.5615,-2.5771,-2.6032,-2.6032,-2.6332,-2.6844,-2.7142,-2.7599,-2.8184,-2.8832,-2.9302,-2.9668,-3.0074,-3.0226,-3.0226,-3.0226,-3.0226,-3.0277,-3.0615,-3.0717,-3.0666,-3.0328,-3.0343,-3.0458,-3.0458,-3.0568,-3.0695,-3.0695,-3.0972,-3.1321,-3.1533,-3.1847,-3.2161,-3.2451,-3.2648,-3.284,-3.3027,-3.3136,-3.3243,-3.3419,-3.3652,-3.3807,-3.3807,-3.3807,-3.3634,-3.3118,-3.3284,-3.3465,-3.3465,-3.368,-3.3807,-3.3807,-3.3807,-3.3807,-3.3807,-3.3807,-3.3807,-3.3807,-3.3807,-3.3807,-3.3807,-3.3807,-3.3807,-3.3807,-3.3807,-3.3807,-3.3807,-3.3807,-3.3807,-3.0975,-3.1151,-3.1252,-3.1531,-3.1699,-3.2109,-3.3247,-3.3739,-3.4213,-3.5109,-3.5197,-3.5134,-3.521,-3.3971,-3.2715,-3.1956,0.0,-2.8794,-2.746,-2.5966,-2.4493,-2.3065,-2.0848,-1.9171,-1.8427,-1.711,-1.6674,-1.7523,-1.7533,-1.7999,-1.914,-1.9796,-2.0177,-2.0151,-2.0909,-2.1255,-2.1255,-2.1979,-2.2708,-2.3354,-2.4091,-2.4736,-2.533,-2.533,-2.5377,-2.5423,-2.5515,-2.5847,-2.6404,-2.6965,-2.7508,-2.7987,-2.8589,-2.8822,-2.8839,-2.8941,-2.9011,-2.9011,-2.9011,-2.9047,-2.9149,-2.9736,-2.9956,-2.9837,-2.9178,-2.9211,-2.9437,-2.9488,-2.9754,-3.0043,-3.0074,-3.0702,-3.1317,-3.1381,-3.2016,-3.2616,-3.2681,-3.3014,-3.339,-3.3734,-3.3522,-3.339,-3.3734,-3.3807,-3.3807,-3.3807,-3.3807,-3.3807,-3.3807,-3.3807,-3.3807,-3.3807,-3.3807,-3.3807,-3.3807,-3.3807,-3.3807,-3.3807,-3.3807,-3.3807,-3.3807,-3.3807,-3.3807,-3.3807,-3.3807,-3.3807,-3.3807,-3.3807,-3.3807,-3.3807,-3.3807,-3.3807,-3.0559,-3.0838,-3.1095,-3.0666,-3.1172,-3.2004,-3.2823,-3.3351,0.0,0.0,-3.5146,-3.5058,-3.4908,-3.398,-3.2708,-3.1194,-2.955,-2.8054,-2.682,-2.4422,-2.2713,0.0,-1.9403,-1.7264,-1.7149,-1.5286,-1.4523,-1.5396,-1.5079,-1.5979,-1.8496,-1.8759,-1.8894,-1.9,-1.9707,-2.01,-2.01,-2.0745,-2.1421,-2.2028,-2.2719,-2.3345,-2.3954,-2.3954,-2.4185,-2.4621,-2.5073,-2.5589,-2.6118,-2.6593,-2.6856,-2.7028,-2.7739,-2.8027,-2.8095,-2.8738,-2.9011,-2.9011,-2.9011,-2.9175,-2.9403,-2.9255,-2.9178,-2.9161,-2.9062,-2.9047,-2.9157,-2.9403,-2.9555,-2.9689,-3.0011,-3.0702,-3.1412,-3.1787,-3.2487,-3.3166,-3.3504,-3.3634,-3.3707,-3.3807,-3.3734,-3.3707,-3.3807,-3.3807,-3.3807,-3.3807,-3.3807,-3.3807,-3.3807,-3.3807,-3.3807,-3.3807,-3.3807,-3.3807,-3.3807,-3.3807,-3.3807,-3.3807,-3.3807,-3.3807,-3.3807,-3.3807,-3.3807,-3.3807,-3.3807,-3.3807,-3.3807,-3.3807,-3.3807,-3.3807,-3.3807,-3.3807,-3.0838,-3.0975,-3.1151,-3.0838,-3.13,-3.2039,-3.2732,0.0,0.0,0.0,-3.5171,-3.5053,-3.4702,-3.3538,0.0,-3.0355,-2.8236,-2.6258,-2.464,-2.2287,-2.0404,-1.9542,-1.688,-1.497,-1.4504,-1.3326,-1.2765,-1.3199,-1.3441,-1.4515,-1.6796,-1.7266,-1.7824,-1.8673,-1.9044,-1.9423,-1.9798,-2.0105,-2.0769,-2.1697,-2.2053,-2.2665,-2.3595,-2.3595,-2.3767,-2.3991,-2.4282,-2.4831,-2.5615,-2.5835,-2.6245,-2.6725,-2.7097,-2.7232,-2.7283,-2.7655,-2.7791,-2.7791,-2.7791,-2.7896,-2.8032,-2.81,-2.8525,-2.8932,-2.8533,-2.8554,-2.8706,-2.887,-2.9094,-2.9265,-2.9494,-3.0431,-3.1418,-3.162,-3.2602,-3.355,-3.3762,-3.3807,-3.3807,-3.3807,-3.3807,-3.3807,-3.3807,-3.3807,-3.3807,-3.3807,-3.3807,-3.3807,-3.3807,-3.3807,-3.3807,-3.3807,-3.3807,-3.3807,-3.3807,-3.3807,-3.3807,-3.3807,-3.3807,-3.3807,-3.3807,-3.3807,-3.3807,-3.3807,-3.3954,-3.3935,-3.3807,-3.3944,-3.4017,-3.4017,-3.4017,-3.4017,-3.1218,-3.1218,-3.1312,-3.1196,-3.1582,-3.223,-3.2972,-3.3707,0.0,-3.5057,-3.498,-3.4623,-3.4023,-3.2419,-3.0646,0.0,-2.629,-2.3788,-2.1792,-1.9481,-1.7452,-1.6038,-1.3947,0.0,-1.1723,-1.1199,-1.1071,-1.1443,-1.2419,-1.3614,-1.505,-1.6026,-1.7034,-1.8167,-1.8555,-1.8992,-1.9579,-1.9695,-2.0421,-2.1697,-2.1697,-2.2363,-2.3595,-2.3595,-2.3595,-2.3595,-2.3837,-2.443,-2.5221,-2.5449,-2.598,-2.6691,-2.6691,-2.6691,-2.6691,-2.6691,-2.6758,-2.6841,-2.6841,-2.6922,-2.7129,-2.7422,-2.8022,-2.8558,-2.8046,-2.8075,-2.8316,-2.8394,-2.8633,-2.8905,-2.8994,-3.0081,-3.1219,-3.1568,-3.2742,-3.3807,-3.3807,-3.3807,-3.3807,-3.3807,-3.3807,-3.3807,-3.3807,-3.3807,-3.3807,-3.3807,-3.3842,-3.3876,-3.3876,-3.3954,-3.4005,-3.4005,-3.3868,-3.3807,-3.3807,-3.3868,-3.3876,-3.3876,-3.3954,-3.4005,-3.4005,-3.4005,-3.4005,-3.4005,-3.4213,-3.4189,-3.3983,-3.4181,-3.4301,-3.4301,-3.4309,-3.432,-3.1185,-3.1312,-3.1642,-3.1138,-3.1737,-3.2706,-3.3684,0.0,-3.4829,-3.5136,-3.434,-3.3245,-3.2249,-3.0171,-2.7945,-2.5854,0.0,-2.0794,-1.8654,-1.5867,-1.3766,-1.2798,0.0,0.0,-0.9464,-0.8779,-0.8965,-1.0481,-1.212,-1.3364,-1.4273,-1.5728,-1.6539,-1.6708,-1.8015,-1.8715,-1.8821,-1.9475,-2.0421,-2.1697,-2.1697,-2.2363,-2.3595,-2.3595,-2.3595,-2.3638,-2.4617,-2.5105,-2.5259,-2.6193,-2.6624,-2.6691,-2.6691,-2.6691,-2.6691,-2.6691,-2.6939,-2.7224,-2.7224,-2.7672,-2.8246,-2.8298,-2.7926,-2.7496,-2.78,-2.7926,-2.7992,-2.8316,-2.842,-2.854,-2.8905,-2.9659,-3.0687,-3.2155,-3.3164,-3.3807,-3.3807,-3.3807,-3.3807,-3.3807,-3.3807,-3.3807,-3.3807,-3.3807,-3.3807,-3.3807,-3.3993,-3.4152,-3.4152,-3.4442,-3.4612,-3.4612,-3.4136,-3.3807,-3.3807,-3.4018,-3.4152,-3.4152,-3.4464,-3.4612,-3.4612,-3.4612,-3.4612,-3.4612,-3.4632,-3.4645,-3.4614,-3.4648,-3.4668,-3.4658,-3.4642,-3.4649,-3.1685,-3.1662,-3.1823,-3.1534,-3.2125,-3.2958,-3.3794,0.0,-3.4216,-3.4086,-3.2936,-3.1492,-2.9969,-2.7873,-2.5612,-2.3191,0.0,0.0,-1.5614,-1.2801,-1.0591,-0.973,-0.797,-0.6872,-0.6872,-0.6563,-0.7353,-0.9627,-1.0808,-1.1866,-1.2679,-1.4246,-1.5555,-1.6492,-1.709,-1.7786,-1.8715,-1.8992,-1.9799,-2.1161,-2.152,-2.2179,-2.3054,-2.3421,-2.3595,-2.3638,-2.4389,-2.4894,-2.5259,-2.598,-2.6436,-2.6691,-2.6691,-2.6691,-2.6691,-2.6691,-2.6808,-2.6954,-2.721,-2.7482,-2.7805,-2.8246,-2.8192,-2.8029,-2.8438,-2.8576,-2.8601,-2.8725,-2.8749,-2.8797,-2.8952,-2.9604,-3.0613,-3.2228,-3.2852,-3.322,-3.3697,-3.3807,-3.3807,-3.3807,-3.391,-3.4043,-3.4043,-3.4213,-3.433,-3.433,-3.4442,-3.4508,-3.4508,-3.4632,-3.4694,-3.4694,-3.4483,-3.433,-3.433,-3.4442,-3.4508,-3.4508,-3.4632,-3.4694,-3.4694,-3.4694,-3.4694,-3.4694,-3.487,-3.4851,-3.4703,-3.4868,-3.4927,-3.4946,-3.4944,-3.4941,-3.2665,-3.2488,-3.2492,-3.2456,-3.2839,-3.3319,0.0,0.0,-3.3414,-3.2636,-3.1085,-2.9301,-2.7401,-2.5029,-2.2507,0.0,0.0,-1.4082,-1.2254,-0.9693,-0.7693,-0.6776,-0.5432,-0.4532,-0.4532,-0.4995,-0.6179,-0.835,-0.9558,-1.0501,-1.1377,-1.2732,-1.4186,-1.5786,-1.6255,-1.709,-1.834,-1.8608,-1.949,-2.1077,-2.1472,-2.2132,-2.2965,-2.3421,-2.3595,-2.3638,-2.4158,-2.4697,-2.5259,-2.5762,-2.6262,-2.6691,-2.6691,-2.6691,-2.6691,-2.6691,-2.6841,-2.7083,-2.7378,-2.7619,-2.789,-2.8394,-2.8565,-2.8633,-2.8929,-2.8994,-2.8994,-2.8994,-2.8994,-2.8994,-2.8994,-2.9604,-3.0485,-3.1623,-3.2265,-3.2787,-3.3423,-3.3762,-3.3954,-3.4055,-3.4213,-3.4357,-3.4357,-3.4551,-3.4694,-3.4694,-3.4754,-3.4832,-3.4832,-3.4889,-3.4944,-3.4944,-3.4944,-3.487,-3.4714,-3.4774,-3.4832,-3.4832,-3.4908,-3.4944,-3.4944,-3.4944,-3.4944,-3.4944,-3.5122,-3.5122,-3.4944,-3.5132,-3.5224,-3.5224,-3.5224,-3.5224,-3.4193,-3.4023,-3.3971,-3.3971,-3.3976,-3.388,-3.3499,-3.3202,-3.255,-3.0882,-2.8833,-2.6696,-2.456,-2.1495,-1.831,-1.5502,-1.3126,0.0,-0.834,-0.642,-0.4995,0.0,-0.3278,-0.2744,-0.2744,-0.4268,-0.572,-0.665,-0.835,-0.964,-1.0488,-1.1322,-1.2565,-1.4145,-1.5728,-1.6866,-1.7578,-1.834,-1.971,-2.1697,-2.1697,-2.2363,-2.3595,-2.3595,-2.3595,-2.3638,-2.4158,-2.4697,-2.5259,-2.5762,-2.6262,-2.6691,-2.6691,-2.6691,-2.6691,-2.6691,-2.721,-2.7897,-2.7897,-2.8378,-2.8975,-2.8994,-2.8994,-2.8994,-2.8994,-2.8994,-2.8994,-2.8994,-2.8994,-2.8994,-2.8994,-2.9604,-3.021,-3.0228,-3.1458,-3.2672,-3.2957,-3.3641,-3.4292,-3.4632,-3.4694,-3.4694,-3.4694,-3.4694,-3.4694,-3.4694,-3.4926,-3.5105,-3.5105,-3.5339,-3.5493,-3.5493,-3.5493,-3.5289,-3.4753,-3.4944,-3.5105,-3.5105,-3.5335,-3.5493,-3.5493,-3.5493,-3.5493,-3.5493,-3.5493,-3.5493,-3.5493,-3.5493,-3.5493,-3.5493,-3.5493,-3.5493,-3.1615,-3.1623,-3.1746,-3.1468,-3.1267,-3.111,-3.1022,-3.0394,-2.9249,-2.7337,-2.5661,-2.3636,-2.0582,-1.8012,-1.5528,-1.3067,-1.065,0.0,0.0,0.0,0.0,-0.1535,-0.1001,-0.1068,-0.1667,-0.3336,-0.5067,-0.6588,-0.7242,-0.8146,-0.957,-1.0438,-1.192,-1.4145,-1.4678,-1.5813,-1.7578,-1.7841,-1.8797,-2.0421,-2.128,-2.1885,-2.2317,-2.3216,-2.3595,-2.3638,-2.4552,-2.5028,-2.5259,-2.6123,-2.659,-2.6691,-2.6691,-2.6691,-2.6725,-2.6987,-2.7272,-2.756,-2.8057,-2.8394,-2.8633,-2.8905,-2.8994,-2.8994,-2.8994,-2.8994,-2.8994,-2.8994,-2.9134,-2.9267,-2.9267,-2.9561,-2.9999,-3.0541,-3.1084,-3.1778,-3.3004,-3.3456,-3.3874,-3.4561,-3.4851,-3.4963,-3.4963,-3.5122,-3.5258,-3.5258,-3.532,-3.5369,-3.5369,-3.5446,-3.5493,-3.5493,-3.5493,-3.5432,-3.5273,-3.532,-3.5369,-3.5369,-3.5446,-3.5493,-3.5493,-3.5493,-3.5493,-3.5493,-3.5493,-3.5493,-3.5493,-3.5493,-3.5493,-3.5493,-3.5493,-3.5493,0.0,-2.9994,-2.992,-2.9654,-2.9306,0.0,-2.8161,-2.7392,-2.6212,-2.4069,-2.2404,-2.0443,-1.7491,-1.5147,-1.2932,-1.0602,-0.8382,-0.642,0.0,0.0,0.0,0.02,0.0468,0.0134,-0.0733,-0.2471,-0.4143,-0.5599,-0.6322,-0.7307,-0.8748,-0.9627,-1.1058,-1.3235,-1.3906,-1.5187,-1.7191,-1.7468,-1.8328,-1.9773,-2.1073,-2.1852,-2.21,-2.3128,-2.3595,-2.3638,-2.4307,-2.4831,0.0,-2.5855,-2.635,-2.6691,-2.6691,-2.6691,-2.6758,-2.7147,-2.7396,-2.7619,-2.8192,-2.8496,-2.8658,-2.8929,-2.8994,-2.8994,-2.8994,-2.9067,-2.9156,-2.9156,-2.9332,-2.9513,-2.9513,-2.9607,-2.9828,-3.0337,-3.0695,-3.1204,-3.2353,-3.309,-3.3733,-3.4391,-3.4909,-3.5239,-3.5239,-3.5383,-3.5493,-3.5493,-3.5493,-3.5493,-3.5493,-3.5493,-3.5493,-3.5493,-3.5493,-3.5493,-3.5493,-3.5493,-3.5493,-3.5493,-3.5493,-3.5493,-3.5493,-3.5493,-3.5493,-3.5493,-3.5493,-3.5493,-3.5493,-3.5493,-3.5493,-3.5493,-3.5493,-3.5493,0.0,-2.8566,-2.8147,-2.8129,-2.7648,-2.676,-2.4999,-2.4321,0.0,-2.1024,-1.912,-1.7202,-1.5064,-1.283,-1.0554,-0.8217,-0.6359,-0.4866,-0.3944,-0.214,-0.0335,0.1206,0.1474,0.1138,0.02,-0.147,-0.2943,-0.3949,-0.5522,-0.6894,-0.7807,-0.8703,-0.9895,-1.1574,-1.3211,-1.477,-1.6384,-1.7103,-1.82,-1.9546,-2.0925,-2.1941,-2.2591,-2.3216,-2.3608,-2.3681,-2.3681,-2.4307,-2.5259,-2.5297,-2.5892,-2.6758,-2.6758,-2.6758,-2.6841,-2.7224,-2.7619,-2.7964,-2.8316,-2.8682,-2.9017,-2.9017,-2.904,-2.9044,-2.9044,-2.9203,-2.9372,-2.9392,-2.9533,-2.9713,-2.9731,-2.9748,-2.9748,-2.9748,-3.0333,-3.0953,-3.1257,-3.2562,-3.3754,-3.4134,-3.4853,-3.543,-3.5474,-3.5493,-3.5493,-3.5493,-3.5493,-3.5493,-3.5493,-3.5493,-3.5493,-3.5493,-3.5493,-3.5493,-3.5493,-3.5493,-3.5493,-3.5493,-3.5493,-3.5493,-3.5493,-3.5493,-3.5493,-3.5493,-3.5493,-3.5493,-3.5493,-3.5493,-3.5493,-3.5493,-3.5493,-3.5493,-2.1611,0.0,-2.3648,-2.3412,-2.2893,-2.2322,0.0,-2.0983,-2.0018,-1.7815,0.0,-1.4895,-1.2079,-1.0019,-0.8404,-0.7154,-0.546,-0.3739,-0.2132,0.08,0.2674,0.241,0.2945,0.2739,0.1133,0.0,-0.1602,-0.3813,-0.4322,-0.5162,-0.67,-0.7419,-0.852,-1.0224,-1.1678,-1.3289,-1.5113,-1.6051,-1.6973,-1.7872,-1.9548,-2.0667,-2.138,-2.2438,-2.3383,-2.4225,-2.4672,-2.5221,-2.5852,-2.621,-2.6691,-2.7147,-2.7147,-2.7365,-2.7648,-2.8002,-2.8192,-2.8342,-2.8725,-2.8929,-2.9021,-2.9225,-2.9415,-2.9533,-2.9533,-2.9334,-2.9134,-2.9351,-2.9533,-2.9748,-2.9893,-3.008,-3.0247,-3.0247,-3.0381,-3.072,-3.1463,-3.1924,-3.2589,-3.3949,-3.4372,-3.4718,-3.5391,-3.5493,-3.5493,-3.5493,-3.5493,-3.5493,-3.5493,-3.5493,-3.5493,-3.5493,-3.5493,-3.5493,-3.5493,-3.5493,-3.5493,-3.5493,-3.5493,-3.5493,-3.5493,-3.5493,-3.5493,-3.5493,-3.5493,-3.5493,-3.5493,-3.5493,-3.5493,-3.5493,-3.5493,-3.5545,-1.7104,-1.8505,-1.994,-1.9764,-1.8983,-1.812,-1.7569,0.0,0.0,0.0,0.0,-1.2221,-0.9737,-0.7901,-0.6424,-0.5595,-0.36,-0.1534,0.0267,0.2536,0.3813,0.3347,0.3347,0.3009,0.207,0.0396,-0.1378,-0.3154,-0.3644,-0.4519,-0.6195,-0.694,-0.7876,-0.9221,-1.0781,-1.237,-1.3976,-1.5456,-1.6378,-1.6825,-1.8897,-2.0081,-2.0457,-2.1679,-2.2667,-2.3436,-2.3732,-2.4296,-2.4972,-2.5596,-2.6117,-2.6588,-2.7103,-2.7439,-2.7678,-2.8192,-2.8394,-2.8471,-2.9007,-2.9249,-2.9355,-2.9494,-2.9626,-2.9696,-2.9696,-2.9514,-2.9377,-2.9607,-2.9832,-3.0037,-3.0169,-3.0299,-3.0398,-3.0398,-3.0398,-3.0533,-3.1006,-3.1429,-3.2083,-3.3353,-3.393,-3.4468,-3.5353,-3.5493,-3.5493,-3.5493,-3.5493,-3.5493,-3.5493,-3.5493,-3.5493,-3.5493,-3.5493,-3.5493,-3.5493,-3.5493,-3.5493,-3.5493,-3.5545,-3.5565,-3.5565,-3.5584,-3.5603,-3.5603,-3.5603,-3.5603,-3.5603,-3.5603,-3.5603,-3.5603,-3.5603,-3.5622,-1.4123,-1.5128,-1.6411,-1.6665,-1.5802,-1.4694,-1.3909,0.0,0.0,0.0,0.0,0.0,0.0,-0.6163,0.0,-0.3742,-0.1333,0.0934,0.2476,0.3547,0.4151,0.4015,0.348,0.3072,0.286,0.0716,-0.1091,-0.2044,-0.304,-0.42,-0.57,-0.6556,-0.7427,-0.8259,-1.0071,-1.1629,-1.2887,-1.4912,-1.6002,-1.6139,-1.8474,-1.9723,-1.9949,-2.1046,-2.1872,-2.2428,-2.2428,-2.2964,-2.3869,-2.4547,-2.5128,-2.5695,-2.668,-2.715,-2.7268,-2.803,-2.8316,-2.8408,-2.9151,-2.9532,-2.9713,-2.9748,-2.9782,-2.9815,-2.9815,-2.9815,-2.9848,-2.9999,-3.0196,-3.0355,-3.0398,-3.0398,-3.0398,-3.0398,-3.0398,-3.0398,-3.0398,-3.0987,-3.1775,-3.2718,-3.3506,-3.4314,-3.5334,-3.5493,-3.5493,-3.5493,-3.5493,-3.5493,-3.5493,-3.5493,-3.5493,-3.5493,-3.5493,-3.5493,-3.5493,-3.5526,-3.5526,-3.5526,-3.5584,-3.5611,-3.5605,-3.5644,-3.5676,-3.568,-3.5688,-3.5697,-3.5697,-3.5697,-3.5697,-3.5697,-3.5697,-3.5717,-1.3174,-1.2387,-1.1913,-1.3296,-1.3511,-1.308,-1.2242,0.0,0.0,0.0,0.0,0.0,0.0,-0.4866,-0.3673,0.0,0.0532,0.2398,0.2676,0.4148,0.4891,0.4082,0.4553,0.4641,0.3749,0.2699,0.1331,-0.0433,-0.1741,-0.289,-0.3949,-0.5148,-0.6124,-0.6908,-0.8857,-1.0557,-1.1899,-1.3926,-1.5177,-1.5619,-1.7497,-1.8901,-1.9936,-2.0572,-2.162,-2.2976,-2.2976,-2.3518,-2.4413,-2.4804,-2.5201,-2.557,-2.6025,-2.6411,-2.6795,-2.7602,-2.7885,-2.804,-2.9047,-2.9532,-2.9731,-2.9908,-3.0109,-3.0286,-3.0286,-3.0286,-3.0299,-3.0323,-3.0209,-3.0103,-3.0343,-3.0398,-3.0398,-3.0398,-3.0398,-3.0398,-3.0398,-3.0513,-3.1064,-3.2602,-3.3006,-3.3603,-3.5218,-3.5493,-3.5493,-3.5493,-3.5493,-3.5493,-3.5493,-3.5493,-3.5493,-3.5493,-3.5493,-3.5493,-3.5493,-3.5565,-3.5584,-3.5584,-3.5603,-3.5596,-3.5593,-3.5562,-3.5563,-3.5603,-3.5612,-3.5632,-3.571,-3.571,-3.571,-3.571,-3.571,-3.5769,-1.1267,-1.0451,-0.9939,-1.0236,-1.0292,-1.0166,-0.9775,0.0,0.0,0.0,0.0,0.0,0.0,0.0,-0.1067,0.1198,0.2599,0.3604,0.4082,0.4888,0.5226,0.4821,0.4623,0.4358,0.3849,0.2616,0.1276,0.0,-0.1393,-0.2567,-0.3365,-0.4757,-0.5814,-0.6588,-0.86,-1.0199,-1.119,-1.3527,-1.5005,-1.5584,-1.7287,-1.8377,-1.8948,-1.9788,-2.0834,-2.1967,-2.1967,-2.2475,-2.3371,-2.4104,-2.451,-2.4743,-2.5636,-2.6103,-2.6358,-2.7046,-2.7398,-2.7625,-2.8702,-2.9216,-2.947,-3.0029,-3.0299,-3.0398,-3.0398,-3.0398,-3.0398,-3.0398,-3.0311,-3.0254,-3.0367,-3.0398,-3.0398,-3.0398,-3.0398,-3.0398,-3.0448,-3.0448,-3.0833,-3.2095,-3.275,-3.3468,-3.4743,-3.5282,-3.5584,-3.5603,-3.5584,-3.5584,-3.5603,-3.5622,-3.5622,-3.5622,-3.5622,-3.5622,-3.5622,-3.5641,-3.568,-3.5757,-3.5757,-3.5779,-3.5803,-3.5794,-3.5786,-3.5815,-3.5812,-3.582,-3.5859,-3.5859,-3.5859,-3.5859,-3.5859,-3.5898,-0.9384,-0.8678,-0.8215,-0.7562,0.0,-0.7892,-0.7432,0.0,0.0,0.0,0.0,0.0,0.0,0.02,0.1602,0.3678,0.4217,0.4553,0.5292,0.5328,0.5308,0.5308,0.4589,0.405,0.402,0.247,0.1169,0.0579,-0.1018,-0.2286,-0.301,-0.444,-0.5647,-0.6588,-0.86,-1.0097,-1.0998,-1.3338,-1.4903,-1.576,-1.7341,-1.8224,-1.8496,-1.9413,-2.0277,-2.1007,-2.1086,-2.1584,-2.2372,-2.3325,-2.3737,-2.3868,-2.51,-2.5719,-2.5994,-2.6506,-2.6908,-2.7315,-2.8189,-2.86,-2.8883,-2.9802,-3.0102,-3.014,-3.034,-3.0398,-3.0417,-3.0417,-3.0417,-3.0448,-3.0417,-3.0448,-3.0448,-3.0448,-3.0448,-3.0467,-3.0506,-3.0524,-3.0809,-3.1718,-3.2441,-3.3172,-3.4056,-3.4839,-3.5354,-3.5411,-3.5534,-3.5642,-3.5681,-3.57,-3.57,-3.57,-3.57,-3.5714,-3.5751,-3.5757,-3.5795,-3.5911,-3.591,-3.5929,-3.5968,-3.5945,-3.5933,-3.5987,-3.5978,-3.5976,-3.5996,-3.5996,-3.5996,-3.5996,-3.5996,-3.5996,-0.835,-0.6837,-0.5588,-0.5522,-0.6772,0.0,-0.5851,-0.5522,0.0,-0.2128,0.0,0.0,0.0,0.2534,0.3747,0.3949,0.4755,0.5296,0.5362,0.5237,0.5145,0.5145,0.4957,0.4756,0.4617,0.329,0.2315,0.2076,0.0056,-0.1507,-0.2232,-0.366,-0.5144,-0.6534,-0.86,-1.0335,-1.1603,-1.311,-1.4665,-1.6253,-1.7518,-1.8612,-1.9603,-2.0054,-2.0516,-2.1023,-2.1399,-2.184,-2.2366,-2.2985,-2.3253,-2.3319,-2.4042,-2.4911,-2.5745,-2.5986,-2.6553,-2.7245,-2.7495,-2.7597,-2.779,-2.8845,-2.9179,-2.9333,-3.016,-3.0448,-3.0487,-3.0487,-3.0544,-3.0564,-3.0506,-3.0544,-3.0583,-3.0583,-3.0583,-3.0583,-3.0583,-3.0586,-3.084,-3.1722,-3.1955,-3.226,-3.314,-3.4015,-3.4572,-3.4578,-3.5223,-3.5682,-3.5702,-3.5702,-3.5702,-3.5702,-3.5702,-3.5756,-3.588,-3.5892,-3.5911,-3.6001,-3.5942,-3.5895,-3.5915,-3.5785,-3.5776,-3.5894,-3.5918,-3.5937,-3.5996,-3.5996,-3.5996,-3.5996,-3.5996,-3.5996,-0.8226,-0.6706,-0.5193,-0.4604,-0.4599,0.0,0.0,-0.2793,-0.2193,-0.0133,0.0333,0.0,0.0,0.0,0.4888,0.4888,0.5081,0.5216,0.5216,0.5091,0.4999,0.4999,0.4867,0.4755,0.4697,0.3278,0.2262,0.2232,0.0167,-0.1396,-0.2174,-0.3605,-0.5089,-0.6534,-0.86,-1.0148,-1.114,-1.329,-1.5027,-1.6325,-1.7152,-1.8143,-1.9207,-1.9717,-2.0311,-2.1007,-2.115,-2.1744,-2.259,-2.3021,-2.3305,-2.3566,-2.4154,-2.4631,-2.4995,-2.5281,-2.5568,-2.5937,-2.6687,-2.6937,-2.7091,-2.8088,-2.8756,-2.9236,-2.9598,-3.011,-3.056,-3.0557,-3.0608,-3.0648,-3.0576,-3.0571,-3.0599,-3.0599,-3.0599,-3.0615,-3.0648,-3.0653,-3.0773,-3.1198,-3.1721,-3.219,-3.2519,-3.3222,-3.3952,-3.4535,-3.4861,-3.5223,-3.5809,-3.5899,-3.5899,-3.5899,-3.5899,-3.5907,-3.5963,-3.5949,-3.5971,-3.6006,-3.5986,-3.5957,-3.5957,-3.5903,-3.59,-3.5957,-3.5957,-3.5976,-3.5996,-3.5996,-3.5996,-3.5996,-3.5996,-3.5996,-0.7493,-0.5847,-0.4268,0.0,0.0,0.0,-0.0267,-0.0466,-0.0333,0.1732,0.2398,0.3,0.4215,0.0,0.5411,0.5294,0.5199,0.5114,0.507,0.4938,0.4847,0.4847,0.4711,0.4619,0.4619,0.3391,0.2454,0.2232,0.0558,-0.0949,-0.2119,-0.3382,-0.4783,-0.6425,-0.8268,-0.9653,-1.0426,-1.2705,-1.452,-1.5781,-1.6507,-1.7713,-1.9346,-1.9894,-2.0514,-2.1181,-2.1354,-2.1903,-2.2721,-2.3069,-2.3486,-2.4001,-2.4424,-2.4604,-2.4693,-2.4993,-2.5118,-2.5225,-2.5974,-2.6236,-2.6409,-2.7322,-2.8183,-2.8907,-2.9207,-2.9927,-3.0629,-3.0632,-3.0695,-3.0744,-3.0709,-3.0684,-3.0685,-3.0685,-3.0685,-3.0701,-3.0746,-3.0754,-3.0795,-3.0875,-3.1387,-3.1797,-3.1797,-3.2441,-3.3164,-3.3809,-3.4091,-3.4554,-3.5467,-3.5586,-3.5684,-3.5976,-3.5996,-3.5996,-3.5996,-3.5994,-3.5885,-3.5605,-3.5586,-3.5586,-3.5586,-3.5332,-3.5176,-3.5176,-3.5176,-3.5312,-3.5586,-3.5586,-3.5723,-3.5996,-3.5996,-3.5996,-0.5785,-0.4069,-0.2477,0.0,0.0,0.0,0.2477,0.1336,0.0801,0.3476,0.4755,0.5428,0.5425,0.5425,0.5373,0.5152,0.5128,0.5077,0.4935,0.4785,0.4687,0.4687,0.4611,0.4519,0.4519,0.3846,0.3067,0.2286,0.1506,0.0167,-0.2062,-0.2881,-0.4183,-0.614,-0.754,-0.874,-0.9694,-1.1286,-1.297,-1.4727,-1.5608,-1.751,-2.0299,-2.0781,-2.1213,-2.1628,-2.2106,-2.2463,-2.2746,-2.3069,-2.3726,-2.4528,-2.4731,-2.4877,-2.5022,-2.5224,-2.5341,-2.5409,-2.5409,-2.5447,-2.5649,-2.6516,-2.7377,-2.8247,-2.9044,-2.9956,-3.0691,-3.071,-3.0806,-3.0902,-3.0902,-3.0898,-3.0898,-3.0898,-3.0898,-3.0898,-3.0898,-3.0898,-3.0898,-3.0898,-3.0898,-3.0898,-3.0898,-3.1621,-3.2187,-3.2207,-3.2871,-3.3711,-3.459,-3.4707,-3.5039,-3.5918,-3.5996,-3.5996,-3.5996,-3.5996,-3.5625,-3.4746,-3.4687,-3.4687,-3.4687,-3.3867,-3.3398,-3.3398,-3.3398,-3.3828,-3.4687,-3.4687,-3.5137,-3.5996,-3.5996,-3.5996,-0.7363,-0.5456,0.0,-0.2476,0.0,0.0,0.0,0.2741,0.0,0.0,0.5226,0.5522,0.5917,0.5954,0.6089,0.6463,0.6433,0.6379,0.6325,0.5688,0.5242,0.5242,0.525,0.5003,0.4574,0.4278,0.3776,0.301,0.1801,0.0592,-0.059,-0.2245,-0.3685,-0.4761,-0.7327,-0.8997,-0.9641,-1.1769,-1.3656,-1.5179,-1.5892,-1.7241,-1.9178,-1.9681,-2.0479,-2.1529,-2.1989,-2.2626,-2.3437,-2.3925,-2.4353,-2.4731,-2.4891,-2.4962,-2.5022,-2.5282,-2.539,-2.5409,-2.5459,-2.548,-2.5557,-2.586,-2.6544,-2.7423,-2.8324,-2.9216,-3.0056,-3.0661,-3.0876,-3.0895,-3.0895,-3.0907,-3.0898,-3.0898,-3.0898,-3.0898,-3.0898,-3.0898,-3.0898,-3.0898,-3.0898,-3.0898,-3.0898,-3.1113,-3.1484,-3.2109,-3.2402,-3.3086,-3.4512,-3.4707,-3.5039,-3.5918,-3.5996,-3.5996,-3.5996,-3.5449,-3.498,-3.4726,-3.3594,-3.3203,-3.3769,-3.3535,-3.3398,-3.3398,-3.3398,-3.3535,-3.3789,-3.3789,-3.4238,-3.5098,-3.5098,-3.541,-0.7102,-0.5526,0.0,-0.2477,-0.1069,0.0534,0.2741,0.0,0.0,0.0,0.557,0.5815,0.6148,0.6378,0.6632,0.6969,0.6937,0.6874,0.6794,0.628,0.5928,0.5928,0.5928,0.5764,0.5391,0.4989,0.4456,0.3704,0.2274,0.0986,0.0,-0.1519,-0.283,-0.4004,-0.6283,-0.7968,-0.8858,-1.1469,-1.3356,-1.4456,-1.5557,-1.6855,-1.8283,-1.8905,-1.9817,-2.0933,-2.1825,-2.2663,-2.3409,-2.4258,-2.4712,-2.4891,-2.4974,-2.5046,-2.5141,-2.5302,-2.5388,-2.5449,-2.5482,-2.552,-2.5584,-2.5629,-2.6229,-2.7045,-2.7612,-2.8633,-2.9707,-3.0234,-3.0625,-3.0898,-3.0898,-3.0898,-3.0898,-3.0898,-3.0898,-3.0898,-3.0898,-3.0898,-3.0898,-3.0898,-3.0898,-3.0898,-3.0898,-3.0898,-3.1074,-3.1601,-3.1973,-3.2559,-3.3574,-3.3984,-3.4375,-3.4902,-3.5273,-3.5332,-3.5,-3.4805,-3.4414,-3.375,-3.2754,-3.2266,-3.2402,-3.2402,-3.2402,-3.2402,-3.2402,-3.2578,-3.293,-3.293,-3.3359,-3.418,-3.418,-3.4648,-0.5982,0.0,0.0,-0.1876,-0.0602,0.0,0.3409,0.4755,0.5422,0.5474,0.0,0.6241,0.6328,0.6796,0.7193,0.7192,0.71,0.7032,0.6885,0.6853,0.6799,0.6799,0.6799,0.674,0.6661,0.5953,0.5159,0.4303,0.2953,0.1548,0.01,-0.0649,-0.181,-0.3662,-0.4774,-0.6182,-0.787,-1.0709,-1.2477,-1.3128,-1.4913,-1.6425,-1.7604,-1.8443,-1.9318,-2.0201,-2.1714,-2.2501,-2.2847,-2.4073,-2.4707,-2.492,-2.492,-2.5064,-2.5303,-2.5303,-2.5387,-2.5498,-2.5517,-2.5581,-2.5703,-2.5703,-2.623,-2.6894,-2.6973,-2.8105,-2.9394,-2.9551,-3.0176,-3.0801,-3.0879,-3.0898,-3.0898,-3.0898,-3.0898,-3.0898,-3.0898,-3.0898,-3.0898,-3.0898,-3.0898,-3.0898,-3.0898,-3.0898,-3.0898,-3.0898,-3.1562,-3.2109,-3.2187,-3.2832,-3.332,-3.3398,-3.4101,-3.4258,-3.3476,-3.4062,-3.3828,-3.2305,-3.2129,-3.1738,-3.0937,-3.0898,-3.0898,-3.0898,-3.0898,-3.1289,-3.207,-3.207,-3.25,-3.3281,-3.3281,-3.375,-0.7497,-0.6264,0.0,0.0,-0.0134,0.2474,0.368,0.4755,0.5522,0.5965,0.6089,0.6467,0.7396,0.7635,0.8026,0.9004,0.8711,0.8532,0.9033,0.8639,0.8265,0.8265,0.8265,0.7915,0.7132,0.6939,0.6289,0.4869,0.391,0.2871,0.1585,0.0419,-0.1045,-0.2876,-0.4439,-0.6241,-0.8343,-1.0603,-1.2489,-1.4042,-1.5139,-1.6254,-1.7387,-1.81,-1.9389,-2.1052,-2.1661,-2.212,-2.2422,-2.2712,-2.3415,-2.4293,-2.4293,-2.4716,-2.5303,-2.537,-2.5418,-2.5522,-2.5554,-2.5623,-2.5703,-2.5703,-2.582,-2.6113,-2.6797,-2.7266,-2.7832,-2.9219,-2.9746,-3.0039,-3.0723,-3.0898,-3.0898,-3.0898,-3.0898,-3.0898,-3.0898,-3.0898,-3.0898,-3.0898,-3.0898,-3.0898,-3.0898,-3.0898,-3.0898,-3.0898,-3.1055,-3.1426,-3.2109,-3.2344,-3.2695,-3.332,-3.3574,-3.3594,-3.3418,-3.2988,-3.2578,-3.2226,-3.1562,-3.1094,-3.0918,-3.0898,-3.0898,-3.0898,-3.0898,-3.0996,-3.1172,-3.1172,-3.1621,-3.2461,-3.2461,-3.2891,-0.7632,0.0,0.0,-0.3276,0.0,0.227,0.3145,0.4372,0.5399,0.598,0.6371,0.688,0.7756,0.8422,0.8938,0.9285,0.9562,0.9762,0.9814,0.974,0.9717,0.9717,0.9285,0.8926,0.8644,0.7856,0.7121,0.6533,0.5238,0.4178,0.3546,0.1835,0.031,-0.0926,-0.3688,-0.5853,-0.727,-1.0615,-1.2731,-1.3709,-1.5329,-1.6766,-1.7976,-1.8224,-1.9061,-2.0334,-2.1062,-2.154,-2.1855,-2.2342,-2.2938,-2.3534,-2.3534,-2.4044,-2.4774,-2.4812,-2.513,-2.5543,-2.5582,-2.5634,-2.5703,-2.5703,-2.5703,-2.5781,-2.623,-2.668,-2.7285,-2.8594,-2.9277,-2.9805,-3.0664,-3.0898,-3.0898,-3.0898,-3.0898,-3.0898,-3.0898,-3.0898,-3.0898,-3.0898,-3.0898,-3.0898,-3.0898,-3.0898,-3.0898,-3.0898,-3.0898,-3.1055,-3.1523,-3.1582,-3.1738,-3.2168,-3.2578,-3.2656,-3.2246,-3.2207,-3.2012,-3.1601,-3.1152,-3.0898,-3.0898,-3.0898,-3.0898,-3.0898,-3.0898,-3.0898,-3.0898,-3.0898,-3.1133,-3.1582,-3.1582,-3.2031,-0.7567,0.0,-0.5855,-0.334,-0.08,0.0,0.2394,0.3783,0.5077,0.5808,0.6534,0.7231,0.779,0.8817,0.951,0.9211,0.9961,1.0517,1.021,1.0618,1.0939,1.0881,1.0172,0.9859,1.0159,0.8678,0.7836,0.8105,0.6502,0.5482,0.5344,0.3463,0.1939,0.0921,-0.2359,-0.4819,-0.6397,-1.0407,-1.2746,-1.3454,-1.5817,-1.7574,-1.8734,-1.8628,-1.8851,-1.9354,-2.0307,-2.0873,-2.1166,-2.1991,-2.2488,-2.2688,-2.2684,-2.3223,-2.3984,-2.3984,-2.4572,-2.538,-2.5365,-2.5503,-2.5703,-2.5684,-2.5684,-2.5703,-2.5703,-2.6191,-2.6953,-2.7832,-2.8594,-2.9394,-3.041,-3.0684,-3.0703,-3.0859,-3.0898,-3.0898,-3.0898,-3.0898,-3.0898,-3.0898,-3.0898,-3.0898,-3.0898,-3.0898,-3.0898,-3.0898,-3.0898,-3.0898,-3.0898,-3.0898,-3.0898,-3.0898,-3.1543,-3.168,-3.0957,-3.1562,-3.168,-3.0957,-3.0898,-3.0898,-3.0898,-3.0898,-3.0898,-3.0898,-3.0898,-3.0898,-3.0898,-3.0898,-3.0898,-3.0898,-3.0898,-3.1289,0.0,0.0,-0.5061,0.0,-0.1269,0.0597,0.0,0.0,0.435,0.5584,0.6439,0.711,0.7655,0.8394,0.9263,1.0364,1.0218,1.032,1.1366,1.1616,1.1541,1.1211,1.1027,1.0736,1.0152,0.934,0.8586,0.7919,0.7155,0.6517,0.5906,0.5164,0.3548,0.0903,0.0299,-0.2545,-0.7929,-0.9384,-1.1749,-1.5095,-1.7058,-1.8295,-1.8882,-1.9157,-1.9442,-1.9731,-1.9945,-2.013,-2.0276,-2.047,-2.1071,-2.186,-2.1865,-2.2387,-2.3168,-2.3168,-2.3732,-2.4475,-2.4407,-2.4959,-2.5684,-2.5625,-2.5644,-2.5703,-2.5703,-2.5781,-2.6055,-2.6934,-2.7266,-2.7715,-2.9355,-2.9766,-2.9961,-3.0723,-3.0898,-3.0898,-3.0898,-3.0898,-3.0898,-3.0898,-3.0898,-3.0898,-3.0898,-3.0898,-3.0898,-3.0898,-3.0898,-3.0898,-3.0898,-3.0898,-3.0898,-3.0898,-3.0996,-3.1035,-3.0918,-3.1016,-3.1016,-3.0918,-3.0898,-3.0898,-3.0898,-3.0898,-3.0898,-3.0898,-3.0898,-3.0898,-3.0898,-3.0898,-3.0898,-3.0898,-3.0898,-3.0957,-0.8812,-0.7367,-0.5657,0.0,-0.2068,-0.0331,0.1352,0.2719,0.3955,0.4958,0.6027,0.6918,0.758,0.8296,0.9072,1.0064,1.0618,1.1124,1.1733,1.2215,1.2289,1.1799,1.1346,1.0903,1.0563,0.9816,0.9398,0.9573,0.9081,0.8759,0.8754,0.7624,0.641,0.5086,0.2243,-0.0534,-0.3222,-0.8244,-1.3023,-1.746,-1.7854,-1.8596,-1.9629,-1.977,-1.992,-2.0021,-2.0093,-2.019,-2.0276,-2.0306,-2.0593,-2.1028,-2.1037,-2.1584,-2.2389,-2.2337,-2.2883,-2.3613,-2.3542,-2.416,-2.4978,-2.4935,-2.5273,-2.5703,-2.5703,-2.5703,-2.5879,-2.6758,-2.6964,-2.7229,-2.8485,-2.9171,-2.9648,-3.0019,-3.0527,-3.0898,-3.0898,-3.0898,-3.0898,-3.0898,-3.0898,-3.0898,-3.0898,-3.0898,-3.0898,-3.0898,-3.0898,-3.0898,-3.0898,-3.0898,-3.0898,-3.0898,-3.0898,-3.0898,-3.0898,-3.0898,-3.0898,-3.0898,-3.0898,-3.0898,-3.0898,-3.0898,-3.0898,-3.0898,-3.0898,-3.0898,-3.0898,-3.0898,-3.0898,-3.0898,-3.0898,-3.0898,0.0,0.0,-0.6584,-0.4806,-0.3135,-0.1517,0.0,0.0,0.2972,0.4143,0.5254,0.6303,0.7235,0.8277,0.9214,0.9961,1.1065,1.1886,1.2097,1.2606,1.2789,1.2138,1.1502,1.1044,1.0954,1.0291,1.034,1.1391,1.0978,1.0973,1.168,1.0391,0.9404,0.8885,0.5458,0.2561,0.0345,-0.8909,-1.5278,-1.868,-1.8443,-1.897,-2.013,-2.0169,-2.0237,-2.0294,-2.0342,-2.0372,-2.043,-2.0445,-2.048,-2.0526,-2.0526,-2.0943,-2.1533,-2.1501,-2.2015,-2.2721,-2.266,-2.3281,-2.4105,-2.4316,-2.4822,-2.541,-2.5625,-2.5703,-2.584,-2.6484,-2.6612,-2.6776,-2.7663,-2.8353,-2.8969,-2.9413,-3.0059,-3.0624,-3.0819,-3.0871,-3.0898,-3.0859,-3.0879,-3.0898,-3.0898,-3.0898,-3.0898,-3.0898,-3.0898,-3.0898,-3.0898,-3.0898,-3.0898,-3.0898,-3.0898,-3.0898,-3.0898,-3.0898,-3.0898,-3.0898,-3.0898,-3.0898,-3.0898,-3.0898,-3.0898,-3.0898,-3.0898,-3.0898,-3.0898,-3.0898,-3.0898,-3.0898,-3.0898,-3.0898,0.0,-0.8613,0.0,-0.5654,-0.4538,-0.3228,0.0,-0.0061,0.0662,0.2999,0.4003,0.4976,0.6416,0.8336,0.9961,1.0669,1.1366,1.2078,1.2818,1.2972,1.2673,1.1808,1.1703,1.1504,1.1054,1.0954,1.1454,1.2728,1.2301,1.2559,1.387,1.3319,1.2103,1.0249,1.11,0.7637,-0.0633,-1.2616,-1.8236,-1.7504,-1.8858,-1.9651,-1.9922,-2.0113,-2.0331,-2.0573,-2.0523,-2.0493,-2.0492,-2.056,-2.0585,-2.0585,-2.0585,-2.0584,-2.0573,-2.0577,-2.1078,-2.1748,-2.1694,-2.2326,-2.3296,-2.4058,-2.4388,-2.4629,-2.5449,-2.5703,-2.5703,-2.5742,-2.5727,-2.588,-2.6815,-2.7046,-2.7466,-2.9191,-2.9629,-2.9869,-3.0569,-3.0803,-3.0859,-3.0742,-3.0801,-3.0898,-3.0898,-3.0898,-3.0898,-3.0898,-3.0898,-3.0898,-3.0898,-3.0898,-3.0898,-3.0898,-3.0898,-3.0898,-3.0898,-3.0898,-3.0898,-3.0898,-3.0898,-3.0898,-3.0898,-3.0898,-3.0898,-3.0898,-3.0898,-3.0898,-3.0898,-3.0898,-3.0898,-3.0898,-3.0898,-3.0898,0.0,0.0,0.0,-0.6645,-0.5452,-0.4171,-0.2219,-0.0904,0.0469,0.224,0.36,0.4867,0.6308,0.7953,0.9474,1.061,1.1697,1.2579,1.2969,1.3346,1.317,1.1865,1.1993,1.1879,1.1067,1.1748,1.2513,1.3277,1.3919,1.4626,1.5402,1.5527,1.525,1.4562,1.3605,0.8797,-0.0197,-0.3931,-1.0379,-1.9448,-1.9287,-1.9613,-2.0353,-2.0416,-2.0507,-2.0609,-2.0524,-2.0501,-2.0499,-2.0534,-2.0504,-2.0475,-2.0475,-2.0457,-2.0427,-2.0395,-2.055,-2.08,-2.0773,-2.1366,-2.2199,-2.2518,-2.3432,-2.4453,-2.4766,-2.5254,-2.5681,-2.5654,-2.559,-2.5614,-2.5947,-2.6431,-2.7171,-2.8453,-2.9199,-2.9666,-2.9877,-3.0444,-3.0892,-3.0836,-3.0879,-3.0898,-3.0898,-3.0898,-3.0898,-3.0898,-3.0898,-3.0898,-3.0898,-3.0898,-3.0898,-3.0898,-3.0898,-3.0898,-3.0898,-3.0898,-3.0898,-3.0898,-3.0898,-3.0898,-3.0898,-3.0898,-3.0898,-3.0898,-3.0898,-3.0898,-3.0898,-3.0898,-3.0898,-3.0898,-3.0898,-3.0898,-0.9919,0.0,0.0,0.0,-0.657,-0.5185,-0.3806,-0.2325,-0.0694,0.1116,0.243,0.3805,0.5529,0.7233,0.886,1.0551,1.2092,1.3107,1.3017,1.3432,1.3277,1.2102,1.235,1.2436,1.1915,1.2885,1.3901,1.4803,1.5668,1.644,1.7176,1.7499,1.7615,1.7506,1.5592,1.1931,0.6431,0.2303,-0.4704,-1.4536,-1.7913,-1.9915,-2.0605,-2.06,-2.0557,-2.0507,-2.0506,-2.0504,-2.0504,-2.0485,-2.0443,-2.0404,-2.0404,-2.0385,-2.0355,-2.0318,-2.0312,-2.0312,-2.0312,-2.0685,-2.1224,-2.1557,-2.25,-2.3633,-2.4219,-2.4805,-2.5325,-2.5561,-2.5584,-2.5543,-2.5572,-2.6217,-2.7042,-2.7694,-2.8535,-2.9141,-2.9101,-3.0057,-3.0884,-3.0832,-3.0868,-3.0898,-3.0898,-3.0898,-3.0898,-3.0898,-3.0898,-3.0898,-3.0898,-3.0898,-3.0898,-3.0898,-3.0898,-3.0898,-3.0898,-3.0898,-3.0898,-3.0898,-3.0898,-3.0898,-3.0898,-3.0898,-3.0898,-3.0898,-3.0898,-3.0898,-3.0898,-3.0898,-3.0898,-3.0898,-3.0898,-3.0898,0.0,0.0,0.0,0.0,0.0,-0.6262,-0.5336,-0.4355,-0.2952,-0.0616,0.0497,0.1705,0.392,0.6065,0.8182,1.0324,1.2434,1.3581,1.305,1.3084,1.302,1.2555,1.2724,1.3065,1.3552,1.4354,1.5549,1.7271,1.7435,1.7945,1.9141,1.9195,1.9053,1.8737,1.7332,1.736,1.8985,0.517,-0.1969,-0.2464,-1.4548,-2.0406,-2.0605,-2.0605,-2.0485,-2.0307,-2.043,-2.0496,-2.0485,-2.0427,-2.0408,-2.0408,-2.0408,-2.0369,-2.0312,-2.0312,-2.0312,-2.0312,-2.0312,-2.0312,-2.0446,-2.1297,-2.1666,-2.2129,-2.3848,-2.4375,-2.4583,-2.5461,-2.5659,-2.5601,-2.5678,-2.633,-2.6953,-2.6953,-2.7637,-2.8262,-2.8262,-2.9609,-3.0784,-3.0694,-3.0784,-3.0898,-3.0898,-3.0898,-3.0898,-3.0898,-3.0898,-3.0898,-3.0898,-3.0898,-3.0898,-3.0898,-3.0898,-3.0898,-3.0898,-3.0898,-3.0898,-3.0898,-3.0898,-3.0898,-3.0898,-3.0898,-3.0898,-3.0898,-3.0898,-3.0898,-3.0898,-3.0898,-3.0898,-3.0898,-3.0898,-3.0898,-1.1288,0.0,0.0,0.0,0.0,0.0,-0.6878,-0.5825,-0.446,-0.2756,-0.1375,0.0165,0.2417,0.4101,0.5766,0.7436,1.0731,1.2762,1.1907,1.2615,1.2901,1.207,1.2342,1.2864,1.3533,1.4954,1.6245,1.7314,1.8211,1.8858,1.9182,1.9197,1.9155,1.9071,1.8666,1.8621,1.8995,1.4686,0.8064,-0.0763,-0.9132,-1.577,-2.0605,-2.0605,-2.0563,-2.0511,-2.0513,-2.0505,-2.0485,-2.0389,-2.0331,-2.0331,-2.0331,-2.0331,-2.0312,-2.0312,-2.0312,-2.0312,-2.0312,-2.0312,-2.035,-2.0589,-2.1132,-2.1935,-2.3118,-2.3906,-2.457,-2.541,-2.5609,-2.5601,-2.562,-2.5839,-2.6055,-2.6055,-2.6738,-2.7363,-2.7363,-2.8223,-2.9197,-2.9796,-3.0442,-3.0898,-3.0898,-3.0898,-3.0898,-3.0898,-3.0898,-3.0898,-3.0898,-3.0898,-3.0898,-3.0898,-3.0898,-3.0898,-3.0898,-3.0898,-3.0898,-3.0898,-3.0898,-3.0898,-3.0898,-3.0898,-3.0898,-3.0898,-3.0898,-3.0898,-3.0898,-3.0898,-3.0898,-3.0898,-3.0898,-3.0898,0.0,0.0,0.0,-1.0647,0.0,0.0,-0.8063,-0.6874,-0.5567,-0.4072,-0.3082,-0.1815,0.044,0.1752,0.3,0.4469,0.7269,0.946,1.006,1.1041,1.1552,1.1142,1.182,1.2665,1.3533,1.548,1.6895,1.7354,1.8523,1.9208,1.9206,1.9018,1.8837,1.8697,1.8513,1.8392,1.8377,1.8275,1.3179,0.3194,-0.527,-1.326,-2.0594,-2.0249,-2.0237,-2.0479,-2.0479,-2.0458,-2.0366,-2.036,-2.0346,-2.035,-2.0312,-2.0312,-2.0312,-2.0312,-2.0312,-2.0312,-2.0312,-2.0312,-2.0312,-2.0312,-2.0685,-2.1338,-2.2246,-2.316,-2.4062,-2.4863,-2.5359,-2.5646,-2.5646,-2.5668,-2.5703,-2.5703,-2.6094,-2.6465,-2.6465,-2.7148,-2.8125,-2.9355,-3.0019,-3.0469,-3.084,-3.0898,-3.0898,-3.0898,-3.0898,-3.0898,-3.0898,-3.0898,-3.0898,-3.0898,-3.0898,-3.0898,-3.0898,-3.0898,-3.0898,-3.0898,-3.0898,-3.0898,-3.0898,-3.0898,-3.0898,-3.0898,-3.0898,-3.0898,-3.0898,-3.0898,-3.0898,-3.0898,-3.0898,-3.0898,0.0,0.0,0.0,-1.117,-1.0488,0.0,-0.9066,-0.7857,-0.6519,-0.5082,-0.4696,-0.403,-0.1991,-0.099,-0.0055,0.1368,0.2709,0.461,0.7662,0.8701,0.9278,0.9584,1.0683,1.1838,1.2859,1.5408,1.6954,1.6961,1.8278,1.9056,1.9044,1.8653,1.8289,1.8034,1.7596,1.7479,1.7748,1.8142,1.4911,0.8043,-0.2558,-1.1998,-2.0043,-1.9546,-1.9622,-2.0175,-2.0345,-2.0332,-2.0211,-2.0342,-2.0404,-2.0381,-2.0323,-2.0308,-2.0312,-2.0312,-2.0312,-2.0312,-2.0312,-2.0312,-2.0312,-2.0312,-2.035,-2.0542,-2.1435,-2.24,-2.3379,-2.4297,-2.5098,-2.5703,-2.5703,-2.5703,-2.5703,-2.5703,-2.5703,-2.5703,-2.5703,-2.6309,-2.7344,-2.8984,-2.9394,-2.9726,-3.0605,-3.0762,-3.0781,-3.0898,-3.0898,-3.0898,-3.0898,-3.0898,-3.0898,-3.0898,-3.0898,-3.0898,-3.0898,-3.0898,-3.0898,-3.0898,-3.0898,-3.0898,-3.0898,-3.0898,-3.0898,-3.0898,-3.0898,-3.0898,-3.0898,-3.0898,-3.0898,-3.0898,-3.0898,-3.0898,-1.2573,-1.2765,-1.2879,-1.3364,-1.2489,0.0,-1.0615,-0.9788,-0.8758,-0.7326,-0.6607,-0.5882,-0.4837,-0.4059,-0.3227,-0.2394,-0.1524,0.0588,0.4914,0.6112,0.659,0.6716,0.6943,0.7602,0.8803,1.2203,1.4315,1.4277,1.6731,1.8207,1.8081,1.7983,1.8017,1.8165,1.7854,1.8172,1.919,1.933,1.6184,0.9704,-0.0795,-0.9639,-1.6775,-1.8196,-1.9008,-1.936,-1.9766,-2.0036,-2.0205,-2.0402,-2.0456,-2.0395,-2.0395,-2.0385,-2.0369,-2.0331,-2.0312,-2.0312,-2.0312,-2.0312,-2.0312,-2.0312,-2.0312,-2.0484,-2.1415,-2.2361,-2.3437,-2.5019,-2.5566,-2.5703,-2.5703,-2.5703,-2.5703,-2.5703,-2.5703,-2.5703,-2.5703,-2.582,-2.6269,-2.7305,-2.8066,-2.8828,-2.9707,-2.9844,-3.0098,-3.0781,-3.0898,-3.0898,-3.0898,-3.0898,-3.0898,-3.0898,-3.0898,-3.0898,-3.0898,-3.0898,-3.0898,-3.0898,-3.0898,-3.0898,-3.0898,-3.0898,-3.0898,-3.0898,-3.0898,-3.0898,-3.0898,-3.0898,-3.0898,-3.0898,-3.0898,-3.0898,-1.2757,-1.3304,-1.3606,-1.3606,-1.3232,0.0,0.0,-1.0996,-1.0203,-0.8521,-0.7888,-0.734,-0.6225,-0.604,-0.5632,-0.4591,-0.4368,-0.3396,-0.0681,0.1801,0.3334,0.3245,0.357,0.4342,0.5823,0.8844,1.2023,1.521,1.7197,1.8044,1.7579,1.7704,1.7927,1.8187,1.8078,1.8503,1.9583,1.9668,1.7116,1.1886,0.258,-0.6103,-1.3995,-1.5447,-1.7201,-1.9125,-1.9593,-1.9959,-2.0203,-2.0383,-2.0423,-2.0391,-2.0438,-2.045,-2.0441,-2.0374,-2.0353,-2.035,-2.035,-2.0331,-2.0312,-2.0312,-2.0312,-2.0385,-2.0895,-2.2004,-2.3379,-2.4687,-2.5352,-2.5703,-2.5703,-2.5703,-2.5703,-2.5703,-2.5703,-2.5703,-2.5703,-2.5703,-2.582,-2.6269,-2.6699,-2.7422,-2.873,-2.9316,-2.9746,-3.0195,-3.0625,-3.0898,-3.0898,-3.0898,-3.0898,-3.0898,-3.0898,-3.0898,-3.0898,-3.0898,-3.0898,-3.0898,-3.0898,-3.0898,-3.0898,-3.0898,-3.0898,-3.0898,-3.0898,-3.0898,-3.0898,-3.0898,-3.0898,-3.0898,-3.0898,-3.0898,-1.3,-1.3846,-1.4273,-1.3606,-1.374,-1.3688,0.0,0.0,0.0,-0.9472,-0.9096,-0.8731,-0.7635,-0.7829,-0.7858,-0.6722,-0.6866,-0.6945,-0.6486,-0.3363,-0.0964,-0.0688,-0.017,0.0688,0.2195,0.494,0.9716,1.7143,1.7864,1.779,1.7327,1.7549,1.7866,1.827,1.8261,1.8707,1.9678,1.9708,1.7707,1.3613,0.6093,-0.2396,-1.1483,-1.2796,-1.5236,-1.8493,-1.9213,-1.9715,-2.0031,-2.0195,-2.0302,-2.0346,-2.0433,-2.0487,-2.0488,-2.0419,-2.0405,-2.0412,-2.0397,-2.0364,-2.0318,-2.03,-2.0312,-2.0358,-2.0576,-2.1808,-2.3281,-2.4141,-2.5039,-2.5703,-2.5703,-2.5703,-2.5703,-2.5703,-2.5703,-2.5703,-2.5703,-2.5703,-2.5703,-2.5703,-2.5703,-2.6191,-2.7773,-2.8633,-2.9219,-2.9551,-3.0195,-3.0703,-3.0879,-3.0898,-3.0898,-3.0898,-3.0898,-3.0898,-3.0898,-3.0898,-3.0898,-3.0898,-3.0898,-3.0898,-3.0898,-3.0898,-3.0898,-3.0898,-3.0898,-3.0898,-3.0898,-3.0898,-3.0898,-3.0898,-3.0898,-3.0898,-1.3855,-1.4628,-1.5235,-1.5167,-1.4916,-1.438,-1.3232,0.0,-1.2069,-1.0836,0.0,-1.0501,-1.0348,0.0,0.0,-1.0222,-0.9731,-0.949,-1.0054,-0.9016,-0.7421,-0.5321,-0.5154,-0.4918,-0.4111,-0.0091,0.7023,1.798,1.7137,1.6465,1.7248,1.7344,1.7721,1.8528,1.8485,1.8947,1.995,1.9896,1.7806,1.3633,0.8317,0.0551,-0.9171,-1.1769,-1.4153,-1.625,-1.7864,-1.8851,-1.9337,-1.964,-1.9927,-2.0145,-2.0346,-2.0447,-2.0488,-2.0429,-2.0447,-2.048,-2.0422,-2.0409,-2.0371,-2.0325,-2.035,-2.0523,-2.1318,-2.2279,-2.3281,-2.4141,-2.5039,-2.5703,-2.5703,-2.5703,-2.5703,-2.5703,-2.5703,-2.5703,-2.5703,-2.5703,-2.5703,-2.5703,-2.5703,-2.6016,-2.6973,-2.7226,-2.7812,-2.9375,-2.9687,-3.0039,-3.0801,-3.0898,-3.0898,-3.0898,-3.0898,-3.0898,-3.0898,-3.0898,-3.0898,-3.0898,-3.0898,-3.0898,-3.0898,-3.0898,-3.0898,-3.0898,-3.0898,-3.0898,-3.0898,-3.0898,-3.0898,-3.0898,-3.0898,-3.0898,-1.3965,-1.4815,-1.541,-1.541,-1.5098,-1.4612,-1.385,-1.338,-1.2749,-1.1604,0.0,0.0,0.0,0.0,0.0,0.0,-1.1173,-1.1594,-1.188,-1.1583,-1.0672,-0.8999,-0.9047,-0.9205,-0.9167,-0.4516,0.1128,0.7488,0.9273,1.2192,1.7109,1.7846,1.8438,1.917,1.9163,1.9131,1.9061,1.7766,1.4942,1.0573,0.6236,0.0083,-0.7523,-1.0668,-1.3452,-1.5895,-1.7641,-1.8698,-1.9228,-1.945,-1.9682,-1.9945,-2.0104,-2.0276,-2.0437,-2.0442,-2.0488,-2.0508,-2.0519,-2.0494,-2.0441,-2.0386,-2.0408,-2.052,-2.0901,-2.2,-2.3184,-2.3594,-2.4668,-2.5703,-2.5703,-2.5703,-2.5703,-2.5703,-2.5703,-2.5703,-2.5703,-2.5703,-2.5703,-2.5703,-2.5703,-2.582,-2.6172,-2.668,-2.7246,-2.7988,-2.8945,-2.9726,-3.0098,-3.0586,-3.0898,-3.0898,-3.0898,-3.0898,-3.0898,-3.0898,-3.0898,-3.0898,-3.0898,-3.0898,-3.0898,-3.0898,-3.0898,-3.0898,-3.0898,-3.0898,-3.0898,-3.0898,-3.0898,-3.0898,-3.0898,-3.0898,-1.4323,-1.4932,-1.5381,-1.5264,-1.501,-1.4639,-1.4092,-1.3721,-1.3227,-1.2271,-1.208,0.0,0.0,0.0,-1.1972,-1.1657,0.0,-1.3205,-1.3517,-1.3642,-1.3299,-1.2172,-1.2142,-1.2491,-1.3205,-0.9447,-0.5535,-0.2077,0.089,0.5496,1.2267,1.4012,1.5367,1.656,1.7361,1.7517,1.7011,1.5451,1.2096,0.7006,0.4018,-0.0627,-0.6726,-0.9922,-1.2755,-1.5272,-1.7159,-1.8276,-1.8803,-1.8924,-1.9249,-1.9651,-1.9779,-2.0022,-2.0292,-2.0418,-2.0455,-2.0482,-2.0521,-2.0506,-2.0467,-2.0443,-2.0456,-2.0504,-2.0504,-2.1714,-2.3105,-2.3184,-2.4414,-2.5703,-2.5703,-2.5703,-2.5703,-2.5703,-2.5703,-2.5703,-2.5703,-2.5703,-2.5703,-2.5703,-2.5703,-2.5703,-2.5703,-2.6211,-2.6717,-2.693,-2.8059,-2.9021,-2.9482,-3.0096,-3.0566,-3.0781,-3.082,-3.082,-3.082,-3.082,-3.082,-3.084,-3.0879,-3.0898,-3.0898,-3.0898,-3.0898,-3.0898,-3.0898,-3.0898,-3.0898,-3.0898,-3.0898,-3.0898,-3.0898,-3.0898,-1.5108,-1.5352,-1.5312,-1.4902,-1.4795,-1.457,-1.3721,-1.3516,-1.3389,-1.2959,-1.2871,-1.2881,-1.2832,-1.2832,-1.3055,0.0,-1.3721,0.0,0.0,-1.5947,-1.5886,-1.4815,-1.4247,-1.453,-1.6122,-1.5339,-1.2415,-0.68,-0.615,-0.4078,0.0321,0.3345,0.6215,0.897,1.1697,1.3236,1.3467,1.3589,1.0243,0.355,0.2913,-0.0742,-0.6984,-0.977,-1.1938,-1.3685,-1.5894,-1.7174,-1.7764,-1.7887,-1.8449,-1.9228,-1.9374,-1.9654,-2.0031,-2.023,-2.0346,-2.0395,-2.0414,-2.0406,-2.041,-2.0488,-2.0496,-2.0504,-2.0504,-2.1714,-2.3105,-2.3184,-2.4414,-2.5703,-2.5703,-2.5703,-2.5703,-2.5703,-2.5703,-2.5703,-2.5703,-2.5703,-2.5703,-2.5703,-2.5703,-2.5703,-2.5703,-2.5723,-2.6017,-2.6782,-2.6959,-2.7572,-2.9207,-2.9433,-2.9746,-3.0527,-3.0605,-3.0605,-3.0605,-3.0605,-3.0644,-3.0703,-3.082,-3.0898,-3.0898,-3.0898,-3.0898,-3.0898,-3.0898,-3.0898,-3.0898,-3.0898,-3.0898,-3.0898,-3.0898,-3.0898,-1.484,-1.5,-1.4893,-1.4463,-1.415,-1.3857,-1.3574,-1.3291,-1.3047,-1.291,-1.2881,-1.2881,-1.2881,-1.3248,0.0,0.0,0.0,-1.5672,0.0,-1.7246,-1.7855,-1.7348,-1.7064,-1.7136,-1.7679,-1.7731,-1.6766,-1.439,-1.418,-1.0932,-0.3573,-0.1738,0.1545,0.6942,0.8033,0.8671,0.8929,0.7537,0.4708,0.0453,-0.2332,-0.5181,-0.8071,-1.0952,-1.292,-1.4128,-1.5715,-1.6754,-1.7392,-1.7669,-1.8119,-1.8698,-1.9112,-1.9505,-1.9901,-2.0084,-2.0234,-2.0347,-2.0386,-2.041,-2.0394,-2.0433,-2.0469,-2.0492,-2.0492,-2.1728,-2.3105,-2.3184,-2.4414,-2.5703,-2.5703,-2.5703,-2.5703,-2.5703,-2.5703,-2.5703,-2.5703,-2.5703,-2.5703,-2.5703,-2.5703,-2.5703,-2.5703,-2.5668,-2.5743,-2.6061,-2.6565,-2.7094,-2.7669,-2.8706,-2.9493,-2.9784,-3.0277,-3.0595,-3.0595,-3.0595,-3.0617,-3.0625,-3.0684,-3.0703,-3.0703,-3.0742,-3.0762,-3.0762,-3.0859,-3.0898,-3.0898,-3.0898,-3.0898,-3.0898,-3.0898,-3.0898,-1.4741,-1.4678,-1.4453,-1.4014,-1.3711,-1.3467,-1.332,-1.3076,-1.2881,-1.2881,-1.2881,-1.2978,-1.32,-1.3552,-1.3956,0.0,0.0,0.0,0.0,-1.8246,-1.9148,-1.9209,-1.8946,-1.8749,-1.8781,-1.9256,-1.9227,-1.8443,-1.8364,-1.5621,-0.9403,-0.7489,-0.4082,0.1363,0.2437,0.317,0.3679,0.2266,0.0074,-0.2841,-0.578,-0.7691,-0.8661,-1.1469,-1.3061,-1.3716,-1.5169,-1.6188,-1.6872,-1.7238,-1.7812,-1.8499,-1.8857,-1.9291,-1.9762,-1.9993,-2.0156,-2.0312,-2.035,-2.0353,-2.036,-2.038,-2.0437,-2.0477,-2.0486,-2.1719,-2.3047,-2.2812,-2.418,-2.5625,-2.5312,-2.5469,-2.5703,-2.5703,-2.5703,-2.5703,-2.5703,-2.5703,-2.5703,-2.5703,-2.5703,-2.5703,-2.5703,-2.5638,-2.5619,-2.5637,-2.6049,-2.6468,-2.6756,-2.7736,-2.8618,-2.924,-2.9771,-3.0186,-3.0506,-3.0544,-3.0559,-3.0555,-3.0583,-3.0603,-3.0603,-3.0661,-3.0693,-3.0703,-3.082,-3.0898,-3.0898,-3.0898,-3.0898,-3.0898,-3.0898,-3.0898]}]]